<?xml version='1.0' encoding='UTF-8'?>
<gpx version="1.1" creator="https://www.komoot.de" xmlns="http://www.topografix.com/GPX/1/1" xmlns:xsi="http://www.w3.org/2001/XMLSchema-instance" xsi:schemaLocation="http://www.topografix.com/GPX/1/1 http://www.topografix.com/GPX/1/1/gpx.xsd">
  <metadata>
    <name>55_770DWittnau-Kaisten</name>
    <author>
      <link href="https://www.komoot.de">
        <text>komoot</text>
        <type>text/html</type>
      </link>
    </author>
  </metadata>
  <trk>
    <name>55_770DWittnau-Kaisten</name>
    <trkseg>
      <trkpt lat="47.541323" lon="7.870863">
        <ele>342.570628</ele>
        <time>2021-11-14T15:26:27.629Z</time>
      </trkpt>
      <trkpt lat="47.541092" lon="7.871055">
        <ele>342.570628</ele>
        <time>2021-11-14T15:26:33.921Z</time>
      </trkpt>
      <trkpt lat="47.540933" lon="7.871187">
        <ele>342.570628</ele>
        <time>2021-11-14T15:26:37.802Z</time>
      </trkpt>
      <trkpt lat="47.540894" lon="7.871220">
        <ele>342.570628</ele>
        <time>2021-11-14T15:26:38.929Z</time>
      </trkpt>
      <trkpt lat="47.540693" lon="7.871390">
        <ele>342.570628</ele>
        <time>2021-11-14T15:26:44.321Z</time>
      </trkpt>
      <trkpt lat="47.540463" lon="7.871584">
        <ele>342.733435</ele>
        <time>2021-11-14T15:26:50.489Z</time>
      </trkpt>
      <trkpt lat="47.540265" lon="7.871808">
        <ele>343.189882</ele>
        <time>2021-11-14T15:26:55.982Z</time>
      </trkpt>
      <trkpt lat="47.540216" lon="7.871851">
        <ele>343.294225</ele>
        <time>2021-11-14T15:26:57.436Z</time>
      </trkpt>
      <trkpt lat="47.540034" lon="7.871970">
        <ele>343.658705</ele>
        <time>2021-11-14T15:27:02.014Z</time>
      </trkpt>
      <trkpt lat="47.539930" lon="7.872041">
        <ele>343.868504</ele>
        <time>2021-11-14T15:27:04.582Z</time>
      </trkpt>
      <trkpt lat="47.539841" lon="7.872151">
        <ele>344.080864</ele>
        <time>2021-11-14T15:27:07.597Z</time>
      </trkpt>
      <trkpt lat="47.539678" lon="7.872430">
        <ele>344.537213</ele>
        <time>2021-11-14T15:27:13.134Z</time>
      </trkpt>
      <trkpt lat="47.539222" lon="7.873416">
        <ele>345.948878</ele>
        <time>2021-11-14T15:27:30.676Z</time>
      </trkpt>
      <trkpt lat="47.538278" lon="7.874319">
        <ele>347.091184</ele>
        <time>2021-11-14T15:27:50.329Z</time>
      </trkpt>
      <trkpt lat="47.537716" lon="7.874966">
        <ele>347.922664</ele>
        <time>2021-11-14T15:28:04.304Z</time>
      </trkpt>
      <trkpt lat="47.537261" lon="7.875237">
        <ele>348.867955</ele>
        <time>2021-11-14T15:28:13.821Z</time>
      </trkpt>
      <trkpt lat="47.537182" lon="7.875293">
        <ele>349.036772</ele>
        <time>2021-11-14T15:28:15.810Z</time>
      </trkpt>
      <trkpt lat="47.536921" lon="7.875537">
        <ele>349.631690</ele>
        <time>2021-11-14T15:28:21.777Z</time>
      </trkpt>
      <trkpt lat="47.536757" lon="7.875759">
        <ele>350.059935</ele>
        <time>2021-11-14T15:28:26.378Z</time>
      </trkpt>
      <trkpt lat="47.536632" lon="7.875912">
        <ele>350.372502</ele>
        <time>2021-11-14T15:28:29.546Z</time>
      </trkpt>
      <trkpt lat="47.536444" lon="7.876177">
        <ele>350.872749</ele>
        <time>2021-11-14T15:28:36.507Z</time>
      </trkpt>
      <trkpt lat="47.535851" lon="7.877319">
        <ele>355.123872</ele>
        <time>2021-11-14T15:29:07.822Z</time>
      </trkpt>
      <trkpt lat="47.535770" lon="7.877432">
        <ele>355.659640</ele>
        <time>2021-11-14T15:29:12.002Z</time>
      </trkpt>
      <trkpt lat="47.535635" lon="7.877484">
        <ele>356.331285</ele>
        <time>2021-11-14T15:29:17.869Z</time>
      </trkpt>
      <trkpt lat="47.535551" lon="7.877487">
        <ele>356.735863</ele>
        <time>2021-11-14T15:29:19.778Z</time>
      </trkpt>
      <trkpt lat="47.535322" lon="7.877590">
        <ele>357.888215</ele>
        <time>2021-11-14T15:29:29.829Z</time>
      </trkpt>
      <trkpt lat="47.535088" lon="7.877742">
        <ele>359.118512</ele>
        <time>2021-11-14T15:29:37.661Z</time>
      </trkpt>
      <trkpt lat="47.534855" lon="7.878090">
        <ele>360.750342</ele>
        <time>2021-11-14T15:29:49.644Z</time>
      </trkpt>
      <trkpt lat="47.534778" lon="7.878270">
        <ele>361.473087</ele>
        <time>2021-11-14T15:29:56.951Z</time>
      </trkpt>
      <trkpt lat="47.534825" lon="7.878414">
        <ele>362.015577</ele>
        <time>2021-11-14T15:29:59.578Z</time>
      </trkpt>
      <trkpt lat="47.534946" lon="7.878790">
        <ele>363.428332</ele>
        <time>2021-11-14T15:30:11.626Z</time>
      </trkpt>
      <trkpt lat="47.534908" lon="7.878975">
        <ele>364.084199</ele>
        <time>2021-11-14T15:30:15.684Z</time>
      </trkpt>
      <trkpt lat="47.534616" lon="7.879490">
        <ele>366.365209</ele>
        <time>2021-11-14T15:30:32.630Z</time>
      </trkpt>
      <trkpt lat="47.533892" lon="7.880353">
        <ele>369.853919</ele>
        <time>2021-11-14T15:31:00.370Z</time>
      </trkpt>
      <trkpt lat="47.533606" lon="7.880961">
        <ele>371.004475</ele>
        <time>2021-11-14T15:31:12.678Z</time>
      </trkpt>
      <trkpt lat="47.533374" lon="7.881639">
        <ele>372.184675</ele>
        <time>2021-11-14T15:31:23.724Z</time>
      </trkpt>
      <trkpt lat="47.533014" lon="7.882949">
        <ele>372.938089</ele>
        <time>2021-11-14T15:31:41.639Z</time>
      </trkpt>
      <trkpt lat="47.532859" lon="7.883508">
        <ele>372.900201</ele>
        <time>2021-11-14T15:31:47.517Z</time>
      </trkpt>
      <trkpt lat="47.532713" lon="7.884122">
        <ele>372.859388</ele>
        <time>2021-11-14T15:31:53.214Z</time>
      </trkpt>
      <trkpt lat="47.532699" lon="7.884224">
        <ele>372.852862</ele>
        <time>2021-11-14T15:31:54.168Z</time>
      </trkpt>
      <trkpt lat="47.532670" lon="7.884773">
        <ele>372.681137</ele>
        <time>2021-11-14T15:31:58.662Z</time>
      </trkpt>
      <trkpt lat="47.532658" lon="7.884989">
        <ele>372.453778</ele>
        <time>2021-11-14T15:32:00.274Z</time>
      </trkpt>
      <trkpt lat="47.532650" lon="7.885569">
        <ele>371.845206</ele>
        <time>2021-11-14T15:32:04.776Z</time>
      </trkpt>
      <trkpt lat="47.532505" lon="7.887120">
        <ele>370.202614</ele>
        <time>2021-11-14T15:32:16.727Z</time>
      </trkpt>
      <trkpt lat="47.532288" lon="7.887728">
        <ele>369.466282</ele>
        <time>2021-11-14T15:32:21.904Z</time>
      </trkpt>
      <trkpt lat="47.532011" lon="7.888896">
        <ele>368.132548</ele>
        <time>2021-11-14T15:32:31.134Z</time>
      </trkpt>
      <trkpt lat="47.531843" lon="7.889349">
        <ele>367.575722</ele>
        <time>2021-11-14T15:32:35.171Z</time>
      </trkpt>
      <trkpt lat="47.531560" lon="7.889776">
        <ele>367.161848</ele>
        <time>2021-11-14T15:32:40.111Z</time>
      </trkpt>
      <trkpt lat="47.531265" lon="7.889937">
        <ele>367.160737</ele>
        <time>2021-11-14T15:32:44.079Z</time>
      </trkpt>
      <trkpt lat="47.531076" lon="7.890029">
        <ele>367.160034</ele>
        <time>2021-11-14T15:32:46.920Z</time>
      </trkpt>
      <trkpt lat="47.530606" lon="7.890373">
        <ele>367.158181</ele>
        <time>2021-11-14T15:32:54.769Z</time>
      </trkpt>
      <trkpt lat="47.530322" lon="7.890690">
        <ele>367.156925</ele>
        <time>2021-11-14T15:33:00.762Z</time>
      </trkpt>
      <trkpt lat="47.529972" lon="7.891210">
        <ele>367.401737</ele>
        <time>2021-11-14T15:33:09.924Z</time>
      </trkpt>
      <trkpt lat="47.529714" lon="7.891609">
        <ele>367.791342</ele>
        <time>2021-11-14T15:33:17.258Z</time>
      </trkpt>
      <trkpt lat="47.529695" lon="7.891638">
        <ele>367.819839</ele>
        <time>2021-11-14T15:33:18.244Z</time>
      </trkpt>
      <trkpt lat="47.529235" lon="7.892158">
        <ele>368.424253</ele>
        <time>2021-11-14T15:33:29.178Z</time>
      </trkpt>
      <trkpt lat="47.528331" lon="7.892682">
        <ele>369.600600</ele>
        <time>2021-11-14T15:33:47.880Z</time>
      </trkpt>
      <trkpt lat="47.528003" lon="7.892732">
        <ele>370.083589</ele>
        <time>2021-11-14T15:33:53.586Z</time>
      </trkpt>
      <trkpt lat="47.527498" lon="7.892650">
        <ele>370.827741</ele>
        <time>2021-11-14T15:34:03.059Z</time>
      </trkpt>
      <trkpt lat="47.527011" lon="7.893061">
        <ele>371.648792</ele>
        <time>2021-11-14T15:34:16.252Z</time>
      </trkpt>
      <trkpt lat="47.526709" lon="7.893617">
        <ele>372.970353</ele>
        <time>2021-11-14T15:34:28.784Z</time>
      </trkpt>
      <trkpt lat="47.526504" lon="7.894030">
        <ele>373.932895</ele>
        <time>2021-11-14T15:34:38.965Z</time>
      </trkpt>
      <trkpt lat="47.526451" lon="7.893983">
        <ele>374.104691</ele>
        <time>2021-11-14T15:34:40.354Z</time>
      </trkpt>
      <trkpt lat="47.526401" lon="7.893964">
        <ele>374.248243</ele>
        <time>2021-11-14T15:34:41.171Z</time>
      </trkpt>
      <trkpt lat="47.526335" lon="7.893960">
        <ele>374.431941</ele>
        <time>2021-11-14T15:34:43.245Z</time>
      </trkpt>
      <trkpt lat="47.526257" lon="7.894278">
        <ele>375.067274</ele>
        <time>2021-11-14T15:34:49.457Z</time>
      </trkpt>
      <trkpt lat="47.525725" lon="7.895110">
        <ele>376.981261</ele>
        <time>2021-11-14T15:35:08.538Z</time>
      </trkpt>
      <trkpt lat="47.525603" lon="7.895265">
        <ele>377.234282</ele>
        <time>2021-11-14T15:35:14.155Z</time>
      </trkpt>
      <trkpt lat="47.525631" lon="7.895442">
        <ele>377.427509</ele>
        <time>2021-11-14T15:35:17.005Z</time>
      </trkpt>
      <trkpt lat="47.525631" lon="7.895583">
        <ele>377.577378</ele>
        <time>2021-11-14T15:35:18.196Z</time>
      </trkpt>
      <trkpt lat="47.525622" lon="7.895944">
        <ele>377.961346</ele>
        <time>2021-11-14T15:35:25.632Z</time>
      </trkpt>
      <trkpt lat="47.525590" lon="7.896117">
        <ele>378.152002</ele>
        <time>2021-11-14T15:35:27.185Z</time>
      </trkpt>
      <trkpt lat="47.525518" lon="7.896336">
        <ele>378.410901</ele>
        <time>2021-11-14T15:35:31.992Z</time>
      </trkpt>
      <trkpt lat="47.524834" lon="7.897636">
        <ele>379.492650</ele>
        <time>2021-11-14T15:35:48.915Z</time>
      </trkpt>
      <trkpt lat="47.524617" lon="7.898216">
        <ele>379.482260</ele>
        <time>2021-11-14T15:35:55.089Z</time>
      </trkpt>
      <trkpt lat="47.524360" lon="7.898951">
        <ele>379.469291</ele>
        <time>2021-11-14T15:36:02.629Z</time>
      </trkpt>
      <trkpt lat="47.524309" lon="7.899115">
        <ele>379.466461</ele>
        <time>2021-11-14T15:36:04.543Z</time>
      </trkpt>
      <trkpt lat="47.523896" lon="7.900001">
        <ele>380.239905</ele>
        <time>2021-11-14T15:36:16.466Z</time>
      </trkpt>
      <trkpt lat="47.523861" lon="7.900049">
        <ele>380.317935</ele>
        <time>2021-11-14T15:36:17.445Z</time>
      </trkpt>
      <trkpt lat="47.523890" lon="7.900131">
        <ele>380.420180</ele>
        <time>2021-11-14T15:36:18.400Z</time>
      </trkpt>
      <trkpt lat="47.523945" lon="7.900256">
        <ele>380.584975</ele>
        <time>2021-11-14T15:36:19.991Z</time>
      </trkpt>
      <trkpt lat="47.523989" lon="7.900340">
        <ele>380.702400</ele>
        <time>2021-11-14T15:36:21.041Z</time>
      </trkpt>
      <trkpt lat="47.523957" lon="7.900371">
        <ele>380.764949</ele>
        <time>2021-11-14T15:36:21.746Z</time>
      </trkpt>
      <trkpt lat="47.523878" lon="7.900445">
        <ele>380.917852</ele>
        <time>2021-11-14T15:36:23.863Z</time>
      </trkpt>
      <trkpt lat="47.523739" lon="7.900557">
        <ele>381.176695</ele>
        <time>2021-11-14T15:36:26.794Z</time>
      </trkpt>
      <trkpt lat="47.523648" lon="7.900606">
        <ele>381.335080</ele>
        <time>2021-11-14T15:36:28.973Z</time>
      </trkpt>
      <trkpt lat="47.523620" lon="7.900698">
        <ele>381.446545</ele>
        <time>2021-11-14T15:36:30.936Z</time>
      </trkpt>
      <trkpt lat="47.523567" lon="7.900820">
        <ele>381.606781</ele>
        <time>2021-11-14T15:36:33.034Z</time>
      </trkpt>
      <trkpt lat="47.523433" lon="7.901043">
        <ele>381.936504</ele>
        <time>2021-11-14T15:36:38.278Z</time>
      </trkpt>
      <trkpt lat="47.523340" lon="7.901197">
        <ele>382.164708</ele>
        <time>2021-11-14T15:36:42.320Z</time>
      </trkpt>
      <trkpt lat="47.523036" lon="7.901580">
        <ele>383.442991</ele>
        <time>2021-11-14T15:36:54.016Z</time>
      </trkpt>
      <trkpt lat="47.522688" lon="7.901843">
        <ele>385.045487</ele>
        <time>2021-11-14T15:37:06.334Z</time>
      </trkpt>
      <trkpt lat="47.522554" lon="7.901999">
        <ele>385.744613</ele>
        <time>2021-11-14T15:37:12.655Z</time>
      </trkpt>
      <trkpt lat="47.522260" lon="7.902356">
        <ele>387.304067</ele>
        <time>2021-11-14T15:37:25.028Z</time>
      </trkpt>
      <trkpt lat="47.522132" lon="7.902476">
        <ele>387.925441</ele>
        <time>2021-11-14T15:37:29.586Z</time>
      </trkpt>
      <trkpt lat="47.522065" lon="7.902526">
        <ele>388.233173</ele>
        <time>2021-11-14T15:37:31.780Z</time>
      </trkpt>
      <trkpt lat="47.522038" lon="7.902562">
        <ele>388.382193</ele>
        <time>2021-11-14T15:37:33.284Z</time>
      </trkpt>
      <trkpt lat="47.522013" lon="7.902637">
        <ele>388.613860</ele>
        <time>2021-11-14T15:37:35.418Z</time>
      </trkpt>
      <trkpt lat="47.521792" lon="7.903347">
        <ele>390.511161</ele>
        <time>2021-11-14T15:37:51.486Z</time>
      </trkpt>
      <trkpt lat="47.521297" lon="7.904312">
        <ele>392.967046</ele>
        <time>2021-11-14T15:38:15.488Z</time>
      </trkpt>
      <trkpt lat="47.520989" lon="7.905130">
        <ele>394.865092</ele>
        <time>2021-11-14T15:38:30.903Z</time>
      </trkpt>
      <trkpt lat="47.520678" lon="7.906050">
        <ele>395.535614</ele>
        <time>2021-11-14T15:38:44.373Z</time>
      </trkpt>
      <trkpt lat="47.520566" lon="7.906668">
        <ele>395.797445</ele>
        <time>2021-11-14T15:38:51.393Z</time>
      </trkpt>
      <trkpt lat="47.520528" lon="7.906930">
        <ele>395.907100</ele>
        <time>2021-11-14T15:38:54.653Z</time>
      </trkpt>
      <trkpt lat="47.520515" lon="7.907103">
        <ele>395.978328</ele>
        <time>2021-11-14T15:38:56.450Z</time>
      </trkpt>
      <trkpt lat="47.520506" lon="7.907236">
        <ele>396.033024</ele>
        <time>2021-11-14T15:38:57.527Z</time>
      </trkpt>
      <trkpt lat="47.520551" lon="7.907422">
        <ele>396.113872</ele>
        <time>2021-11-14T15:38:59.937Z</time>
      </trkpt>
      <trkpt lat="47.520733" lon="7.907655">
        <ele>396.259651</ele>
        <time>2021-11-14T15:39:03.124Z</time>
      </trkpt>
      <trkpt lat="47.520738" lon="7.907839">
        <ele>396.288861</ele>
        <time>2021-11-14T15:39:05.266Z</time>
      </trkpt>
      <trkpt lat="47.520493" lon="7.908683">
        <ele>396.407441</ele>
        <time>2021-11-14T15:39:13.446Z</time>
      </trkpt>
      <trkpt lat="47.519997" lon="7.910833">
        <ele>397.077473</ele>
        <time>2021-11-14T15:39:39.392Z</time>
      </trkpt>
      <trkpt lat="47.519891" lon="7.911129">
        <ele>397.303133</ele>
        <time>2021-11-14T15:39:43.982Z</time>
      </trkpt>
      <trkpt lat="47.519720" lon="7.911522">
        <ele>397.618013</ele>
        <time>2021-11-14T15:39:50.067Z</time>
      </trkpt>
      <trkpt lat="47.519421" lon="7.912098">
        <ele>398.107331</ele>
        <time>2021-11-14T15:39:59.633Z</time>
      </trkpt>
      <trkpt lat="47.517688" lon="7.914418">
        <ele>400.565524</ele>
        <time>2021-11-14T15:40:44.211Z</time>
      </trkpt>
      <trkpt lat="47.517281" lon="7.915238">
        <ele>401.219739</ele>
        <time>2021-11-14T15:40:57.225Z</time>
      </trkpt>
      <trkpt lat="47.517140" lon="7.915259">
        <ele>401.354634</ele>
        <time>2021-11-14T15:40:59.726Z</time>
      </trkpt>
      <trkpt lat="47.516806" lon="7.914896">
        <ele>401.749024</ele>
        <time>2021-11-14T15:41:07.301Z</time>
      </trkpt>
      <trkpt lat="47.516748" lon="7.914873">
        <ele>401.806180</ele>
        <time>2021-11-14T15:41:08.472Z</time>
      </trkpt>
      <trkpt lat="47.516662" lon="7.914835">
        <ele>401.891611</ele>
        <time>2021-11-14T15:41:10.263Z</time>
      </trkpt>
      <trkpt lat="47.516626" lon="7.914830">
        <ele>401.926030</ele>
        <time>2021-11-14T15:41:10.958Z</time>
      </trkpt>
      <trkpt lat="47.516590" lon="7.914840">
        <ele>401.960897</ele>
        <time>2021-11-14T15:41:11.554Z</time>
      </trkpt>
      <trkpt lat="47.516569" lon="7.914864">
        <ele>401.986149</ele>
        <time>2021-11-14T15:41:12.088Z</time>
      </trkpt>
      <trkpt lat="47.516544" lon="7.914936">
        <ele>402.038196</ele>
        <time>2021-11-14T15:41:12.935Z</time>
      </trkpt>
      <trkpt lat="47.516391" lon="7.915243">
        <ele>402.271350</ele>
        <time>2021-11-14T15:41:17.728Z</time>
      </trkpt>
      <trkpt lat="47.515014" lon="7.917030">
        <ele>404.051577</ele>
        <time>2021-11-14T15:41:51.504Z</time>
      </trkpt>
      <trkpt lat="47.514635" lon="7.917349">
        <ele>404.645905</ele>
        <time>2021-11-14T15:41:59.623Z</time>
      </trkpt>
      <trkpt lat="47.514561" lon="7.917409">
        <ele>404.760923</ele>
        <time>2021-11-14T15:42:01.515Z</time>
      </trkpt>
      <trkpt lat="47.514255" lon="7.917714">
        <ele>405.263802</ele>
        <time>2021-11-14T15:42:08.984Z</time>
      </trkpt>
      <trkpt lat="47.513378" lon="7.918393">
        <ele>407.012607</ele>
        <time>2021-11-14T15:42:30.710Z</time>
      </trkpt>
      <trkpt lat="47.513160" lon="7.918764">
        <ele>407.836433</ele>
        <time>2021-11-14T15:42:38.212Z</time>
      </trkpt>
      <trkpt lat="47.513058" lon="7.918896">
        <ele>408.172456</ele>
        <time>2021-11-14T15:42:41.367Z</time>
      </trkpt>
      <trkpt lat="47.512938" lon="7.919052">
        <ele>408.568557</ele>
        <time>2021-11-14T15:42:45.147Z</time>
      </trkpt>
      <trkpt lat="47.512664" lon="7.919306">
        <ele>409.370408</ele>
        <time>2021-11-14T15:42:53.370Z</time>
      </trkpt>
      <trkpt lat="47.512255" lon="7.919538">
        <ele>410.456793</ele>
        <time>2021-11-14T15:43:05.295Z</time>
      </trkpt>
      <trkpt lat="47.512085" lon="7.919732">
        <ele>411.140755</ele>
        <time>2021-11-14T15:43:11.504Z</time>
      </trkpt>
      <trkpt lat="47.511964" lon="7.919989">
        <ele>411.863222</ele>
        <time>2021-11-14T15:43:17.984Z</time>
      </trkpt>
      <trkpt lat="47.511883" lon="7.920133">
        <ele>412.295391</ele>
        <time>2021-11-14T15:43:21.998Z</time>
      </trkpt>
      <trkpt lat="47.511632" lon="7.920105">
        <ele>413.154822</ele>
        <time>2021-11-14T15:43:30.978Z</time>
      </trkpt>
      <trkpt lat="47.511375" lon="7.920079">
        <ele>414.034356</ele>
        <time>2021-11-14T15:43:39.475Z</time>
      </trkpt>
      <trkpt lat="47.510704" lon="7.919944">
        <ele>416.346443</ele>
        <time>2021-11-14T15:44:01.982Z</time>
      </trkpt>
      <trkpt lat="47.510627" lon="7.919935">
        <ele>416.610166</ele>
        <time>2021-11-14T15:44:04.319Z</time>
      </trkpt>
      <trkpt lat="47.510551" lon="7.919925">
        <ele>416.886635</ele>
        <time>2021-11-14T15:44:07.429Z</time>
      </trkpt>
      <trkpt lat="47.509902" lon="7.920009">
        <ele>419.359448</ele>
        <time>2021-11-14T15:44:28.026Z</time>
      </trkpt>
      <trkpt lat="47.509811" lon="7.920040">
        <ele>419.713884</ele>
        <time>2021-11-14T15:44:32.010Z</time>
      </trkpt>
      <trkpt lat="47.509809" lon="7.920155">
        <ele>420.008827</ele>
        <time>2021-11-14T15:44:33.604Z</time>
      </trkpt>
      <trkpt lat="47.509746" lon="7.920320">
        <ele>420.494774</ele>
        <time>2021-11-14T15:44:36.844Z</time>
      </trkpt>
      <trkpt lat="47.509586" lon="7.920497">
        <ele>421.252909</ele>
        <time>2021-11-14T15:44:45.222Z</time>
      </trkpt>
      <trkpt lat="47.509370" lon="7.920707">
        <ele>422.233768</ele>
        <time>2021-11-14T15:44:53.529Z</time>
      </trkpt>
      <trkpt lat="47.509138" lon="7.920939">
        <ele>423.296444</ele>
        <time>2021-11-14T15:45:02.491Z</time>
      </trkpt>
      <trkpt lat="47.508613" lon="7.921495">
        <ele>426.161390</ele>
        <time>2021-11-14T15:45:22.072Z</time>
      </trkpt>
      <trkpt lat="47.508585" lon="7.921587">
        <ele>426.469075</ele>
        <time>2021-11-14T15:45:23.004Z</time>
      </trkpt>
      <trkpt lat="47.508464" lon="7.921688">
        <ele>427.096123</ele>
        <time>2021-11-14T15:45:29.310Z</time>
      </trkpt>
      <trkpt lat="47.508248" lon="7.921916">
        <ele>428.293641</ele>
        <time>2021-11-14T15:45:36.896Z</time>
      </trkpt>
      <trkpt lat="47.508175" lon="7.922172">
        <ele>429.140946</ele>
        <time>2021-11-14T15:45:43.456Z</time>
      </trkpt>
      <trkpt lat="47.508171" lon="7.922196">
        <ele>429.216322</ele>
        <time>2021-11-14T15:45:45.294Z</time>
      </trkpt>
      <trkpt lat="47.508141" lon="7.922350">
        <ele>429.705039</ele>
        <time>2021-11-14T15:45:47.867Z</time>
      </trkpt>
      <trkpt lat="47.508128" lon="7.922441">
        <ele>429.988656</ele>
        <time>2021-11-14T15:45:50.663Z</time>
      </trkpt>
      <trkpt lat="47.508064" lon="7.922687">
        <ele>430.792477</ele>
        <time>2021-11-14T15:45:57.172Z</time>
      </trkpt>
      <trkpt lat="47.507981" lon="7.923001">
        <ele>431.724483</ele>
        <time>2021-11-14T15:46:05.486Z</time>
      </trkpt>
      <trkpt lat="47.507956" lon="7.923075">
        <ele>431.811063</ele>
        <time>2021-11-14T15:46:07.477Z</time>
      </trkpt>
      <trkpt lat="47.507876" lon="7.923234">
        <ele>432.018529</ele>
        <time>2021-11-14T15:46:11.802Z</time>
      </trkpt>
      <trkpt lat="47.507823" lon="7.923307">
        <ele>432.130674</ele>
        <time>2021-11-14T15:46:13.536Z</time>
      </trkpt>
      <trkpt lat="47.507715" lon="7.923412">
        <ele>432.330835</ele>
        <time>2021-11-14T15:46:18.252Z</time>
      </trkpt>
      <trkpt lat="47.507337" lon="7.923777">
        <ele>433.029967</ele>
        <time>2021-11-14T15:46:26.626Z</time>
      </trkpt>
      <trkpt lat="47.507226" lon="7.923898">
        <ele>433.243511</ele>
        <time>2021-11-14T15:46:30.218Z</time>
      </trkpt>
      <trkpt lat="47.507191" lon="7.924066">
        <ele>433.427485</ele>
        <time>2021-11-14T15:46:31.766Z</time>
      </trkpt>
      <trkpt lat="47.506562" lon="7.924949">
        <ele>434.163164</ele>
        <time>2021-11-14T15:46:44.665Z</time>
      </trkpt>
      <trkpt lat="47.506019" lon="7.926055">
        <ele>432.789209</ele>
        <time>2021-11-14T15:46:54.446Z</time>
      </trkpt>
      <trkpt lat="47.505768" lon="7.926636">
        <ele>432.096170</ele>
        <time>2021-11-14T15:46:59.526Z</time>
      </trkpt>
      <trkpt lat="47.505699" lon="7.926906">
        <ele>431.806078</ele>
        <time>2021-11-14T15:47:02.591Z</time>
      </trkpt>
      <trkpt lat="47.505690" lon="7.927200">
        <ele>431.901784</ele>
        <time>2021-11-14T15:47:04.745Z</time>
      </trkpt>
      <trkpt lat="47.505748" lon="7.927310">
        <ele>431.961469</ele>
        <time>2021-11-14T15:47:06.916Z</time>
      </trkpt>
      <trkpt lat="47.505858" lon="7.927551">
        <ele>432.085874</ele>
        <time>2021-11-14T15:47:09.680Z</time>
      </trkpt>
      <trkpt lat="47.505881" lon="7.927601">
        <ele>432.111747</ele>
        <time>2021-11-14T15:47:10.677Z</time>
      </trkpt>
      <trkpt lat="47.505868" lon="7.927611">
        <ele>432.121023</ele>
        <time>2021-11-14T15:47:10.905Z</time>
      </trkpt>
      <trkpt lat="47.505814" lon="7.927657">
        <ele>432.160472</ele>
        <time>2021-11-14T15:47:12.766Z</time>
      </trkpt>
      <trkpt lat="47.505253" lon="7.928170">
        <ele>432.577988</ele>
        <time>2021-11-14T15:47:24.586Z</time>
      </trkpt>
      <trkpt lat="47.504799" lon="7.928777">
        <ele>433.001270</ele>
        <time>2021-11-14T15:47:35.245Z</time>
      </trkpt>
      <trkpt lat="47.504724" lon="7.928871">
        <ele>433.117272</ele>
        <time>2021-11-14T15:47:38.881Z</time>
      </trkpt>
      <trkpt lat="47.504650" lon="7.928941">
        <ele>433.220935</ele>
        <time>2021-11-14T15:47:41.415Z</time>
      </trkpt>
      <trkpt lat="47.504005" lon="7.929312">
        <ele>434.037766</ele>
        <time>2021-11-14T15:47:55.856Z</time>
      </trkpt>
      <trkpt lat="47.503815" lon="7.929426">
        <ele>434.279770</ele>
        <time>2021-11-14T15:47:58.815Z</time>
      </trkpt>
      <trkpt lat="47.503598" lon="7.929585">
        <ele>434.565584</ele>
        <time>2021-11-14T15:48:04.091Z</time>
      </trkpt>
      <trkpt lat="47.503528" lon="7.929650">
        <ele>434.663125</ele>
        <time>2021-11-14T15:48:05.163Z</time>
      </trkpt>
      <trkpt lat="47.503485" lon="7.929688">
        <ele>434.722241</ele>
        <time>2021-11-14T15:48:06.675Z</time>
      </trkpt>
      <trkpt lat="47.503014" lon="7.930220">
        <ele>435.301387</ele>
        <time>2021-11-14T15:48:16.587Z</time>
      </trkpt>
      <trkpt lat="47.502761" lon="7.930610">
        <ele>435.594227</ele>
        <time>2021-11-14T15:48:22.940Z</time>
      </trkpt>
      <trkpt lat="47.502613" lon="7.930856">
        <ele>435.772635</ele>
        <time>2021-11-14T15:48:26.738Z</time>
      </trkpt>
      <trkpt lat="47.502400" lon="7.931256">
        <ele>436.048485</ele>
        <time>2021-11-14T15:48:33.542Z</time>
      </trkpt>
      <trkpt lat="47.502023" lon="7.932158">
        <ele>436.586340</ele>
        <time>2021-11-14T15:48:46.528Z</time>
      </trkpt>
      <trkpt lat="47.501901" lon="7.932351">
        <ele>436.690394</ele>
        <time>2021-11-14T15:48:50.287Z</time>
      </trkpt>
      <trkpt lat="47.501794" lon="7.932466">
        <ele>436.767450</ele>
        <time>2021-11-14T15:48:52.166Z</time>
      </trkpt>
      <trkpt lat="47.501463" lon="7.932668">
        <ele>436.976088</ele>
        <time>2021-11-14T15:48:58.306Z</time>
      </trkpt>
      <trkpt lat="47.501075" lon="7.932885">
        <ele>437.217792</ele>
        <time>2021-11-14T15:49:05.845Z</time>
      </trkpt>
      <trkpt lat="47.500990" lon="7.932950">
        <ele>437.273545</ele>
        <time>2021-11-14T15:49:07.663Z</time>
      </trkpt>
      <trkpt lat="47.500843" lon="7.933102">
        <ele>437.378039</ele>
        <time>2021-11-14T15:49:10.542Z</time>
      </trkpt>
      <trkpt lat="47.500435" lon="7.933872">
        <ele>437.813387</ele>
        <time>2021-11-14T15:49:20.373Z</time>
      </trkpt>
      <trkpt lat="47.500386" lon="7.933937">
        <ele>437.860219</ele>
        <time>2021-11-14T15:49:21.232Z</time>
      </trkpt>
      <trkpt lat="47.500352" lon="7.933976">
        <ele>437.890835</ele>
        <time>2021-11-14T15:49:21.994Z</time>
      </trkpt>
      <trkpt lat="47.500275" lon="7.934029">
        <ele>437.951277</ele>
        <time>2021-11-14T15:49:23.102Z</time>
      </trkpt>
      <trkpt lat="47.500208" lon="7.934071">
        <ele>438.003065</ele>
        <time>2021-11-14T15:49:24.335Z</time>
      </trkpt>
      <trkpt lat="47.500193" lon="7.934023">
        <ele>438.028496</ele>
        <time>2021-11-14T15:49:24.814Z</time>
      </trkpt>
      <trkpt lat="47.500169" lon="7.933984">
        <ele>438.053863</ele>
        <time>2021-11-14T15:49:25.247Z</time>
      </trkpt>
      <trkpt lat="47.500138" lon="7.933956">
        <ele>438.079712</ele>
        <time>2021-11-14T15:49:25.791Z</time>
      </trkpt>
      <trkpt lat="47.500067" lon="7.933946">
        <ele>438.130475</ele>
        <time>2021-11-14T15:49:26.739Z</time>
      </trkpt>
      <trkpt lat="47.500034" lon="7.933965">
        <ele>438.155677</ele>
        <time>2021-11-14T15:49:27.558Z</time>
      </trkpt>
      <trkpt lat="47.499993" lon="7.933864">
        <ele>438.212337</ele>
        <time>2021-11-14T15:49:29.100Z</time>
      </trkpt>
      <trkpt lat="47.499822" lon="7.933272">
        <ele>438.521935</ele>
        <time>2021-11-14T15:49:37.080Z</time>
      </trkpt>
      <trkpt lat="47.499538" lon="7.932868">
        <ele>438.802294</ele>
        <time>2021-11-14T15:49:45.061Z</time>
      </trkpt>
      <trkpt lat="47.499421" lon="7.932805">
        <ele>438.996077</ele>
        <time>2021-11-14T15:49:48.116Z</time>
      </trkpt>
      <trkpt lat="47.499354" lon="7.932769">
        <ele>439.119259</ele>
        <time>2021-11-14T15:49:49.843Z</time>
      </trkpt>
      <trkpt lat="47.499088" lon="7.932741">
        <ele>439.580120</ele>
        <time>2021-11-14T15:49:55.720Z</time>
      </trkpt>
      <trkpt lat="47.498997" lon="7.932758">
        <ele>439.738634</ele>
        <time>2021-11-14T15:49:57.758Z</time>
      </trkpt>
      <trkpt lat="47.498925" lon="7.932781">
        <ele>439.865929</ele>
        <time>2021-11-14T15:49:59.465Z</time>
      </trkpt>
      <trkpt lat="47.498481" lon="7.933011">
        <ele>440.678883</ele>
        <time>2021-11-14T15:50:08.719Z</time>
      </trkpt>
      <trkpt lat="47.498431" lon="7.932995">
        <ele>440.767289</ele>
        <time>2021-11-14T15:50:09.941Z</time>
      </trkpt>
      <trkpt lat="47.498391" lon="7.932972">
        <ele>440.841450</ele>
        <time>2021-11-14T15:50:10.860Z</time>
      </trkpt>
      <trkpt lat="47.498196" lon="7.932613">
        <ele>441.379286</ele>
        <time>2021-11-14T15:50:17.584Z</time>
      </trkpt>
      <trkpt lat="47.498138" lon="7.932522">
        <ele>441.525355</ele>
        <time>2021-11-14T15:50:19.584Z</time>
      </trkpt>
      <trkpt lat="47.498068" lon="7.932426">
        <ele>441.690276</ele>
        <time>2021-11-14T15:50:22.031Z</time>
      </trkpt>
      <trkpt lat="47.497907" lon="7.932254">
        <ele>442.026087</ele>
        <time>2021-11-14T15:50:26.733Z</time>
      </trkpt>
      <trkpt lat="47.497676" lon="7.932013">
        <ele>442.481261</ele>
        <time>2021-11-14T15:50:33.212Z</time>
      </trkpt>
      <trkpt lat="47.497430" lon="7.931757">
        <ele>442.965585</ele>
        <time>2021-11-14T15:50:40.803Z</time>
      </trkpt>
      <trkpt lat="47.497221" lon="7.931528">
        <ele>443.384390</ele>
        <time>2021-11-14T15:50:46.800Z</time>
      </trkpt>
      <trkpt lat="47.497104" lon="7.931414">
        <ele>443.609992</ele>
        <time>2021-11-14T15:50:49.598Z</time>
      </trkpt>
      <trkpt lat="47.496998" lon="7.931330">
        <ele>443.803641</ele>
        <time>2021-11-14T15:50:52.009Z</time>
      </trkpt>
      <trkpt lat="47.496424" lon="7.931075">
        <ele>444.768850</ele>
        <time>2021-11-14T15:51:02.758Z</time>
      </trkpt>
      <trkpt lat="47.496205" lon="7.930904">
        <ele>445.230426</ele>
        <time>2021-11-14T15:51:06.751Z</time>
      </trkpt>
      <trkpt lat="47.496162" lon="7.930842">
        <ele>445.344700</ele>
        <time>2021-11-14T15:51:08.218Z</time>
      </trkpt>
      <trkpt lat="47.496117" lon="7.930763">
        <ele>445.477596</ele>
        <time>2021-11-14T15:51:09.373Z</time>
      </trkpt>
      <trkpt lat="47.496051" lon="7.930607">
        <ele>445.714323</ele>
        <time>2021-11-14T15:51:11.985Z</time>
      </trkpt>
      <trkpt lat="47.495985" lon="7.930428">
        <ele>445.976591</ele>
        <time>2021-11-14T15:51:15.146Z</time>
      </trkpt>
      <trkpt lat="47.495801" lon="7.929891">
        <ele>446.750985</ele>
        <time>2021-11-14T15:51:24.726Z</time>
      </trkpt>
      <trkpt lat="47.495622" lon="7.929400">
        <ele>447.468544</ele>
        <time>2021-11-14T15:51:33.294Z</time>
      </trkpt>
      <trkpt lat="47.495562" lon="7.929221">
        <ele>447.725539</ele>
        <time>2021-11-14T15:51:36.037Z</time>
      </trkpt>
      <trkpt lat="47.495530" lon="7.929063">
        <ele>447.937684</ele>
        <time>2021-11-14T15:51:38.917Z</time>
      </trkpt>
      <trkpt lat="47.495468" lon="7.928678">
        <ele>448.626120</ele>
        <time>2021-11-14T15:51:45.930Z</time>
      </trkpt>
      <trkpt lat="47.495455" lon="7.928595">
        <ele>448.833818</ele>
        <time>2021-11-14T15:51:47.744Z</time>
      </trkpt>
      <trkpt lat="47.495268" lon="7.927740">
        <ele>451.024569</ele>
        <time>2021-11-14T15:52:04.405Z</time>
      </trkpt>
      <trkpt lat="47.495143" lon="7.927351">
        <ele>452.074638</ele>
        <time>2021-11-14T15:52:13.242Z</time>
      </trkpt>
      <trkpt lat="47.495031" lon="7.927006">
        <ele>453.007706</ele>
        <time>2021-11-14T15:52:21.586Z</time>
      </trkpt>
      <trkpt lat="47.494945" lon="7.926765">
        <ele>453.672111</ele>
        <time>2021-11-14T15:52:27.927Z</time>
      </trkpt>
      <trkpt lat="47.494515" lon="7.925509">
        <ele>457.110454</ele>
        <time>2021-11-14T15:52:56.715Z</time>
      </trkpt>
      <trkpt lat="47.494438" lon="7.925289">
        <ele>457.715949</ele>
        <time>2021-11-14T15:53:02.154Z</time>
      </trkpt>
      <trkpt lat="47.494034" lon="7.924101">
        <ele>460.966224</ele>
        <time>2021-11-14T15:53:27.227Z</time>
      </trkpt>
      <trkpt lat="47.493708" lon="7.923049">
        <ele>463.736258</ele>
        <time>2021-11-14T15:53:48.799Z</time>
      </trkpt>
      <trkpt lat="47.493397" lon="7.921760">
        <ele>467.004707</ele>
        <time>2021-11-14T15:54:15.778Z</time>
      </trkpt>
      <trkpt lat="47.493307" lon="7.921373">
        <ele>468.095940</ele>
        <time>2021-11-14T15:54:24.272Z</time>
      </trkpt>
      <trkpt lat="47.493236" lon="7.921091">
        <ele>469.027793</ele>
        <time>2021-11-14T15:54:30.654Z</time>
      </trkpt>
      <trkpt lat="47.493132" lon="7.920716">
        <ele>470.282975</ele>
        <time>2021-11-14T15:54:39.703Z</time>
      </trkpt>
      <trkpt lat="47.492813" lon="7.919900">
        <ele>473.202134</ele>
        <time>2021-11-14T15:55:01.187Z</time>
      </trkpt>
      <trkpt lat="47.492584" lon="7.919482">
        <ele>474.868462</ele>
        <time>2021-11-14T15:55:13.959Z</time>
      </trkpt>
      <trkpt lat="47.492227" lon="7.918989">
        <ele>477.033481</ele>
        <time>2021-11-14T15:55:30.861Z</time>
      </trkpt>
      <trkpt lat="47.491324" lon="7.917985">
        <ele>481.912269</ele>
        <time>2021-11-14T15:56:07.645Z</time>
      </trkpt>
      <trkpt lat="47.490822" lon="7.917158">
        <ele>484.621194</ele>
        <time>2021-11-14T15:56:29.805Z</time>
      </trkpt>
      <trkpt lat="47.490607" lon="7.916690">
        <ele>485.700655</ele>
        <time>2021-11-14T15:56:40.003Z</time>
      </trkpt>
      <trkpt lat="47.490429" lon="7.916164">
        <ele>486.822763</ele>
        <time>2021-11-14T15:56:49.872Z</time>
      </trkpt>
      <trkpt lat="47.490283" lon="7.915612">
        <ele>487.953467</ele>
        <time>2021-11-14T15:56:59.701Z</time>
      </trkpt>
      <trkpt lat="47.489987" lon="7.914083">
        <ele>490.662744</ele>
        <time>2021-11-14T15:57:25.481Z</time>
      </trkpt>
      <trkpt lat="47.489951" lon="7.913893">
        <ele>490.986013</ele>
        <time>2021-11-14T15:57:28.475Z</time>
      </trkpt>
      <trkpt lat="47.489922" lon="7.913738">
        <ele>491.249493</ele>
        <time>2021-11-14T15:57:30.980Z</time>
      </trkpt>
      <trkpt lat="47.489843" lon="7.913398">
        <ele>491.838503</ele>
        <time>2021-11-14T15:57:36.327Z</time>
      </trkpt>
      <trkpt lat="47.489607" lon="7.912646">
        <ele>493.284378</ele>
        <time>2021-11-14T15:57:50.556Z</time>
      </trkpt>
      <trkpt lat="47.489216" lon="7.911685">
        <ele>496.206586</ele>
        <time>2021-11-14T15:58:12.870Z</time>
      </trkpt>
      <trkpt lat="47.489040" lon="7.911300">
        <ele>497.417478</ele>
        <time>2021-11-14T15:58:22.336Z</time>
      </trkpt>
      <trkpt lat="47.488908" lon="7.911009">
        <ele>498.330510</ele>
        <time>2021-11-14T15:58:30.897Z</time>
      </trkpt>
      <trkpt lat="47.488699" lon="7.910498">
        <ele>499.886544</ele>
        <time>2021-11-14T15:58:44.560Z</time>
      </trkpt>
      <trkpt lat="47.488366" lon="7.909318">
        <ele>502.941568</ele>
        <time>2021-11-14T15:59:10.433Z</time>
      </trkpt>
      <trkpt lat="47.488241" lon="7.908835">
        <ele>504.173895</ele>
        <time>2021-11-14T15:59:19.620Z</time>
      </trkpt>
      <trkpt lat="47.488185" lon="7.908663">
        <ele>504.628797</ele>
        <time>2021-11-14T15:59:23.671Z</time>
      </trkpt>
      <trkpt lat="47.488080" lon="7.908344">
        <ele>505.474234</ele>
        <time>2021-11-14T15:59:29.632Z</time>
      </trkpt>
      <trkpt lat="47.487763" lon="7.907711">
        <ele>507.352563</ele>
        <time>2021-11-14T15:59:44.690Z</time>
      </trkpt>
      <trkpt lat="47.487587" lon="7.907459">
        <ele>508.216970</ele>
        <time>2021-11-14T15:59:51.149Z</time>
      </trkpt>
      <trkpt lat="47.487378" lon="7.907191">
        <ele>509.193097</ele>
        <time>2021-11-14T15:59:58.348Z</time>
      </trkpt>
      <trkpt lat="47.487197" lon="7.906946">
        <ele>510.058921</ele>
        <time>2021-11-14T16:00:04.489Z</time>
      </trkpt>
      <trkpt lat="47.486969" lon="7.906583">
        <ele>511.241001</ele>
        <time>2021-11-14T16:00:12.798Z</time>
      </trkpt>
      <trkpt lat="47.486769" lon="7.905976">
        <ele>512.974443</ele>
        <time>2021-11-14T16:00:28.827Z</time>
      </trkpt>
      <trkpt lat="47.486724" lon="7.905485">
        <ele>514.968049</ele>
        <time>2021-11-14T16:00:41.499Z</time>
      </trkpt>
      <trkpt lat="47.486755" lon="7.904487">
        <ele>518.987704</ele>
        <time>2021-11-14T16:01:08.364Z</time>
      </trkpt>
      <trkpt lat="47.486721" lon="7.904326">
        <ele>519.666376</ele>
        <time>2021-11-14T16:01:13.381Z</time>
      </trkpt>
      <trkpt lat="47.486688" lon="7.904238">
        <ele>520.071304</ele>
        <time>2021-11-14T16:01:16.536Z</time>
      </trkpt>
      <trkpt lat="47.486480" lon="7.904016">
        <ele>521.598238</ele>
        <time>2021-11-14T16:01:25.640Z</time>
      </trkpt>
      <trkpt lat="47.486247" lon="7.904043">
        <ele>522.989761</ele>
        <time>2021-11-14T16:01:34.307Z</time>
      </trkpt>
      <trkpt lat="47.486049" lon="7.904262">
        <ele>524.170225</ele>
        <time>2021-11-14T16:01:45.703Z</time>
      </trkpt>
      <trkpt lat="47.485593" lon="7.905145">
        <ele>527.434720</ele>
        <time>2021-11-14T16:02:15.469Z</time>
      </trkpt>
      <trkpt lat="47.485331" lon="7.905337">
        <ele>528.705609</ele>
        <time>2021-11-14T16:02:24.053Z</time>
      </trkpt>
      <trkpt lat="47.485073" lon="7.905345">
        <ele>529.827351</ele>
        <time>2021-11-14T16:02:30.666Z</time>
      </trkpt>
      <trkpt lat="47.485049" lon="7.905336">
        <ele>529.934974</ele>
        <time>2021-11-14T16:02:32.263Z</time>
      </trkpt>
      <trkpt lat="47.484936" lon="7.905289">
        <ele>530.445207</ele>
        <time>2021-11-14T16:02:34.891Z</time>
      </trkpt>
      <trkpt lat="47.484713" lon="7.905133">
        <ele>531.021272</ele>
        <time>2021-11-14T16:02:40.511Z</time>
      </trkpt>
      <trkpt lat="47.484481" lon="7.904947">
        <ele>530.371442</ele>
        <time>2021-11-14T16:02:43.888Z</time>
      </trkpt>
      <trkpt lat="47.484248" lon="7.904856">
        <ele>529.777969</ele>
        <time>2021-11-14T16:02:46.916Z</time>
      </trkpt>
      <trkpt lat="47.484124" lon="7.904824">
        <ele>529.467978</ele>
        <time>2021-11-14T16:02:48.393Z</time>
      </trkpt>
      <trkpt lat="47.484064" lon="7.904808">
        <ele>529.317833</ele>
        <time>2021-11-14T16:02:49.062Z</time>
      </trkpt>
      <trkpt lat="47.484005" lon="7.904793">
        <ele>529.170401</ele>
        <time>2021-11-14T16:02:49.794Z</time>
      </trkpt>
      <trkpt lat="47.483385" lon="7.904708">
        <ele>527.636953</ele>
        <time>2021-11-14T16:02:56.248Z</time>
      </trkpt>
      <trkpt lat="47.483329" lon="7.904705">
        <ele>527.498949</ele>
        <time>2021-11-14T16:02:56.755Z</time>
      </trkpt>
      <trkpt lat="47.483101" lon="7.904680">
        <ele>526.935901</ele>
        <time>2021-11-14T16:02:58.885Z</time>
      </trkpt>
      <trkpt lat="47.482433" lon="7.904538">
        <ele>522.567747</ele>
        <time>2021-11-14T16:03:04.856Z</time>
      </trkpt>
      <trkpt lat="47.482157" lon="7.904346">
        <ele>520.459080</ele>
        <time>2021-11-14T16:03:07.569Z</time>
      </trkpt>
      <trkpt lat="47.481709" lon="7.903892">
        <ele>516.704745</ele>
        <time>2021-11-14T16:03:12.408Z</time>
      </trkpt>
      <trkpt lat="47.481588" lon="7.903776">
        <ele>515.707892</ele>
        <time>2021-11-14T16:03:13.694Z</time>
      </trkpt>
      <trkpt lat="47.481478" lon="7.903693">
        <ele>514.854160</ele>
        <time>2021-11-14T16:03:14.826Z</time>
      </trkpt>
      <trkpt lat="47.480980" lon="7.903461">
        <ele>511.912776</ele>
        <time>2021-11-14T16:03:19.657Z</time>
      </trkpt>
      <trkpt lat="47.478367" lon="7.903166">
        <ele>497.537846</ele>
        <time>2021-11-14T16:03:44.289Z</time>
      </trkpt>
      <trkpt lat="47.478182" lon="7.903109">
        <ele>496.487870</ele>
        <time>2021-11-14T16:03:46.033Z</time>
      </trkpt>
      <trkpt lat="47.478118" lon="7.903075">
        <ele>496.110036</ele>
        <time>2021-11-14T16:03:46.631Z</time>
      </trkpt>
      <trkpt lat="47.476982" lon="7.902234">
        <ele>488.271676</ele>
        <time>2021-11-14T16:03:58.125Z</time>
      </trkpt>
      <trkpt lat="47.476536" lon="7.901977">
        <ele>485.237849</ele>
        <time>2021-11-14T16:04:02.493Z</time>
      </trkpt>
      <trkpt lat="47.476364" lon="7.901870">
        <ele>484.055169</ele>
        <time>2021-11-14T16:04:04.188Z</time>
      </trkpt>
      <trkpt lat="47.475300" lon="7.901112">
        <ele>477.319053</ele>
        <time>2021-11-14T16:04:15.096Z</time>
      </trkpt>
      <trkpt lat="47.475163" lon="7.901034">
        <ele>476.493831</ele>
        <time>2021-11-14T16:04:16.423Z</time>
      </trkpt>
      <trkpt lat="47.474888" lon="7.900841">
        <ele>474.782761</ele>
        <time>2021-11-14T16:04:19.275Z</time>
      </trkpt>
      <trkpt lat="47.474617" lon="7.900560">
        <ele>472.945641</ele>
        <time>2021-11-14T16:04:22.404Z</time>
      </trkpt>
      <trkpt lat="47.474336" lon="7.900125">
        <ele>470.990795</ele>
        <time>2021-11-14T16:04:26.246Z</time>
      </trkpt>
      <trkpt lat="47.474186" lon="7.899915">
        <ele>469.998185</ele>
        <time>2021-11-14T16:04:28.181Z</time>
      </trkpt>
      <trkpt lat="47.474087" lon="7.899774">
        <ele>469.337678</ele>
        <time>2021-11-14T16:04:29.492Z</time>
      </trkpt>
      <trkpt lat="47.473931" lon="7.899567">
        <ele>468.330459</ele>
        <time>2021-11-14T16:04:31.452Z</time>
      </trkpt>
      <trkpt lat="47.473317" lon="7.898945">
        <ele>464.753707</ele>
        <time>2021-11-14T16:04:38.692Z</time>
      </trkpt>
      <trkpt lat="47.471910" lon="7.898392">
        <ele>457.203060</ele>
        <time>2021-11-14T16:04:52.286Z</time>
      </trkpt>
      <trkpt lat="47.471825" lon="7.898370">
        <ele>456.753953</ele>
        <time>2021-11-14T16:04:53.073Z</time>
      </trkpt>
      <trkpt lat="47.471597" lon="7.898344">
        <ele>455.563794</ele>
        <time>2021-11-14T16:04:55.226Z</time>
      </trkpt>
      <trkpt lat="47.471002" lon="7.898222">
        <ele>452.756522</ele>
        <time>2021-11-14T16:05:00.821Z</time>
      </trkpt>
      <trkpt lat="47.469999" lon="7.897879">
        <ele>448.046443</ele>
        <time>2021-11-14T16:05:10.572Z</time>
      </trkpt>
      <trkpt lat="47.469806" lon="7.897795">
        <ele>447.125979</ele>
        <time>2021-11-14T16:05:12.601Z</time>
      </trkpt>
      <trkpt lat="47.469534" lon="7.897638">
        <ele>446.400221</ele>
        <time>2021-11-14T16:05:15.686Z</time>
      </trkpt>
      <trkpt lat="47.469598" lon="7.897405">
        <ele>446.071391</ele>
        <time>2021-11-14T16:05:17.477Z</time>
      </trkpt>
      <trkpt lat="47.469652" lon="7.897139">
        <ele>445.708260</ele>
        <time>2021-11-14T16:05:19.502Z</time>
      </trkpt>
      <trkpt lat="47.469678" lon="7.896938">
        <ele>445.440691</ele>
        <time>2021-11-14T16:05:20.964Z</time>
      </trkpt>
      <trkpt lat="47.469692" lon="7.896826">
        <ele>445.291773</ele>
        <time>2021-11-14T16:05:21.861Z</time>
      </trkpt>
      <trkpt lat="47.469738" lon="7.896220">
        <ele>444.494469</ele>
        <time>2021-11-14T16:05:26.460Z</time>
      </trkpt>
      <trkpt lat="47.469747" lon="7.895922">
        <ele>444.104456</ele>
        <time>2021-11-14T16:05:28.699Z</time>
      </trkpt>
      <trkpt lat="47.469734" lon="7.895575">
        <ele>443.650070</ele>
        <time>2021-11-14T16:05:31.738Z</time>
      </trkpt>
      <trkpt lat="47.469728" lon="7.895384">
        <ele>443.400075</ele>
        <time>2021-11-14T16:05:33.335Z</time>
      </trkpt>
      <trkpt lat="47.469714" lon="7.895204">
        <ele>443.295198</ele>
        <time>2021-11-14T16:05:35.007Z</time>
      </trkpt>
      <trkpt lat="47.469691" lon="7.894970">
        <ele>443.185188</ele>
        <time>2021-11-14T16:05:37.143Z</time>
      </trkpt>
      <trkpt lat="47.469658" lon="7.894567">
        <ele>442.996328</ele>
        <time>2021-11-14T16:05:40.809Z</time>
      </trkpt>
      <trkpt lat="47.469496" lon="7.893085">
        <ele>442.297894</ele>
        <time>2021-11-14T16:05:54.024Z</time>
      </trkpt>
      <trkpt lat="47.469288" lon="7.891996">
        <ele>441.590954</ele>
        <time>2021-11-14T16:06:03.535Z</time>
      </trkpt>
      <trkpt lat="47.468951" lon="7.890216">
        <ele>440.298443</ele>
        <time>2021-11-14T16:06:18.539Z</time>
      </trkpt>
      <trkpt lat="47.468718" lon="7.888938">
        <ele>439.672317</ele>
        <time>2021-11-14T16:06:29.417Z</time>
      </trkpt>
      <trkpt lat="47.468546" lon="7.888014">
        <ele>439.225905</ele>
        <time>2021-11-14T16:06:37.743Z</time>
      </trkpt>
      <trkpt lat="47.468250" lon="7.886308">
        <ele>440.160937</ele>
        <time>2021-11-14T16:06:56.315Z</time>
      </trkpt>
      <trkpt lat="47.468174" lon="7.885724">
        <ele>440.662096</ele>
        <time>2021-11-14T16:07:05.191Z</time>
      </trkpt>
      <trkpt lat="47.468160" lon="7.885412">
        <ele>440.925591</ele>
        <time>2021-11-14T16:07:10.365Z</time>
      </trkpt>
      <trkpt lat="47.468160" lon="7.885131">
        <ele>441.162383</ele>
        <time>2021-11-14T16:07:14.856Z</time>
      </trkpt>
      <trkpt lat="47.468170" lon="7.884753">
        <ele>441.787969</ele>
        <time>2021-11-14T16:07:21.100Z</time>
      </trkpt>
      <trkpt lat="47.468175" lon="7.884477">
        <ele>442.362795</ele>
        <time>2021-11-14T16:07:26.636Z</time>
      </trkpt>
      <trkpt lat="47.468160" lon="7.884313">
        <ele>442.707347</ele>
        <time>2021-11-14T16:07:30.130Z</time>
      </trkpt>
      <trkpt lat="47.468085" lon="7.883534">
        <ele>444.345558</ele>
        <time>2021-11-14T16:07:46.171Z</time>
      </trkpt>
      <trkpt lat="47.467832" lon="7.882502">
        <ele>446.631071</ele>
        <time>2021-11-14T16:08:07.741Z</time>
      </trkpt>
      <trkpt lat="47.467789" lon="7.882188">
        <ele>446.431705</ele>
        <time>2021-11-14T16:08:13.550Z</time>
      </trkpt>
      <trkpt lat="47.467755" lon="7.881902">
        <ele>445.958641</ele>
        <time>2021-11-14T16:08:17.467Z</time>
      </trkpt>
      <trkpt lat="47.467712" lon="7.880819">
        <ele>444.191314</ele>
        <time>2021-11-14T16:08:26.152Z</time>
      </trkpt>
      <trkpt lat="47.467695" lon="7.879712">
        <ele>442.189764</ele>
        <time>2021-11-14T16:08:33.020Z</time>
      </trkpt>
      <trkpt lat="47.467758" lon="7.879308">
        <ele>440.032302</ele>
        <time>2021-11-14T16:08:35.506Z</time>
      </trkpt>
      <trkpt lat="47.467814" lon="7.879126">
        <ele>438.991761</ele>
        <time>2021-11-14T16:08:36.675Z</time>
      </trkpt>
      <trkpt lat="47.467908" lon="7.878819">
        <ele>437.238033</ele>
        <time>2021-11-14T16:08:38.703Z</time>
      </trkpt>
      <trkpt lat="47.468067" lon="7.878427">
        <ele>434.859221</ele>
        <time>2021-11-14T16:08:41.474Z</time>
      </trkpt>
      <trkpt lat="47.468104" lon="7.878354">
        <ele>434.384447</ele>
        <time>2021-11-14T16:08:41.985Z</time>
      </trkpt>
      <trkpt lat="47.468268" lon="7.878083">
        <ele>432.491773</ele>
        <time>2021-11-14T16:08:44.190Z</time>
      </trkpt>
      <trkpt lat="47.468308" lon="7.877998">
        <ele>431.952853</ele>
        <time>2021-11-14T16:08:44.820Z</time>
      </trkpt>
      <trkpt lat="47.468327" lon="7.877957">
        <ele>431.694191</ele>
        <time>2021-11-14T16:08:45.099Z</time>
      </trkpt>
      <trkpt lat="47.468377" lon="7.877826">
        <ele>430.911378</ele>
        <time>2021-11-14T16:08:45.976Z</time>
      </trkpt>
      <trkpt lat="47.468557" lon="7.876917">
        <ele>427.191117</ele>
        <time>2021-11-14T16:08:51.645Z</time>
      </trkpt>
      <trkpt lat="47.468639" lon="7.876439">
        <ele>425.795348</ele>
        <time>2021-11-14T16:08:54.837Z</time>
      </trkpt>
      <trkpt lat="47.468698" lon="7.876140">
        <ele>424.913772</ele>
        <time>2021-11-14T16:08:56.924Z</time>
      </trkpt>
      <trkpt lat="47.468806" lon="7.875696">
        <ele>423.578241</ele>
        <time>2021-11-14T16:09:00.196Z</time>
      </trkpt>
      <trkpt lat="47.468925" lon="7.875205">
        <ele>422.101951</ele>
        <time>2021-11-14T16:09:04.131Z</time>
      </trkpt>
      <trkpt lat="47.468989" lon="7.874967">
        <ele>421.377003</ele>
        <time>2021-11-14T16:09:05.947Z</time>
      </trkpt>
      <trkpt lat="47.469050" lon="7.874738">
        <ele>420.904693</ele>
        <time>2021-11-14T16:09:07.809Z</time>
      </trkpt>
      <trkpt lat="47.469068" lon="7.874689">
        <ele>420.830893</ele>
        <time>2021-11-14T16:09:08.212Z</time>
      </trkpt>
      <trkpt lat="47.469097" lon="7.874606">
        <ele>420.707252</ele>
        <time>2021-11-14T16:09:08.868Z</time>
      </trkpt>
      <trkpt lat="47.469136" lon="7.874516">
        <ele>420.565782</ele>
        <time>2021-11-14T16:09:09.628Z</time>
      </trkpt>
      <trkpt lat="47.469173" lon="7.874432">
        <ele>420.433106</ele>
        <time>2021-11-14T16:09:10.383Z</time>
      </trkpt>
      <trkpt lat="47.469224" lon="7.874328">
        <ele>420.263080</ele>
        <time>2021-11-14T16:09:11.390Z</time>
      </trkpt>
      <trkpt lat="47.469422" lon="7.873965">
        <ele>419.645832</ele>
        <time>2021-11-14T16:09:14.852Z</time>
      </trkpt>
      <trkpt lat="47.469489" lon="7.873809">
        <ele>419.401251</ele>
        <time>2021-11-14T16:09:16.257Z</time>
      </trkpt>
      <trkpt lat="47.469626" lon="7.873477">
        <ele>418.886517</ele>
        <time>2021-11-14T16:09:19.154Z</time>
      </trkpt>
      <trkpt lat="47.469682" lon="7.873326">
        <ele>418.658599</ele>
        <time>2021-11-14T16:09:20.481Z</time>
      </trkpt>
      <trkpt lat="47.469710" lon="7.873249">
        <ele>418.542896</ele>
        <time>2021-11-14T16:09:21.073Z</time>
      </trkpt>
      <trkpt lat="47.469969" lon="7.872276">
        <ele>417.248955</ele>
        <time>2021-11-14T16:09:29.019Z</time>
      </trkpt>
      <trkpt lat="47.470156" lon="7.871491">
        <ele>416.382376</ele>
        <time>2021-11-14T16:09:35.361Z</time>
      </trkpt>
      <trkpt lat="47.470217" lon="7.871214">
        <ele>416.079056</ele>
        <time>2021-11-14T16:09:37.522Z</time>
      </trkpt>
      <trkpt lat="47.470245" lon="7.871088">
        <ele>415.940963</ele>
        <time>2021-11-14T16:09:38.536Z</time>
      </trkpt>
      <trkpt lat="47.470316" lon="7.870753">
        <ele>415.575434</ele>
        <time>2021-11-14T16:09:41.356Z</time>
      </trkpt>
      <trkpt lat="47.470333" lon="7.870669">
        <ele>415.484141</ele>
        <time>2021-11-14T16:09:42.000Z</time>
      </trkpt>
      <trkpt lat="47.470350" lon="7.870570">
        <ele>415.377792</ele>
        <time>2021-11-14T16:09:42.793Z</time>
      </trkpt>
      <trkpt lat="47.470379" lon="7.870338">
        <ele>415.132149</ele>
        <time>2021-11-14T16:09:44.737Z</time>
      </trkpt>
      <trkpt lat="47.470397" lon="7.870147">
        <ele>414.931365</ele>
        <time>2021-11-14T16:09:46.869Z</time>
      </trkpt>
      <trkpt lat="47.470378" lon="7.869626">
        <ele>414.613793</ele>
        <time>2021-11-14T16:09:52.878Z</time>
      </trkpt>
      <trkpt lat="47.470309" lon="7.869201">
        <ele>414.401982</ele>
        <time>2021-11-14T16:09:58.167Z</time>
      </trkpt>
      <trkpt lat="47.470234" lon="7.868884">
        <ele>414.239227</ele>
        <time>2021-11-14T16:10:02.222Z</time>
      </trkpt>
      <trkpt lat="47.470127" lon="7.868484">
        <ele>414.030761</ele>
        <time>2021-11-14T16:10:07.677Z</time>
      </trkpt>
      <trkpt lat="47.469915" lon="7.867494">
        <ele>413.527509</ele>
        <time>2021-11-14T16:10:20.977Z</time>
      </trkpt>
      <trkpt lat="47.469808" lon="7.866690">
        <ele>412.903847</ele>
        <time>2021-11-14T16:10:30.818Z</time>
      </trkpt>
      <trkpt lat="47.469764" lon="7.866452">
        <ele>412.714891</ele>
        <time>2021-11-14T16:10:33.815Z</time>
      </trkpt>
      <trkpt lat="47.469710" lon="7.866208">
        <ele>412.518274</ele>
        <time>2021-11-14T16:10:36.735Z</time>
      </trkpt>
      <trkpt lat="47.469629" lon="7.865918">
        <ele>412.277977</ele>
        <time>2021-11-14T16:10:40.483Z</time>
      </trkpt>
      <trkpt lat="47.469347" lon="7.864851">
        <ele>411.347765</ele>
        <time>2021-11-14T16:10:53.096Z</time>
      </trkpt>
      <trkpt lat="47.469305" lon="7.864692">
        <ele>411.133339</ele>
        <time>2021-11-14T16:10:54.844Z</time>
      </trkpt>
      <trkpt lat="47.469246" lon="7.864436">
        <ele>410.793602</ele>
        <time>2021-11-14T16:10:57.965Z</time>
      </trkpt>
      <trkpt lat="47.469011" lon="7.863405">
        <ele>409.426921</ele>
        <time>2021-11-14T16:11:09.622Z</time>
      </trkpt>
      <trkpt lat="47.468986" lon="7.863323">
        <ele>409.313929</ele>
        <time>2021-11-14T16:11:10.485Z</time>
      </trkpt>
      <trkpt lat="47.468943" lon="7.863195">
        <ele>409.134388</ele>
        <time>2021-11-14T16:11:11.969Z</time>
      </trkpt>
      <trkpt lat="47.468859" lon="7.862978">
        <ele>408.820286</ele>
        <time>2021-11-14T16:11:14.733Z</time>
      </trkpt>
      <trkpt lat="47.468825" lon="7.862900">
        <ele>408.703706</ele>
        <time>2021-11-14T16:11:15.705Z</time>
      </trkpt>
      <trkpt lat="47.468543" lon="7.862357">
        <ele>407.945008</ele>
        <time>2021-11-14T16:11:23.015Z</time>
      </trkpt>
      <trkpt lat="47.468224" lon="7.861805">
        <ele>407.343877</ele>
        <time>2021-11-14T16:11:31.277Z</time>
      </trkpt>
      <trkpt lat="47.467944" lon="7.861300">
        <ele>406.803235</ele>
        <time>2021-11-14T16:11:38.667Z</time>
      </trkpt>
      <trkpt lat="47.467266" lon="7.860107">
        <ele>405.626147</ele>
        <time>2021-11-14T16:11:57.410Z</time>
      </trkpt>
      <trkpt lat="47.467047" lon="7.859682">
        <ele>405.301334</ele>
        <time>2021-11-14T16:12:03.612Z</time>
      </trkpt>
      <trkpt lat="47.466922" lon="7.859398">
        <ele>405.095349</ele>
        <time>2021-11-14T16:12:07.575Z</time>
      </trkpt>
      <trkpt lat="47.466824" lon="7.859137">
        <ele>404.913879</ele>
        <time>2021-11-14T16:12:11.274Z</time>
      </trkpt>
      <trkpt lat="47.466673" lon="7.858620">
        <ele>404.571560</ele>
        <time>2021-11-14T16:12:17.828Z</time>
      </trkpt>
      <trkpt lat="47.466576" lon="7.858236">
        <ele>404.322393</ele>
        <time>2021-11-14T16:12:22.627Z</time>
      </trkpt>
      <trkpt lat="47.466518" lon="7.858022">
        <ele>404.272136</ele>
        <time>2021-11-14T16:12:24.621Z</time>
      </trkpt>
      <trkpt lat="47.466347" lon="7.856973">
        <ele>404.040087</ele>
        <time>2021-11-14T16:12:34.298Z</time>
      </trkpt>
      <trkpt lat="47.466344" lon="7.856945">
        <ele>404.033990</ele>
        <time>2021-11-14T16:12:34.490Z</time>
      </trkpt>
      <trkpt lat="47.466322" lon="7.856655">
        <ele>403.971235</ele>
        <time>2021-11-14T16:12:37.395Z</time>
      </trkpt>
      <trkpt lat="47.466310" lon="7.856541">
        <ele>403.946425</ele>
        <time>2021-11-14T16:12:38.506Z</time>
      </trkpt>
      <trkpt lat="47.466334" lon="7.856525">
        <ele>403.938051</ele>
        <time>2021-11-14T16:12:38.885Z</time>
      </trkpt>
      <trkpt lat="47.466353" lon="7.856496">
        <ele>403.929366</ele>
        <time>2021-11-14T16:12:39.355Z</time>
      </trkpt>
      <trkpt lat="47.466361" lon="7.856459">
        <ele>403.921012</ele>
        <time>2021-11-14T16:12:39.666Z</time>
      </trkpt>
      <trkpt lat="47.466359" lon="7.856420">
        <ele>403.912601</ele>
        <time>2021-11-14T16:12:39.974Z</time>
      </trkpt>
      <trkpt lat="47.466324" lon="7.856362">
        <ele>403.895882</ele>
        <time>2021-11-14T16:12:40.951Z</time>
      </trkpt>
      <trkpt lat="47.466298" lon="7.856354">
        <ele>403.887435</ele>
        <time>2021-11-14T16:12:41.304Z</time>
      </trkpt>
      <trkpt lat="47.466271" lon="7.856363">
        <ele>403.878630</ele>
        <time>2021-11-14T16:12:41.712Z</time>
      </trkpt>
      <trkpt lat="47.466237" lon="7.856421">
        <ele>403.862121</ele>
        <time>2021-11-14T16:12:42.455Z</time>
      </trkpt>
      <trkpt lat="47.466235" lon="7.856461">
        <ele>403.853496</ele>
        <time>2021-11-14T16:12:42.807Z</time>
      </trkpt>
      <trkpt lat="47.466156" lon="7.856481">
        <ele>403.828000</ele>
        <time>2021-11-14T16:12:44.000Z</time>
      </trkpt>
      <trkpt lat="47.466017" lon="7.856549">
        <ele>403.781428</ele>
        <time>2021-11-14T16:12:46.116Z</time>
      </trkpt>
      <trkpt lat="47.465801" lon="7.856657">
        <ele>403.823724</ele>
        <time>2021-11-14T16:12:49.903Z</time>
      </trkpt>
      <trkpt lat="47.465748" lon="7.856649">
        <ele>403.855076</ele>
        <time>2021-11-14T16:12:50.747Z</time>
      </trkpt>
      <trkpt lat="47.465709" lon="7.856610">
        <ele>403.882779</ele>
        <time>2021-11-14T16:12:51.341Z</time>
      </trkpt>
      <trkpt lat="47.465583" lon="7.856194">
        <ele>404.064129</ele>
        <time>2021-11-14T16:12:56.700Z</time>
      </trkpt>
      <trkpt lat="47.465550" lon="7.856132">
        <ele>404.095523</ele>
        <time>2021-11-14T16:12:57.353Z</time>
      </trkpt>
      <trkpt lat="47.465527" lon="7.856111">
        <ele>404.111429</ele>
        <time>2021-11-14T16:12:58.007Z</time>
      </trkpt>
      <trkpt lat="47.465400" lon="7.856122">
        <ele>404.186294</ele>
        <time>2021-11-14T16:13:00.124Z</time>
      </trkpt>
      <trkpt lat="47.464855" lon="7.856521">
        <ele>404.544151</ele>
        <time>2021-11-14T16:13:11.336Z</time>
      </trkpt>
      <trkpt lat="47.464813" lon="7.856540">
        <ele>404.569997</ele>
        <time>2021-11-14T16:13:12.235Z</time>
      </trkpt>
      <trkpt lat="47.464805" lon="7.856519">
        <ele>404.579587</ele>
        <time>2021-11-14T16:13:12.528Z</time>
      </trkpt>
      <trkpt lat="47.464741" lon="7.856458">
        <ele>404.624392</ele>
        <time>2021-11-14T16:13:13.811Z</time>
      </trkpt>
      <trkpt lat="47.464713" lon="7.856451">
        <ele>404.641103</ele>
        <time>2021-11-14T16:13:14.256Z</time>
      </trkpt>
      <trkpt lat="47.464688" lon="7.856453">
        <ele>404.655837</ele>
        <time>2021-11-14T16:13:14.676Z</time>
      </trkpt>
      <trkpt lat="47.464650" lon="7.856478">
        <ele>404.680311</ele>
        <time>2021-11-14T16:13:15.409Z</time>
      </trkpt>
      <trkpt lat="47.464638" lon="7.856496">
        <ele>404.690368</ele>
        <time>2021-11-14T16:13:15.797Z</time>
      </trkpt>
      <trkpt lat="47.464622" lon="7.856523">
        <ele>404.704653</ele>
        <time>2021-11-14T16:13:16.285Z</time>
      </trkpt>
      <trkpt lat="47.464610" lon="7.856554">
        <ele>404.718865</ele>
        <time>2021-11-14T16:13:16.629Z</time>
      </trkpt>
      <trkpt lat="47.464600" lon="7.856587">
        <ele>404.733252</ele>
        <time>2021-11-14T16:13:17.058Z</time>
      </trkpt>
      <trkpt lat="47.464530" lon="7.856598">
        <ele>404.774678</ele>
        <time>2021-11-14T16:13:18.449Z</time>
      </trkpt>
      <trkpt lat="47.463900" lon="7.856772">
        <ele>405.200479</ele>
        <time>2021-11-14T16:13:29.469Z</time>
      </trkpt>
      <trkpt lat="47.463826" lon="7.856840">
        <ele>405.258993</ele>
        <time>2021-11-14T16:13:30.976Z</time>
      </trkpt>
      <trkpt lat="47.463762" lon="7.856925">
        <ele>405.316765</ele>
        <time>2021-11-14T16:13:32.533Z</time>
      </trkpt>
      <trkpt lat="47.463161" lon="7.858061">
        <ele>405.971782</ele>
        <time>2021-11-14T16:13:49.049Z</time>
      </trkpt>
      <trkpt lat="47.463081" lon="7.858188">
        <ele>406.081112</ele>
        <time>2021-11-14T16:13:51.350Z</time>
      </trkpt>
      <trkpt lat="47.462979" lon="7.858360">
        <ele>406.275951</ele>
        <time>2021-11-14T16:13:54.089Z</time>
      </trkpt>
      <trkpt lat="47.462764" lon="7.858828">
        <ele>406.757802</ele>
        <time>2021-11-14T16:14:01.237Z</time>
      </trkpt>
      <trkpt lat="47.462720" lon="7.858959">
        <ele>406.882370</ele>
        <time>2021-11-14T16:14:03.185Z</time>
      </trkpt>
      <trkpt lat="47.462691" lon="7.859060">
        <ele>406.975817</ele>
        <time>2021-11-14T16:14:04.606Z</time>
      </trkpt>
      <trkpt lat="47.462623" lon="7.859309">
        <ele>407.204510</ele>
        <time>2021-11-14T16:14:08.135Z</time>
      </trkpt>
      <trkpt lat="47.462535" lon="7.859721">
        <ele>407.572461</ele>
        <time>2021-11-14T16:14:13.824Z</time>
      </trkpt>
      <trkpt lat="47.462471" lon="7.860097">
        <ele>407.902654</ele>
        <time>2021-11-14T16:14:19.401Z</time>
      </trkpt>
      <trkpt lat="47.462442" lon="7.860255">
        <ele>408.042077</ele>
        <time>2021-11-14T16:14:21.650Z</time>
      </trkpt>
      <trkpt lat="47.462327" lon="7.860669">
        <ele>408.513946</ele>
        <time>2021-11-14T16:14:28.394Z</time>
      </trkpt>
      <trkpt lat="47.462285" lon="7.860769">
        <ele>408.678302</ele>
        <time>2021-11-14T16:14:30.293Z</time>
      </trkpt>
      <trkpt lat="47.462231" lon="7.860873">
        <ele>408.861375</ele>
        <time>2021-11-14T16:14:32.652Z</time>
      </trkpt>
      <trkpt lat="47.461855" lon="7.861499">
        <ele>410.030418</ele>
        <time>2021-11-14T16:14:45.748Z</time>
      </trkpt>
      <trkpt lat="47.461541" lon="7.862217">
        <ele>411.224258</ele>
        <time>2021-11-14T16:14:59.420Z</time>
      </trkpt>
      <trkpt lat="47.461527" lon="7.862242">
        <ele>411.269579</ele>
        <time>2021-11-14T16:14:59.883Z</time>
      </trkpt>
      <trkpt lat="47.461353" lon="7.862539">
        <ele>411.818246</ele>
        <time>2021-11-14T16:15:06.226Z</time>
      </trkpt>
      <trkpt lat="47.461098" lon="7.862848">
        <ele>412.393305</ele>
        <time>2021-11-14T16:15:13.738Z</time>
      </trkpt>
      <trkpt lat="47.460786" lon="7.863164">
        <ele>413.010257</ele>
        <time>2021-11-14T16:15:22.126Z</time>
      </trkpt>
      <trkpt lat="47.460527" lon="7.863440">
        <ele>413.531081</ele>
        <time>2021-11-14T16:15:28.888Z</time>
      </trkpt>
      <trkpt lat="47.460398" lon="7.863603">
        <ele>413.807897</ele>
        <time>2021-11-14T16:15:32.303Z</time>
      </trkpt>
      <trkpt lat="47.460271" lon="7.863810">
        <ele>414.116238</ele>
        <time>2021-11-14T16:15:35.869Z</time>
      </trkpt>
      <trkpt lat="47.460115" lon="7.864146">
        <ele>414.565855</ele>
        <time>2021-11-14T16:15:41.672Z</time>
      </trkpt>
      <trkpt lat="47.460001" lon="7.864512">
        <ele>414.997039</ele>
        <time>2021-11-14T16:15:47.202Z</time>
      </trkpt>
      <trkpt lat="47.459616" lon="7.865526">
        <ele>416.066697</ele>
        <time>2021-11-14T16:16:03.250Z</time>
      </trkpt>
      <trkpt lat="47.459563" lon="7.865651">
        <ele>416.202408</ele>
        <time>2021-11-14T16:16:04.841Z</time>
      </trkpt>
      <trkpt lat="47.459497" lon="7.865844">
        <ele>416.401341</ele>
        <time>2021-11-14T16:16:08.372Z</time>
      </trkpt>
      <trkpt lat="47.459383" lon="7.866214">
        <ele>416.775333</ele>
        <time>2021-11-14T16:16:13.686Z</time>
      </trkpt>
      <trkpt lat="47.459231" lon="7.866811">
        <ele>417.362091</ele>
        <time>2021-11-14T16:16:22.588Z</time>
      </trkpt>
      <trkpt lat="47.459152" lon="7.867074">
        <ele>417.661199</ele>
        <time>2021-11-14T16:16:26.211Z</time>
      </trkpt>
      <trkpt lat="47.459058" lon="7.867339">
        <ele>417.974367</ele>
        <time>2021-11-14T16:16:30.721Z</time>
      </trkpt>
      <trkpt lat="47.458844" lon="7.867795">
        <ele>418.555256</ele>
        <time>2021-11-14T16:16:38.630Z</time>
      </trkpt>
      <trkpt lat="47.458680" lon="7.868173">
        <ele>419.025270</ele>
        <time>2021-11-14T16:16:44.909Z</time>
      </trkpt>
      <trkpt lat="47.458252" lon="7.869378">
        <ele>420.574730</ele>
        <time>2021-11-14T16:17:04.435Z</time>
      </trkpt>
      <trkpt lat="47.458055" lon="7.870048">
        <ele>421.670324</ele>
        <time>2021-11-14T16:17:15.203Z</time>
      </trkpt>
      <trkpt lat="47.457897" lon="7.870571">
        <ele>422.529321</ele>
        <time>2021-11-14T16:17:23.979Z</time>
      </trkpt>
      <trkpt lat="47.457834" lon="7.870782">
        <ele>422.875208</ele>
        <time>2021-11-14T16:17:27.958Z</time>
      </trkpt>
      <trkpt lat="47.457598" lon="7.871461">
        <ele>424.020071</ele>
        <time>2021-11-14T16:17:40.096Z</time>
      </trkpt>
      <trkpt lat="47.457107" lon="7.872555">
        <ele>426.966285</ele>
        <time>2021-11-14T16:18:07.021Z</time>
      </trkpt>
      <trkpt lat="47.456956" lon="7.873025">
        <ele>428.161224</ele>
        <time>2021-11-14T16:18:17.944Z</time>
      </trkpt>
      <trkpt lat="47.456839" lon="7.873690">
        <ele>429.739166</ele>
        <time>2021-11-14T16:18:30.925Z</time>
      </trkpt>
      <trkpt lat="47.456816" lon="7.873911">
        <ele>430.252642</ele>
        <time>2021-11-14T16:18:35.341Z</time>
      </trkpt>
      <trkpt lat="47.456788" lon="7.874217">
        <ele>430.587608</ele>
        <time>2021-11-14T16:18:40.573Z</time>
      </trkpt>
      <trkpt lat="47.456714" lon="7.874531">
        <ele>430.944804</ele>
        <time>2021-11-14T16:18:46.135Z</time>
      </trkpt>
      <trkpt lat="47.456658" lon="7.874665">
        <ele>431.114020</ele>
        <time>2021-11-14T16:18:47.988Z</time>
      </trkpt>
      <trkpt lat="47.456403" lon="7.875046">
        <ele>431.689884</ele>
        <time>2021-11-14T16:18:55.844Z</time>
      </trkpt>
      <trkpt lat="47.455780" lon="7.875652">
        <ele>432.874524</ele>
        <time>2021-11-14T16:19:11.338Z</time>
      </trkpt>
      <trkpt lat="47.455446" lon="7.875966">
        <ele>433.174170</ele>
        <time>2021-11-14T16:19:17.029Z</time>
      </trkpt>
      <trkpt lat="47.455123" lon="7.876253">
        <ele>433.263730</ele>
        <time>2021-11-14T16:19:22.004Z</time>
      </trkpt>
      <trkpt lat="47.454502" lon="7.876895">
        <ele>433.443815</ele>
        <time>2021-11-14T16:19:33.113Z</time>
      </trkpt>
      <trkpt lat="47.454362" lon="7.877045">
        <ele>433.484905</ele>
        <time>2021-11-14T16:19:36.041Z</time>
      </trkpt>
      <trkpt lat="47.453945" lon="7.877554">
        <ele>433.765750</ele>
        <time>2021-11-14T16:19:46.181Z</time>
      </trkpt>
      <trkpt lat="47.453517" lon="7.878069">
        <ele>434.183743</ele>
        <time>2021-11-14T16:19:56.316Z</time>
      </trkpt>
      <trkpt lat="47.453302" lon="7.878355">
        <ele>434.402810</ele>
        <time>2021-11-14T16:20:01.648Z</time>
      </trkpt>
      <trkpt lat="47.453057" lon="7.878652">
        <ele>434.642795</ele>
        <time>2021-11-14T16:20:07.248Z</time>
      </trkpt>
      <trkpt lat="47.452813" lon="7.878981">
        <ele>434.892932</ele>
        <time>2021-11-14T16:20:12.914Z</time>
      </trkpt>
      <trkpt lat="47.452655" lon="7.879223">
        <ele>435.076114</ele>
        <time>2021-11-14T16:20:16.732Z</time>
      </trkpt>
      <trkpt lat="47.452247" lon="7.879980">
        <ele>435.605892</ele>
        <time>2021-11-14T16:20:28.217Z</time>
      </trkpt>
      <trkpt lat="47.451953" lon="7.880518">
        <ele>435.984451</ele>
        <time>2021-11-14T16:20:36.558Z</time>
      </trkpt>
      <trkpt lat="47.451581" lon="7.881111">
        <ele>436.465256</ele>
        <time>2021-11-14T16:20:47.100Z</time>
      </trkpt>
      <trkpt lat="47.451351" lon="7.881477">
        <ele>436.898799</ele>
        <time>2021-11-14T16:20:53.659Z</time>
      </trkpt>
      <trkpt lat="47.451309" lon="7.881545">
        <ele>436.978711</ele>
        <time>2021-11-14T16:20:54.901Z</time>
      </trkpt>
      <trkpt lat="47.451241" lon="7.881654">
        <ele>437.107393</ele>
        <time>2021-11-14T16:20:56.874Z</time>
      </trkpt>
      <trkpt lat="47.451051" lon="7.881948">
        <ele>437.460267</ele>
        <time>2021-11-14T16:21:02.444Z</time>
      </trkpt>
      <trkpt lat="47.450772" lon="7.882435">
        <ele>438.014109</ele>
        <time>2021-11-14T16:21:11.237Z</time>
      </trkpt>
      <trkpt lat="47.450733" lon="7.882508">
        <ele>438.094835</ele>
        <time>2021-11-14T16:21:12.508Z</time>
      </trkpt>
      <trkpt lat="47.450650" lon="7.882664">
        <ele>438.267075</ele>
        <time>2021-11-14T16:21:15.243Z</time>
      </trkpt>
      <trkpt lat="47.450548" lon="7.882846">
        <ele>438.472187</ele>
        <time>2021-11-14T16:21:18.508Z</time>
      </trkpt>
      <trkpt lat="47.450472" lon="7.882973">
        <ele>438.619343</ele>
        <time>2021-11-14T16:21:20.767Z</time>
      </trkpt>
      <trkpt lat="47.450274" lon="7.883264">
        <ele>438.991182</ele>
        <time>2021-11-14T16:21:26.402Z</time>
      </trkpt>
      <trkpt lat="47.449712" lon="7.884119">
        <ele>440.071688</ele>
        <time>2021-11-14T16:21:42.135Z</time>
      </trkpt>
      <trkpt lat="47.449068" lon="7.885121">
        <ele>441.878906</ele>
        <time>2021-11-14T16:22:00.730Z</time>
      </trkpt>
      <trkpt lat="47.449022" lon="7.885187">
        <ele>442.159913</ele>
        <time>2021-11-14T16:22:02.530Z</time>
      </trkpt>
      <trkpt lat="47.448867" lon="7.885429">
        <ele>443.148149</ele>
        <time>2021-11-14T16:22:07.639Z</time>
      </trkpt>
      <trkpt lat="47.448801" lon="7.885554">
        <ele>443.618343</ele>
        <time>2021-11-14T16:22:10.286Z</time>
      </trkpt>
      <trkpt lat="47.448759" lon="7.885611">
        <ele>443.868278</ele>
        <time>2021-11-14T16:22:11.882Z</time>
      </trkpt>
      <trkpt lat="47.448727" lon="7.885648">
        <ele>444.046373</ele>
        <time>2021-11-14T16:22:12.861Z</time>
      </trkpt>
      <trkpt lat="47.448623" lon="7.885730">
        <ele>444.563105</ele>
        <time>2021-11-14T16:22:15.625Z</time>
      </trkpt>
      <trkpt lat="47.448497" lon="7.885784">
        <ele>445.138259</ele>
        <time>2021-11-14T16:22:19.062Z</time>
      </trkpt>
      <trkpt lat="47.448503" lon="7.885850">
        <ele>445.335702</ele>
        <time>2021-11-14T16:22:20.450Z</time>
      </trkpt>
      <trkpt lat="47.448510" lon="7.885941">
        <ele>445.607247</ele>
        <time>2021-11-14T16:22:22.067Z</time>
      </trkpt>
      <trkpt lat="47.448509" lon="7.886022">
        <ele>445.847443</ele>
        <time>2021-11-14T16:22:23.445Z</time>
      </trkpt>
      <trkpt lat="47.448479" lon="7.886216">
        <ele>446.437478</ele>
        <time>2021-11-14T16:22:27.682Z</time>
      </trkpt>
      <trkpt lat="47.448449" lon="7.886310">
        <ele>446.745656</ele>
        <time>2021-11-14T16:22:30.101Z</time>
      </trkpt>
      <trkpt lat="47.448424" lon="7.886390">
        <ele>447.006948</ele>
        <time>2021-11-14T16:22:32.319Z</time>
      </trkpt>
      <trkpt lat="47.448327" lon="7.886693">
        <ele>448.000888</ele>
        <time>2021-11-14T16:22:41.728Z</time>
      </trkpt>
      <trkpt lat="47.448252" lon="7.886934">
        <ele>448.787458</ele>
        <time>2021-11-14T16:22:52.298Z</time>
      </trkpt>
      <trkpt lat="47.448187" lon="7.887164">
        <ele>450.349871</ele>
        <time>2021-11-14T16:23:00.076Z</time>
      </trkpt>
      <trkpt lat="47.448053" lon="7.887573">
        <ele>453.676791</ele>
        <time>2021-11-14T16:23:17.108Z</time>
      </trkpt>
      <trkpt lat="47.447994" lon="7.887745">
        <ele>455.088621</ele>
        <time>2021-11-14T16:23:25.052Z</time>
      </trkpt>
      <trkpt lat="47.447924" lon="7.887980">
        <ele>456.968413</ele>
        <time>2021-11-14T16:23:34.815Z</time>
      </trkpt>
      <trkpt lat="47.447918" lon="7.888002">
        <ele>457.142066</ele>
        <time>2021-11-14T16:23:35.868Z</time>
      </trkpt>
      <trkpt lat="47.447781" lon="7.888460">
        <ele>460.808178</ele>
        <time>2021-11-14T16:23:56.339Z</time>
      </trkpt>
      <trkpt lat="47.447728" lon="7.888631">
        <ele>462.185189</ele>
        <time>2021-11-14T16:24:05.099Z</time>
      </trkpt>
      <trkpt lat="47.447650" lon="7.888831">
        <ele>463.875304</ele>
        <time>2021-11-14T16:24:16.256Z</time>
      </trkpt>
      <trkpt lat="47.447509" lon="7.889081">
        <ele>466.258363</ele>
        <time>2021-11-14T16:24:29.290Z</time>
      </trkpt>
      <trkpt lat="47.447331" lon="7.889272">
        <ele>468.608408</ele>
        <time>2021-11-14T16:24:42.065Z</time>
      </trkpt>
      <trkpt lat="47.446668" lon="7.889866">
        <ele>475.732111</ele>
        <time>2021-11-14T16:25:28.827Z</time>
      </trkpt>
      <trkpt lat="47.446569" lon="7.889962">
        <ele>476.820045</ele>
        <time>2021-11-14T16:25:37.073Z</time>
      </trkpt>
      <trkpt lat="47.446400" lon="7.890153">
        <ele>478.774745</ele>
        <time>2021-11-14T16:25:46.916Z</time>
      </trkpt>
      <trkpt lat="47.445742" lon="7.891213">
        <ele>486.720456</ele>
        <time>2021-11-14T16:26:25.612Z</time>
      </trkpt>
      <trkpt lat="47.445595" lon="7.891655">
        <ele>488.673367</ele>
        <time>2021-11-14T16:26:38.705Z</time>
      </trkpt>
      <trkpt lat="47.445231" lon="7.893511">
        <ele>496.271482</ele>
        <time>2021-11-14T16:27:27.632Z</time>
      </trkpt>
      <trkpt lat="47.444611" lon="7.894568">
        <ele>501.389919</ele>
        <time>2021-11-14T16:28:03.332Z</time>
      </trkpt>
      <trkpt lat="47.444374" lon="7.895190">
        <ele>504.001607</ele>
        <time>2021-11-14T16:28:20.091Z</time>
      </trkpt>
      <trkpt lat="47.444269" lon="7.895507">
        <ele>505.296426</ele>
        <time>2021-11-14T16:28:28.431Z</time>
      </trkpt>
      <trkpt lat="47.444186" lon="7.895774">
        <ele>506.441877</ele>
        <time>2021-11-14T16:28:35.258Z</time>
      </trkpt>
      <trkpt lat="47.444057" lon="7.896377">
        <ele>508.907178</ele>
        <time>2021-11-14T16:28:50.063Z</time>
      </trkpt>
      <trkpt lat="47.443973" lon="7.897319">
        <ele>512.610907</ele>
        <time>2021-11-14T16:29:12.923Z</time>
      </trkpt>
      <trkpt lat="47.443656" lon="7.899062">
        <ele>522.155342</ele>
        <time>2021-11-14T16:30:06.858Z</time>
      </trkpt>
      <trkpt lat="47.443601" lon="7.899993">
        <ele>528.059855</ele>
        <time>2021-11-14T16:30:41.804Z</time>
      </trkpt>
      <trkpt lat="47.443701" lon="7.901256">
        <ele>536.831405</ele>
        <time>2021-11-14T16:31:33.788Z</time>
      </trkpt>
      <trkpt lat="47.443979" lon="7.902634">
        <ele>547.734283</ele>
        <time>2021-11-14T16:32:34.766Z</time>
      </trkpt>
      <trkpt lat="47.444039" lon="7.903160">
        <ele>551.778712</ele>
        <time>2021-11-14T16:32:55.781Z</time>
      </trkpt>
      <trkpt lat="47.443987" lon="7.903658">
        <ele>554.373034</ele>
        <time>2021-11-14T16:33:14.033Z</time>
      </trkpt>
      <trkpt lat="47.443774" lon="7.904468">
        <ele>558.292906</ele>
        <time>2021-11-14T16:33:42.115Z</time>
      </trkpt>
      <trkpt lat="47.443812" lon="7.904620">
        <ele>559.023828</ele>
        <time>2021-11-14T16:33:46.211Z</time>
      </trkpt>
      <trkpt lat="47.444103" lon="7.905127">
        <ele>562.023108</ele>
        <time>2021-11-14T16:34:02.015Z</time>
      </trkpt>
      <trkpt lat="47.444124" lon="7.905848">
        <ele>564.788851</ele>
        <time>2021-11-14T16:34:16.768Z</time>
      </trkpt>
      <trkpt lat="47.444095" lon="7.905911">
        <ele>564.895835</ele>
        <time>2021-11-14T16:34:19.073Z</time>
      </trkpt>
      <trkpt lat="47.444060" lon="7.905957">
        <ele>564.993038</ele>
        <time>2021-11-14T16:34:20.371Z</time>
      </trkpt>
      <trkpt lat="47.444021" lon="7.905974">
        <ele>565.077436</ele>
        <time>2021-11-14T16:34:20.866Z</time>
      </trkpt>
      <trkpt lat="47.443887" lon="7.905861">
        <ele>565.397643</ele>
        <time>2021-11-14T16:34:24.423Z</time>
      </trkpt>
      <trkpt lat="47.443715" lon="7.905422">
        <ele>566.109882</ele>
        <time>2021-11-14T16:34:32.591Z</time>
      </trkpt>
      <trkpt lat="47.443616" lon="7.905326">
        <ele>566.355632</ele>
        <time>2021-11-14T16:34:35.946Z</time>
      </trkpt>
      <trkpt lat="47.443478" lon="7.905315">
        <ele>566.642501</ele>
        <time>2021-11-14T16:34:39.073Z</time>
      </trkpt>
      <trkpt lat="47.443437" lon="7.905338">
        <ele>566.733526</ele>
        <time>2021-11-14T16:34:39.632Z</time>
      </trkpt>
      <trkpt lat="47.443060" lon="7.905749">
        <ele>567.705797</ele>
        <time>2021-11-14T16:34:49.515Z</time>
      </trkpt>
      <trkpt lat="47.442586" lon="7.906135">
        <ele>568.308184</ele>
        <time>2021-11-14T16:34:59.604Z</time>
      </trkpt>
      <trkpt lat="47.442338" lon="7.906317">
        <ele>568.315701</ele>
        <time>2021-11-14T16:35:03.532Z</time>
      </trkpt>
      <trkpt lat="47.442196" lon="7.906411">
        <ele>568.319925</ele>
        <time>2021-11-14T16:35:06.055Z</time>
      </trkpt>
      <trkpt lat="47.441977" lon="7.906511">
        <ele>568.326148</ele>
        <time>2021-11-14T16:35:09.244Z</time>
      </trkpt>
      <trkpt lat="47.441743" lon="7.906608">
        <ele>568.332747</ele>
        <time>2021-11-14T16:35:12.942Z</time>
      </trkpt>
      <trkpt lat="47.441622" lon="7.906657">
        <ele>568.336153</ele>
        <time>2021-11-14T16:35:14.800Z</time>
      </trkpt>
      <trkpt lat="47.441570" lon="7.906678">
        <ele>568.337616</ele>
        <time>2021-11-14T16:35:15.932Z</time>
      </trkpt>
      <trkpt lat="47.441463" lon="7.906711">
        <ele>568.340584</ele>
        <time>2021-11-14T16:35:17.602Z</time>
      </trkpt>
      <trkpt lat="47.441212" lon="7.906790">
        <ele>568.347552</ele>
        <time>2021-11-14T16:35:21.049Z</time>
      </trkpt>
      <trkpt lat="47.440946" lon="7.906861">
        <ele>568.102879</ele>
        <time>2021-11-14T16:35:24.153Z</time>
      </trkpt>
      <trkpt lat="47.440759" lon="7.906942">
        <ele>567.828968</ele>
        <time>2021-11-14T16:35:26.983Z</time>
      </trkpt>
      <trkpt lat="47.440689" lon="7.906996">
        <ele>567.717981</ele>
        <time>2021-11-14T16:35:27.787Z</time>
      </trkpt>
      <trkpt lat="47.440645" lon="7.907088">
        <ele>567.610855</ele>
        <time>2021-11-14T16:35:28.653Z</time>
      </trkpt>
      <trkpt lat="47.440578" lon="7.907274">
        <ele>567.410501</ele>
        <time>2021-11-14T16:35:30.385Z</time>
      </trkpt>
      <trkpt lat="47.440484" lon="7.907616">
        <ele>567.059524</ele>
        <time>2021-11-14T16:35:33.040Z</time>
      </trkpt>
      <trkpt lat="47.440348" lon="7.908111">
        <ele>566.551559</ele>
        <time>2021-11-14T16:35:37.017Z</time>
      </trkpt>
      <trkpt lat="47.440306" lon="7.908217">
        <ele>566.434760</ele>
        <time>2021-11-14T16:35:38.111Z</time>
      </trkpt>
      <trkpt lat="47.440124" lon="7.908395">
        <ele>566.128017</ele>
        <time>2021-11-14T16:35:40.470Z</time>
      </trkpt>
      <trkpt lat="47.439774" lon="7.908833">
        <ele>565.710429</ele>
        <time>2021-11-14T16:35:46.042Z</time>
      </trkpt>
      <trkpt lat="47.439615" lon="7.909100">
        <ele>565.599107</ele>
        <time>2021-11-14T16:35:49.057Z</time>
      </trkpt>
      <trkpt lat="47.439518" lon="7.909224">
        <ele>565.539779</ele>
        <time>2021-11-14T16:35:50.854Z</time>
      </trkpt>
      <trkpt lat="47.439483" lon="7.909286">
        <ele>565.514508</ele>
        <time>2021-11-14T16:35:51.604Z</time>
      </trkpt>
      <trkpt lat="47.439145" lon="7.909911">
        <ele>565.264094</ele>
        <time>2021-11-14T16:35:58.687Z</time>
      </trkpt>
      <trkpt lat="47.439047" lon="7.910071">
        <ele>565.196546</ele>
        <time>2021-11-14T16:36:00.795Z</time>
      </trkpt>
      <trkpt lat="47.438918" lon="7.910246">
        <ele>565.115545</ele>
        <time>2021-11-14T16:36:03.186Z</time>
      </trkpt>
      <trkpt lat="47.438881" lon="7.910291">
        <ele>565.093378</ele>
        <time>2021-11-14T16:36:03.856Z</time>
      </trkpt>
      <trkpt lat="47.438659" lon="7.910501">
        <ele>565.028138</ele>
        <time>2021-11-14T16:36:07.706Z</time>
      </trkpt>
      <trkpt lat="47.438339" lon="7.910703">
        <ele>565.369192</ele>
        <time>2021-11-14T16:36:13.816Z</time>
      </trkpt>
      <trkpt lat="47.437939" lon="7.911215">
        <ele>565.887794</ele>
        <time>2021-11-14T16:36:23.713Z</time>
      </trkpt>
      <trkpt lat="47.437281" lon="7.911740">
        <ele>566.620686</ele>
        <time>2021-11-14T16:36:38.593Z</time>
      </trkpt>
      <trkpt lat="47.437154" lon="7.911831">
        <ele>566.766380</ele>
        <time>2021-11-14T16:36:41.651Z</time>
      </trkpt>
      <trkpt lat="47.436962" lon="7.911943">
        <ele>567.201744</ele>
        <time>2021-11-14T16:36:45.725Z</time>
      </trkpt>
      <trkpt lat="47.436670" lon="7.912144">
        <ele>567.881141</ele>
        <time>2021-11-14T16:36:52.614Z</time>
      </trkpt>
      <trkpt lat="47.436616" lon="7.912213">
        <ele>568.031688</ele>
        <time>2021-11-14T16:36:54.570Z</time>
      </trkpt>
      <trkpt lat="47.436578" lon="7.912267">
        <ele>568.142864</ele>
        <time>2021-11-14T16:36:55.967Z</time>
      </trkpt>
      <trkpt lat="47.436515" lon="7.912405">
        <ele>568.380399</ele>
        <time>2021-11-14T16:36:58.287Z</time>
      </trkpt>
      <trkpt lat="47.436476" lon="7.912706">
        <ele>568.817652</ele>
        <time>2021-11-14T16:37:02.980Z</time>
      </trkpt>
      <trkpt lat="47.436430" lon="7.912978">
        <ele>569.217667</ele>
        <time>2021-11-14T16:37:07.078Z</time>
      </trkpt>
      <trkpt lat="47.436408" lon="7.913110">
        <ele>569.411628</ele>
        <time>2021-11-14T16:37:08.951Z</time>
      </trkpt>
      <trkpt lat="47.436396" lon="7.913182">
        <ele>569.517425</ele>
        <time>2021-11-14T16:37:10.314Z</time>
      </trkpt>
      <trkpt lat="47.436332" lon="7.913599">
        <ele>570.127494</ele>
        <time>2021-11-14T16:37:18.132Z</time>
      </trkpt>
      <trkpt lat="47.436328" lon="7.913781">
        <ele>570.387296</ele>
        <time>2021-11-14T16:37:21.996Z</time>
      </trkpt>
      <trkpt lat="47.436426" lon="7.914382">
        <ele>571.720643</ele>
        <time>2021-11-14T16:37:33.064Z</time>
      </trkpt>
      <trkpt lat="47.436779" lon="7.915143">
        <ele>573.859118</ele>
        <time>2021-11-14T16:37:48.175Z</time>
      </trkpt>
      <trkpt lat="47.436788" lon="7.915208">
        <ele>574.012878</ele>
        <time>2021-11-14T16:37:50.165Z</time>
      </trkpt>
      <trkpt lat="47.436789" lon="7.915276">
        <ele>574.170504</ele>
        <time>2021-11-14T16:37:51.898Z</time>
      </trkpt>
      <trkpt lat="47.436405" lon="7.916185">
        <ele>576.654192</ele>
        <time>2021-11-14T16:38:13.887Z</time>
      </trkpt>
      <trkpt lat="47.436153" lon="7.916928">
        <ele>579.434035</ele>
        <time>2021-11-14T16:38:31.991Z</time>
      </trkpt>
      <trkpt lat="47.436025" lon="7.917438">
        <ele>581.269703</ele>
        <time>2021-11-14T16:38:45.396Z</time>
      </trkpt>
      <trkpt lat="47.435776" lon="7.918311">
        <ele>584.466886</ele>
        <time>2021-11-14T16:39:08.456Z</time>
      </trkpt>
      <trkpt lat="47.435658" lon="7.918713">
        <ele>585.975978</ele>
        <time>2021-11-14T16:39:19.401Z</time>
      </trkpt>
      <trkpt lat="47.435475" lon="7.919362">
        <ele>588.621500</ele>
        <time>2021-11-14T16:39:37.016Z</time>
      </trkpt>
      <trkpt lat="47.435403" lon="7.919605">
        <ele>589.619654</ele>
        <time>2021-11-14T16:39:43.172Z</time>
      </trkpt>
      <trkpt lat="47.435333" lon="7.919826">
        <ele>590.537814</ele>
        <time>2021-11-14T16:39:49.303Z</time>
      </trkpt>
      <trkpt lat="47.435252" lon="7.920039">
        <ele>591.457194</ele>
        <time>2021-11-14T16:39:55.369Z</time>
      </trkpt>
      <trkpt lat="47.434702" lon="7.921025">
        <ele>596.289271</ele>
        <time>2021-11-14T16:40:28.490Z</time>
      </trkpt>
      <trkpt lat="47.434524" lon="7.921435">
        <ele>598.196769</ele>
        <time>2021-11-14T16:40:40.348Z</time>
      </trkpt>
      <trkpt lat="47.434378" lon="7.921753">
        <ele>599.701573</ele>
        <time>2021-11-14T16:40:49.978Z</time>
      </trkpt>
      <trkpt lat="47.434253" lon="7.922015">
        <ele>600.956897</ele>
        <time>2021-11-14T16:40:57.600Z</time>
      </trkpt>
      <trkpt lat="47.433914" lon="7.922971">
        <ele>605.183174</ele>
        <time>2021-11-14T16:41:26.422Z</time>
      </trkpt>
      <trkpt lat="47.433902" lon="7.923204">
        <ele>606.098064</ele>
        <time>2021-11-14T16:41:32.703Z</time>
      </trkpt>
      <trkpt lat="47.434035" lon="7.924100">
        <ele>608.825807</ele>
        <time>2021-11-14T16:41:56.982Z</time>
      </trkpt>
      <trkpt lat="47.434048" lon="7.924524">
        <ele>610.087907</ele>
        <time>2021-11-14T16:42:06.759Z</time>
      </trkpt>
      <trkpt lat="47.434048" lon="7.924731">
        <ele>610.703442</ele>
        <time>2021-11-14T16:42:11.665Z</time>
      </trkpt>
      <trkpt lat="47.433985" lon="7.925315">
        <ele>612.461969</ele>
        <time>2021-11-14T16:42:23.449Z</time>
      </trkpt>
      <trkpt lat="47.433569" lon="7.926574">
        <ele>614.052151</ele>
        <time>2021-11-14T16:42:45.683Z</time>
      </trkpt>
      <trkpt lat="47.433455" lon="7.926970">
        <ele>614.075300</ele>
        <time>2021-11-14T16:42:50.208Z</time>
      </trkpt>
      <trkpt lat="47.433388" lon="7.927259">
        <ele>614.091732</ele>
        <time>2021-11-14T16:42:52.888Z</time>
      </trkpt>
      <trkpt lat="47.433296" lon="7.927408">
        <ele>614.102583</ele>
        <time>2021-11-14T16:42:54.676Z</time>
      </trkpt>
      <trkpt lat="47.432918" lon="7.927850">
        <ele>614.140905</ele>
        <time>2021-11-14T16:43:00.737Z</time>
      </trkpt>
      <trkpt lat="47.432392" lon="7.928678">
        <ele>611.441491</ele>
        <time>2021-11-14T16:43:08.428Z</time>
      </trkpt>
      <trkpt lat="47.432343" lon="7.928929">
        <ele>610.741070</ele>
        <time>2021-11-14T16:43:10.080Z</time>
      </trkpt>
      <trkpt lat="47.432332" lon="7.929564">
        <ele>609.038008</ele>
        <time>2021-11-14T16:43:14.278Z</time>
      </trkpt>
      <trkpt lat="47.432320" lon="7.929632">
        <ele>608.849590</ele>
        <time>2021-11-14T16:43:14.850Z</time>
      </trkpt>
      <trkpt lat="47.432376" lon="7.929666">
        <ele>608.609647</ele>
        <time>2021-11-14T16:43:15.381Z</time>
      </trkpt>
      <trkpt lat="47.432548" lon="7.929945">
        <ele>607.597582</ele>
        <time>2021-11-14T16:43:17.794Z</time>
      </trkpt>
      <trkpt lat="47.432626" lon="7.930198">
        <ele>606.766626</ele>
        <time>2021-11-14T16:43:19.553Z</time>
      </trkpt>
      <trkpt lat="47.432655" lon="7.930328">
        <ele>606.211425</ele>
        <time>2021-11-14T16:43:20.461Z</time>
      </trkpt>
      <trkpt lat="47.432655" lon="7.930328">
        <ele>606.211425</ele>
        <time>2021-11-14T16:43:20.476Z</time>
      </trkpt>
      <trkpt lat="47.432664" lon="7.930471">
        <ele>605.628923</ele>
        <time>2021-11-14T16:43:21.504Z</time>
      </trkpt>
      <trkpt lat="47.432633" lon="7.930710">
        <ele>604.641899</ele>
        <time>2021-11-14T16:43:23.023Z</time>
      </trkpt>
      <trkpt lat="47.432518" lon="7.931622">
        <ele>600.879175</ele>
        <time>2021-11-14T16:43:28.854Z</time>
      </trkpt>
      <trkpt lat="47.432491" lon="7.931730">
        <ele>600.412177</ele>
        <time>2021-11-14T16:43:29.529Z</time>
      </trkpt>
      <trkpt lat="47.432474" lon="7.931798">
        <ele>600.118141</ele>
        <time>2021-11-14T16:43:29.993Z</time>
      </trkpt>
      <trkpt lat="47.432246" lon="7.932289">
        <ele>597.702613</ele>
        <time>2021-11-14T16:43:33.614Z</time>
      </trkpt>
      <trkpt lat="47.431940" lon="7.932715">
        <ele>595.145275</ele>
        <time>2021-11-14T16:43:37.381Z</time>
      </trkpt>
      <trkpt lat="47.431916" lon="7.932769">
        <ele>594.873971</ele>
        <time>2021-11-14T16:43:37.917Z</time>
      </trkpt>
      <trkpt lat="47.431934" lon="7.932867">
        <ele>594.447575</ele>
        <time>2021-11-14T16:43:38.514Z</time>
      </trkpt>
      <trkpt lat="47.432257" lon="7.933273">
        <ele>591.815854</ele>
        <time>2021-11-14T16:43:42.392Z</time>
      </trkpt>
      <trkpt lat="47.432362" lon="7.933398">
        <ele>590.979033</ele>
        <time>2021-11-14T16:43:43.598Z</time>
      </trkpt>
      <trkpt lat="47.432488" lon="7.933576">
        <ele>589.897226</ele>
        <time>2021-11-14T16:43:45.204Z</time>
      </trkpt>
      <trkpt lat="47.432554" lon="7.933755">
        <ele>589.041222</ele>
        <time>2021-11-14T16:43:46.497Z</time>
      </trkpt>
      <trkpt lat="47.432569" lon="7.933827">
        <ele>588.724888</ele>
        <time>2021-11-14T16:43:46.946Z</time>
      </trkpt>
      <trkpt lat="47.432578" lon="7.933907">
        <ele>588.384363</ele>
        <time>2021-11-14T16:43:47.489Z</time>
      </trkpt>
      <trkpt lat="47.432647" lon="7.934240">
        <ele>586.922004</ele>
        <time>2021-11-14T16:43:49.621Z</time>
      </trkpt>
      <trkpt lat="47.432802" lon="7.934732">
        <ele>584.895508</ele>
        <time>2021-11-14T16:43:52.979Z</time>
      </trkpt>
      <trkpt lat="47.432965" lon="7.935043">
        <ele>584.220294</ele>
        <time>2021-11-14T16:43:55.479Z</time>
      </trkpt>
      <trkpt lat="47.433050" lon="7.935392">
        <ele>583.583687</ele>
        <time>2021-11-14T16:43:57.801Z</time>
      </trkpt>
      <trkpt lat="47.433187" lon="7.935304">
        <ele>583.204708</ele>
        <time>2021-11-14T16:43:59.255Z</time>
      </trkpt>
      <trkpt lat="47.433385" lon="7.935078">
        <ele>582.570046</ele>
        <time>2021-11-14T16:44:01.952Z</time>
      </trkpt>
      <trkpt lat="47.433512" lon="7.934950">
        <ele>582.180072</ele>
        <time>2021-11-14T16:44:03.522Z</time>
      </trkpt>
      <trkpt lat="47.433620" lon="7.934930">
        <ele>581.903922</ele>
        <time>2021-11-14T16:44:06.034Z</time>
      </trkpt>
      <trkpt lat="47.434298" lon="7.934609">
        <ele>580.452169</ele>
        <time>2021-11-14T16:44:17.965Z</time>
      </trkpt>
      <trkpt lat="47.434567" lon="7.934576">
        <ele>580.360966</ele>
        <time>2021-11-14T16:44:22.479Z</time>
      </trkpt>
      <trkpt lat="47.434614" lon="7.934590">
        <ele>580.344766</ele>
        <time>2021-11-14T16:44:23.640Z</time>
      </trkpt>
      <trkpt lat="47.434668" lon="7.934617">
        <ele>580.325505</ele>
        <time>2021-11-14T16:44:25.160Z</time>
      </trkpt>
      <trkpt lat="47.434806" lon="7.934720">
        <ele>580.273271</ele>
        <time>2021-11-14T16:44:26.750Z</time>
      </trkpt>
      <trkpt lat="47.434953" lon="7.934914">
        <ele>580.206689</ele>
        <time>2021-11-14T16:44:31.067Z</time>
      </trkpt>
      <trkpt lat="47.435021" lon="7.934988">
        <ele>580.178159</ele>
        <time>2021-11-14T16:44:31.864Z</time>
      </trkpt>
      <trkpt lat="47.435108" lon="7.935067">
        <ele>580.143661</ele>
        <time>2021-11-14T16:44:33.287Z</time>
      </trkpt>
      <trkpt lat="47.435139" lon="7.935085">
        <ele>580.132408</ele>
        <time>2021-11-14T16:44:34.304Z</time>
      </trkpt>
      <trkpt lat="47.435218" lon="7.935133">
        <ele>580.103548</ele>
        <time>2021-11-14T16:44:35.738Z</time>
      </trkpt>
      <trkpt lat="47.435945" lon="7.935453">
        <ele>579.792566</ele>
        <time>2021-11-14T16:44:45.146Z</time>
      </trkpt>
      <trkpt lat="47.435987" lon="7.935459">
        <ele>579.763213</ele>
        <time>2021-11-14T16:44:45.702Z</time>
      </trkpt>
      <trkpt lat="47.436041" lon="7.935466">
        <ele>579.725504</ele>
        <time>2021-11-14T16:44:46.188Z</time>
      </trkpt>
      <trkpt lat="47.436379" lon="7.935508">
        <ele>579.489549</ele>
        <time>2021-11-14T16:44:50.430Z</time>
      </trkpt>
      <trkpt lat="47.436645" lon="7.935783">
        <ele>579.263754</ele>
        <time>2021-11-14T16:44:54.434Z</time>
      </trkpt>
      <trkpt lat="47.436754" lon="7.935830">
        <ele>579.184770</ele>
        <time>2021-11-14T16:44:55.585Z</time>
      </trkpt>
      <trkpt lat="47.436817" lon="7.935819">
        <ele>579.140640</ele>
        <time>2021-11-14T16:44:56.172Z</time>
      </trkpt>
      <trkpt lat="47.436959" lon="7.935813">
        <ele>579.041819</ele>
        <time>2021-11-14T16:44:59.640Z</time>
      </trkpt>
      <trkpt lat="47.437163" lon="7.935805">
        <ele>578.899858</ele>
        <time>2021-11-14T16:45:01.720Z</time>
      </trkpt>
      <trkpt lat="47.437455" lon="7.935929">
        <ele>578.688518</ele>
        <time>2021-11-14T16:45:06.596Z</time>
      </trkpt>
      <trkpt lat="47.438097" lon="7.936295">
        <ele>579.978823</ele>
        <time>2021-11-14T16:45:22.462Z</time>
      </trkpt>
      <trkpt lat="47.438488" lon="7.936601">
        <ele>580.914501</ele>
        <time>2021-11-14T16:45:34.026Z</time>
      </trkpt>
      <trkpt lat="47.438795" lon="7.937030">
        <ele>581.807936</ele>
        <time>2021-11-14T16:45:45.418Z</time>
      </trkpt>
      <trkpt lat="47.439053" lon="7.937594">
        <ele>582.824420</ele>
        <time>2021-11-14T16:45:56.392Z</time>
      </trkpt>
      <trkpt lat="47.439305" lon="7.937977">
        <ele>583.687101</ele>
        <time>2021-11-14T16:46:03.743Z</time>
      </trkpt>
      <trkpt lat="47.439513" lon="7.938183">
        <ele>584.284707</ele>
        <time>2021-11-14T16:46:08.873Z</time>
      </trkpt>
      <trkpt lat="47.439973" lon="7.938391">
        <ele>585.432950</ele>
        <time>2021-11-14T16:46:20.964Z</time>
      </trkpt>
      <trkpt lat="47.440111" lon="7.938384">
        <ele>585.762555</ele>
        <time>2021-11-14T16:46:23.628Z</time>
      </trkpt>
      <trkpt lat="47.440276" lon="7.938174">
        <ele>586.282245</ele>
        <time>2021-11-14T16:46:29.970Z</time>
      </trkpt>
      <trkpt lat="47.440493" lon="7.937497">
        <ele>588.239546</ele>
        <time>2021-11-14T16:46:43.366Z</time>
      </trkpt>
      <trkpt lat="47.440535" lon="7.937445">
        <ele>588.501289</ele>
        <time>2021-11-14T16:46:43.914Z</time>
      </trkpt>
      <trkpt lat="47.440583" lon="7.937384">
        <ele>588.803709</ele>
        <time>2021-11-14T16:46:48.515Z</time>
      </trkpt>
      <trkpt lat="47.440806" lon="7.937210">
        <ele>590.008472</ele>
        <time>2021-11-14T16:46:55.381Z</time>
      </trkpt>
      <trkpt lat="47.441000" lon="7.937143">
        <ele>590.960354</ele>
        <time>2021-11-14T16:47:03.374Z</time>
      </trkpt>
      <trkpt lat="47.441541" lon="7.937289">
        <ele>593.587953</ele>
        <time>2021-11-14T16:47:22.289Z</time>
      </trkpt>
      <trkpt lat="47.442638" lon="7.937187">
        <ele>598.259347</ele>
        <time>2021-11-14T16:48:06.565Z</time>
      </trkpt>
      <trkpt lat="47.443543" lon="7.937251">
        <ele>601.870602</ele>
        <time>2021-11-14T16:48:31.575Z</time>
      </trkpt>
      <trkpt lat="47.443821" lon="7.937284">
        <ele>602.267836</ele>
        <time>2021-11-14T16:48:37.162Z</time>
      </trkpt>
      <trkpt lat="47.444030" lon="7.937346">
        <ele>601.837158</ele>
        <time>2021-11-14T16:48:40.713Z</time>
      </trkpt>
      <trkpt lat="47.444304" lon="7.937471">
        <ele>601.257818</ele>
        <time>2021-11-14T16:48:44.583Z</time>
      </trkpt>
      <trkpt lat="47.444544" lon="7.937668">
        <ele>600.703216</ele>
        <time>2021-11-14T16:48:47.925Z</time>
      </trkpt>
      <trkpt lat="47.444935" lon="7.938269">
        <ele>599.563724</ele>
        <time>2021-11-14T16:48:53.638Z</time>
      </trkpt>
      <trkpt lat="47.445088" lon="7.938426">
        <ele>599.187458</ele>
        <time>2021-11-14T16:48:55.409Z</time>
      </trkpt>
      <trkpt lat="47.445739" lon="7.938730">
        <ele>595.390797</ele>
        <time>2021-11-14T16:49:01.676Z</time>
      </trkpt>
      <trkpt lat="47.445987" lon="7.938989">
        <ele>593.386322</ele>
        <time>2021-11-14T16:49:04.359Z</time>
      </trkpt>
      <trkpt lat="47.446136" lon="7.939210">
        <ele>591.993032</ele>
        <time>2021-11-14T16:49:06.253Z</time>
      </trkpt>
      <trkpt lat="47.446200" lon="7.939305">
        <ele>591.394339</ele>
        <time>2021-11-14T16:49:07.025Z</time>
      </trkpt>
      <trkpt lat="47.446350" lon="7.939484">
        <ele>590.121787</ele>
        <time>2021-11-14T16:49:08.858Z</time>
      </trkpt>
      <trkpt lat="47.446714" lon="7.939663">
        <ele>587.589273</ele>
        <time>2021-11-14T16:49:12.299Z</time>
      </trkpt>
      <trkpt lat="47.446911" lon="7.939640">
        <ele>586.604002</ele>
        <time>2021-11-14T16:49:14.048Z</time>
      </trkpt>
      <trkpt lat="47.447023" lon="7.939500">
        <ele>586.068258</ele>
        <time>2021-11-14T16:49:15.449Z</time>
      </trkpt>
      <trkpt lat="47.447088" lon="7.939400">
        <ele>585.725600</ele>
        <time>2021-11-14T16:49:16.254Z</time>
      </trkpt>
      <trkpt lat="47.447148" lon="7.939307">
        <ele>585.408066</ele>
        <time>2021-11-14T16:49:17.051Z</time>
      </trkpt>
      <trkpt lat="47.447375" lon="7.938987">
        <ele>584.262373</ele>
        <time>2021-11-14T16:49:19.941Z</time>
      </trkpt>
      <trkpt lat="47.447514" lon="7.938816">
        <ele>583.601845</ele>
        <time>2021-11-14T16:49:21.944Z</time>
      </trkpt>
      <trkpt lat="47.447579" lon="7.938758">
        <ele>583.324513</ele>
        <time>2021-11-14T16:49:22.673Z</time>
      </trkpt>
      <trkpt lat="47.447622" lon="7.938729">
        <ele>583.151865</ele>
        <time>2021-11-14T16:49:23.107Z</time>
      </trkpt>
      <trkpt lat="47.447884" lon="7.938706">
        <ele>582.193076</ele>
        <time>2021-11-14T16:49:26.356Z</time>
      </trkpt>
      <trkpt lat="47.448076" lon="7.938764">
        <ele>581.477201</ele>
        <time>2021-11-14T16:49:28.346Z</time>
      </trkpt>
      <trkpt lat="47.448323" lon="7.938940">
        <ele>580.475600</ele>
        <time>2021-11-14T16:49:31.392Z</time>
      </trkpt>
      <trkpt lat="47.448504" lon="7.939113">
        <ele>580.818458</ele>
        <time>2021-11-14T16:49:35.389Z</time>
      </trkpt>
      <trkpt lat="47.448566" lon="7.939145">
        <ele>580.944562</ele>
        <time>2021-11-14T16:49:36.745Z</time>
      </trkpt>
      <trkpt lat="47.448632" lon="7.939166">
        <ele>581.074204</ele>
        <time>2021-11-14T16:49:38.023Z</time>
      </trkpt>
      <trkpt lat="47.448737" lon="7.939187">
        <ele>581.277674</ele>
        <time>2021-11-14T16:49:39.977Z</time>
      </trkpt>
      <trkpt lat="47.448995" lon="7.939236">
        <ele>581.777187</ele>
        <time>2021-11-14T16:49:45.460Z</time>
      </trkpt>
      <trkpt lat="47.449095" lon="7.939194">
        <ele>581.976815</ele>
        <time>2021-11-14T16:49:47.494Z</time>
      </trkpt>
      <trkpt lat="47.449121" lon="7.939164">
        <ele>582.040144</ele>
        <time>2021-11-14T16:49:48.200Z</time>
      </trkpt>
      <trkpt lat="47.449215" lon="7.939276">
        <ele>582.271959</ele>
        <time>2021-11-14T16:49:51.027Z</time>
      </trkpt>
      <trkpt lat="47.449278" lon="7.939333">
        <ele>582.413788</ele>
        <time>2021-11-14T16:49:52.678Z</time>
      </trkpt>
      <trkpt lat="47.449351" lon="7.939383">
        <ele>582.568278</ele>
        <time>2021-11-14T16:49:54.270Z</time>
      </trkpt>
      <trkpt lat="47.449443" lon="7.939446">
        <ele>582.762972</ele>
        <time>2021-11-14T16:49:56.413Z</time>
      </trkpt>
      <trkpt lat="47.449589" lon="7.939535">
        <ele>583.066226</ele>
        <time>2021-11-14T16:50:01.209Z</time>
      </trkpt>
      <trkpt lat="47.449814" lon="7.939672">
        <ele>583.533493</ele>
        <time>2021-11-14T16:50:07.305Z</time>
      </trkpt>
      <trkpt lat="47.449913" lon="7.939726">
        <ele>583.736126</ele>
        <time>2021-11-14T16:50:11.183Z</time>
      </trkpt>
      <trkpt lat="47.450248" lon="7.939948">
        <ele>585.604765</ele>
        <time>2021-11-14T16:50:23.840Z</time>
      </trkpt>
      <trkpt lat="47.450383" lon="7.940114">
        <ele>586.645004</ele>
        <time>2021-11-14T16:50:29.599Z</time>
      </trkpt>
      <trkpt lat="47.450538" lon="7.940621">
        <ele>588.874256</ele>
        <time>2021-11-14T16:50:43.527Z</time>
      </trkpt>
      <trkpt lat="47.450568" lon="7.940770">
        <ele>589.497126</ele>
        <time>2021-11-14T16:50:48.208Z</time>
      </trkpt>
      <trkpt lat="47.450647" lon="7.940719">
        <ele>590.007844</ele>
        <time>2021-11-14T16:50:52.297Z</time>
      </trkpt>
      <trkpt lat="47.450818" lon="7.940534">
        <ele>591.263168</ele>
        <time>2021-11-14T16:51:00.229Z</time>
      </trkpt>
      <trkpt lat="47.450926" lon="7.940417">
        <ele>592.056378</ele>
        <time>2021-11-14T16:51:06.730Z</time>
      </trkpt>
      <trkpt lat="47.451066" lon="7.940265">
        <ele>593.085402</ele>
        <time>2021-11-14T16:51:13.355Z</time>
      </trkpt>
      <trkpt lat="47.451232" lon="7.940123">
        <ele>594.221614</ele>
        <time>2021-11-14T16:51:21.909Z</time>
      </trkpt>
      <trkpt lat="47.451687" lon="7.939736">
        <ele>597.471548</ele>
        <time>2021-11-14T16:51:44.521Z</time>
      </trkpt>
      <trkpt lat="47.451870" lon="7.939623">
        <ele>598.705457</ele>
        <time>2021-11-14T16:51:53.362Z</time>
      </trkpt>
      <trkpt lat="47.452527" lon="7.939169">
        <ele>603.217606</ele>
        <time>2021-11-14T16:52:23.156Z</time>
      </trkpt>
      <trkpt lat="47.452569" lon="7.939136">
        <ele>603.513526</ele>
        <time>2021-11-14T16:52:24.864Z</time>
      </trkpt>
      <trkpt lat="47.452671" lon="7.939085">
        <ele>604.183467</ele>
        <time>2021-11-14T16:52:28.783Z</time>
      </trkpt>
      <trkpt lat="47.453247" lon="7.938949">
        <ele>606.974595</ele>
        <time>2021-11-14T16:52:47.925Z</time>
      </trkpt>
      <trkpt lat="47.453399" lon="7.938926">
        <ele>607.542532</ele>
        <time>2021-11-14T16:52:53.141Z</time>
      </trkpt>
      <trkpt lat="47.453527" lon="7.938907">
        <ele>608.020701</ele>
        <time>2021-11-14T16:52:56.612Z</time>
      </trkpt>
      <trkpt lat="47.453896" lon="7.938837">
        <ele>609.403519</ele>
        <time>2021-11-14T16:53:07.581Z</time>
      </trkpt>
      <trkpt lat="47.453952" lon="7.938831">
        <ele>609.612218</ele>
        <time>2021-11-14T16:53:09.098Z</time>
      </trkpt>
      <trkpt lat="47.454186" lon="7.938810">
        <ele>610.483601</ele>
        <time>2021-11-14T16:53:16.000Z</time>
      </trkpt>
      <trkpt lat="47.454409" lon="7.938779">
        <ele>611.316150</ele>
        <time>2021-11-14T16:53:22.108Z</time>
      </trkpt>
      <trkpt lat="47.454590" lon="7.938738">
        <ele>611.996777</ele>
        <time>2021-11-14T16:53:26.766Z</time>
      </trkpt>
      <trkpt lat="47.455114" lon="7.938524">
        <ele>613.316845</ele>
        <time>2021-11-14T16:53:40.975Z</time>
      </trkpt>
      <trkpt lat="47.455980" lon="7.938143">
        <ele>615.205582</ele>
        <time>2021-11-14T16:54:02.325Z</time>
      </trkpt>
      <trkpt lat="47.456527" lon="7.937909">
        <ele>616.250222</ele>
        <time>2021-11-14T16:54:13.869Z</time>
      </trkpt>
      <trkpt lat="47.456612" lon="7.937840">
        <ele>616.318330</ele>
        <time>2021-11-14T16:54:15.985Z</time>
      </trkpt>
      <trkpt lat="47.456885" lon="7.937800">
        <ele>616.511029</ele>
        <time>2021-11-14T16:54:22.260Z</time>
      </trkpt>
      <trkpt lat="47.457759" lon="7.938112">
        <ele>617.142574</ele>
        <time>2021-11-14T16:54:42.458Z</time>
      </trkpt>
      <trkpt lat="47.458684" lon="7.938601">
        <ele>617.990080</ele>
        <time>2021-11-14T16:55:03.631Z</time>
      </trkpt>
      <trkpt lat="47.459661" lon="7.938631">
        <ele>618.951819</ele>
        <time>2021-11-14T16:55:27.543Z</time>
      </trkpt>
      <trkpt lat="47.460344" lon="7.938606">
        <ele>620.612956</ele>
        <time>2021-11-14T16:55:45.846Z</time>
      </trkpt>
      <trkpt lat="47.460640" lon="7.938599">
        <ele>621.599865</ele>
        <time>2021-11-14T16:55:54.134Z</time>
      </trkpt>
      <trkpt lat="47.461076" lon="7.938696">
        <ele>623.069722</ele>
        <time>2021-11-14T16:56:07.942Z</time>
      </trkpt>
      <trkpt lat="47.461309" lon="7.938844">
        <ele>623.915079</ele>
        <time>2021-11-14T16:56:17.109Z</time>
      </trkpt>
      <trkpt lat="47.461855" lon="7.939515">
        <ele>627.583992</ele>
        <time>2021-11-14T16:56:48.150Z</time>
      </trkpt>
      <trkpt lat="47.462056" lon="7.939688">
        <ele>629.298216</ele>
        <time>2021-11-14T16:56:59.632Z</time>
      </trkpt>
      <trkpt lat="47.462207" lon="7.939778">
        <ele>630.498255</ele>
        <time>2021-11-14T16:57:08.313Z</time>
      </trkpt>
      <trkpt lat="47.462671" lon="7.939972">
        <ele>634.052563</ele>
        <time>2021-11-14T16:57:32.940Z</time>
      </trkpt>
      <trkpt lat="47.462895" lon="7.940071">
        <ele>635.775871</ele>
        <time>2021-11-14T16:57:45.099Z</time>
      </trkpt>
      <trkpt lat="47.463169" lon="7.940192">
        <ele>637.883705</ele>
        <time>2021-11-14T16:58:00.715Z</time>
      </trkpt>
      <trkpt lat="47.463351" lon="7.940342">
        <ele>639.139854</ele>
        <time>2021-11-14T16:58:12.951Z</time>
      </trkpt>
      <trkpt lat="47.463757" lon="7.940617">
        <ele>641.467530</ele>
        <time>2021-11-14T16:58:35.996Z</time>
      </trkpt>
      <trkpt lat="47.464307" lon="7.940722">
        <ele>644.358271</ele>
        <time>2021-11-14T16:58:59.793Z</time>
      </trkpt>
      <trkpt lat="47.464341" lon="7.940728">
        <ele>644.536759</ele>
        <time>2021-11-14T16:59:02.138Z</time>
      </trkpt>
      <trkpt lat="47.464912" lon="7.940831">
        <ele>647.535236</ele>
        <time>2021-11-14T16:59:18.584Z</time>
      </trkpt>
      <trkpt lat="47.465246" lon="7.940877">
        <ele>648.127420</ele>
        <time>2021-11-14T16:59:26.370Z</time>
      </trkpt>
      <trkpt lat="47.465632" lon="7.940899">
        <ele>648.527913</ele>
        <time>2021-11-14T16:59:36.353Z</time>
      </trkpt>
      <trkpt lat="47.465949" lon="7.940958">
        <ele>648.859163</ele>
        <time>2021-11-14T16:59:44.346Z</time>
      </trkpt>
      <trkpt lat="47.466346" lon="7.941118">
        <ele>649.285767</ele>
        <time>2021-11-14T16:59:53.754Z</time>
      </trkpt>
      <trkpt lat="47.466651" lon="7.941234">
        <ele>649.612269</ele>
        <time>2021-11-14T17:00:00.124Z</time>
      </trkpt>
      <trkpt lat="47.466822" lon="7.941310">
        <ele>649.762457</ele>
        <time>2021-11-14T17:00:04.621Z</time>
      </trkpt>
      <trkpt lat="47.467100" lon="7.941411">
        <ele>649.946899</ele>
        <time>2021-11-14T17:00:10.957Z</time>
      </trkpt>
      <trkpt lat="47.467399" lon="7.941540">
        <ele>650.147575</ele>
        <time>2021-11-14T17:00:17.894Z</time>
      </trkpt>
      <trkpt lat="47.467899" lon="7.941853">
        <ele>650.497391</ele>
        <time>2021-11-14T17:00:31.196Z</time>
      </trkpt>
      <trkpt lat="47.468006" lon="7.941992">
        <ele>650.589142</ele>
        <time>2021-11-14T17:00:34.283Z</time>
      </trkpt>
      <trkpt lat="47.468260" lon="7.942246">
        <ele>650.786683</ele>
        <time>2021-11-14T17:00:41.738Z</time>
      </trkpt>
      <trkpt lat="47.468737" lon="7.942334">
        <ele>650.801105</ele>
        <time>2021-11-14T17:00:51.800Z</time>
      </trkpt>
      <trkpt lat="47.468954" lon="7.942332">
        <ele>650.763265</ele>
        <time>2021-11-14T17:00:55.967Z</time>
      </trkpt>
      <trkpt lat="47.469044" lon="7.942317">
        <ele>650.747472</ele>
        <time>2021-11-14T17:00:57.704Z</time>
      </trkpt>
      <trkpt lat="47.469058" lon="7.942569">
        <ele>650.717667</ele>
        <time>2021-11-14T17:01:00.178Z</time>
      </trkpt>
      <trkpt lat="47.469215" lon="7.943133">
        <ele>650.645769</ele>
        <time>2021-11-14T17:01:05.536Z</time>
      </trkpt>
      <trkpt lat="47.469517" lon="7.943834">
        <ele>650.536116</ele>
        <time>2021-11-14T17:01:13.195Z</time>
      </trkpt>
      <trkpt lat="47.469843" lon="7.944430">
        <ele>650.036730</ele>
        <time>2021-11-14T17:01:20.365Z</time>
      </trkpt>
      <trkpt lat="47.470096" lon="7.944809">
        <ele>649.689779</ele>
        <time>2021-11-14T17:01:25.338Z</time>
      </trkpt>
      <trkpt lat="47.470904" lon="7.946018">
        <ele>647.956678</ele>
        <time>2021-11-14T17:01:38.763Z</time>
      </trkpt>
      <trkpt lat="47.471580" lon="7.947013">
        <ele>644.589461</ele>
        <time>2021-11-14T17:01:48.413Z</time>
      </trkpt>
      <trkpt lat="47.471655" lon="7.947281">
        <ele>643.897130</ele>
        <time>2021-11-14T17:01:50.262Z</time>
      </trkpt>
      <trkpt lat="47.471588" lon="7.947530">
        <ele>643.257447</ele>
        <time>2021-11-14T17:01:52.165Z</time>
      </trkpt>
      <trkpt lat="47.471526" lon="7.947625">
        <ele>642.942256</ele>
        <time>2021-11-14T17:01:52.986Z</time>
      </trkpt>
      <trkpt lat="47.471433" lon="7.947675">
        <ele>642.592852</ele>
        <time>2021-11-14T17:01:53.891Z</time>
      </trkpt>
      <trkpt lat="47.470644" lon="7.947609">
        <ele>636.526264</ele>
        <time>2021-11-14T17:02:01.129Z</time>
      </trkpt>
      <trkpt lat="47.470424" lon="7.947722">
        <ele>634.692534</ele>
        <time>2021-11-14T17:02:03.181Z</time>
      </trkpt>
      <trkpt lat="47.470368" lon="7.947828">
        <ele>633.976467</ele>
        <time>2021-11-14T17:02:03.977Z</time>
      </trkpt>
      <trkpt lat="47.470333" lon="7.948107">
        <ele>632.466100</ele>
        <time>2021-11-14T17:02:05.664Z</time>
      </trkpt>
      <trkpt lat="47.470426" lon="7.948527">
        <ele>630.113718</ele>
        <time>2021-11-14T17:02:08.242Z</time>
      </trkpt>
      <trkpt lat="47.470338" lon="7.948724">
        <ele>628.856897</ele>
        <time>2021-11-14T17:02:09.627Z</time>
      </trkpt>
      <trkpt lat="47.470241" lon="7.948800">
        <ele>627.763215</ele>
        <time>2021-11-14T17:02:10.573Z</time>
      </trkpt>
      <trkpt lat="47.470079" lon="7.948808">
        <ele>625.545154</ele>
        <time>2021-11-14T17:02:11.962Z</time>
      </trkpt>
      <trkpt lat="47.469762" lon="7.948654">
        <ele>620.979377</ele>
        <time>2021-11-14T17:02:14.777Z</time>
      </trkpt>
      <trkpt lat="47.469469" lon="7.948624">
        <ele>616.960340</ele>
        <time>2021-11-14T17:02:17.229Z</time>
      </trkpt>
      <trkpt lat="47.469180" lon="7.948713">
        <ele>612.920849</ele>
        <time>2021-11-14T17:02:19.684Z</time>
      </trkpt>
      <trkpt lat="47.468810" lon="7.949041">
        <ele>607.018225</ele>
        <time>2021-11-14T17:02:23.256Z</time>
      </trkpt>
      <trkpt lat="47.468558" lon="7.949650">
        <ele>600.461325</ele>
        <time>2021-11-14T17:02:27.261Z</time>
      </trkpt>
      <trkpt lat="47.468441" lon="7.950143">
        <ele>595.699093</ele>
        <time>2021-11-14T17:02:30.193Z</time>
      </trkpt>
      <trkpt lat="47.468300" lon="7.950849">
        <ele>588.989399</ele>
        <time>2021-11-14T17:02:34.343Z</time>
      </trkpt>
      <trkpt lat="47.468208" lon="7.951691">
        <ele>581.215489</ele>
        <time>2021-11-14T17:02:39.203Z</time>
      </trkpt>
      <trkpt lat="47.468258" lon="7.952349">
        <ele>576.831086</ele>
        <time>2021-11-14T17:02:43.048Z</time>
      </trkpt>
      <trkpt lat="47.468338" lon="7.952658">
        <ele>574.983980</ele>
        <time>2021-11-14T17:02:45.001Z</time>
      </trkpt>
      <trkpt lat="47.468688" lon="7.953623">
        <ele>568.870712</ele>
        <time>2021-11-14T17:02:51.556Z</time>
      </trkpt>
      <trkpt lat="47.468825" lon="7.953883">
        <ele>567.030494</ele>
        <time>2021-11-14T17:02:53.570Z</time>
      </trkpt>
      <trkpt lat="47.469129" lon="7.954175">
        <ele>564.127280</ele>
        <time>2021-11-14T17:02:56.866Z</time>
      </trkpt>
      <trkpt lat="47.469948" lon="7.954438">
        <ele>558.339161</ele>
        <time>2021-11-14T17:03:04.497Z</time>
      </trkpt>
      <trkpt lat="47.470173" lon="7.954771">
        <ele>556.141054</ele>
        <time>2021-11-14T17:03:07.352Z</time>
      </trkpt>
      <trkpt lat="47.470344" lon="7.955464">
        <ele>552.696917</ele>
        <time>2021-11-14T17:03:11.788Z</time>
      </trkpt>
      <trkpt lat="47.470551" lon="7.956984">
        <ele>544.878688</ele>
        <time>2021-11-14T17:03:21.144Z</time>
      </trkpt>
      <trkpt lat="47.470611" lon="7.957558">
        <ele>541.932812</ele>
        <time>2021-11-14T17:03:24.638Z</time>
      </trkpt>
      <trkpt lat="47.470622" lon="7.958630">
        <ele>536.443656</ele>
        <time>2021-11-14T17:03:31.071Z</time>
      </trkpt>
      <trkpt lat="47.470999" lon="7.960100">
        <ele>528.280700</ele>
        <time>2021-11-14T17:03:40.483Z</time>
      </trkpt>
      <trkpt lat="47.471231" lon="7.960809">
        <ele>524.330026</ele>
        <time>2021-11-14T17:03:45.217Z</time>
      </trkpt>
      <trkpt lat="47.471575" lon="7.961333">
        <ele>521.332400</ele>
        <time>2021-11-14T17:03:49.678Z</time>
      </trkpt>
      <trkpt lat="47.471579" lon="7.961404">
        <ele>521.040022</ele>
        <time>2021-11-14T17:03:50.077Z</time>
      </trkpt>
      <trkpt lat="47.471568" lon="7.961446">
        <ele>520.855178</ele>
        <time>2021-11-14T17:03:50.334Z</time>
      </trkpt>
      <trkpt lat="47.471484" lon="7.961507">
        <ele>520.287081</ele>
        <time>2021-11-14T17:03:51.237Z</time>
      </trkpt>
      <trkpt lat="47.471375" lon="7.961461">
        <ele>519.598936</ele>
        <time>2021-11-14T17:03:52.350Z</time>
      </trkpt>
      <trkpt lat="47.470924" lon="7.960881">
        <ele>515.970946</ele>
        <time>2021-11-14T17:03:57.789Z</time>
      </trkpt>
      <trkpt lat="47.470268" lon="7.959615">
        <ele>511.371057</ele>
        <time>2021-11-14T17:04:08.488Z</time>
      </trkpt>
      <trkpt lat="47.469974" lon="7.958722">
        <ele>509.054019</ele>
        <time>2021-11-14T17:04:15.411Z</time>
      </trkpt>
      <trkpt lat="47.469781" lon="7.958087">
        <ele>507.317778</ele>
        <time>2021-11-14T17:04:20.204Z</time>
      </trkpt>
      <trkpt lat="47.469604" lon="7.957623">
        <ele>505.606955</ele>
        <time>2021-11-14T17:04:23.755Z</time>
      </trkpt>
      <trkpt lat="47.469296" lon="7.957034">
        <ele>503.215751</ele>
        <time>2021-11-14T17:04:28.638Z</time>
      </trkpt>
      <trkpt lat="47.469049" lon="7.956742">
        <ele>501.713791</ele>
        <time>2021-11-14T17:04:31.713Z</time>
      </trkpt>
      <trkpt lat="47.468875" lon="7.956583">
        <ele>500.742259</ele>
        <time>2021-11-14T17:04:33.566Z</time>
      </trkpt>
      <trkpt lat="47.468475" lon="7.956375">
        <ele>498.356609</ele>
        <time>2021-11-14T17:04:37.373Z</time>
      </trkpt>
      <trkpt lat="47.468322" lon="7.956470">
        <ele>496.925289</ele>
        <time>2021-11-14T17:04:38.967Z</time>
      </trkpt>
      <trkpt lat="47.468267" lon="7.956746">
        <ele>495.247420</ele>
        <time>2021-11-14T17:04:40.718Z</time>
      </trkpt>
      <trkpt lat="47.468479" lon="7.957453">
        <ele>490.737416</ele>
        <time>2021-11-14T17:04:45.317Z</time>
      </trkpt>
      <trkpt lat="47.468507" lon="7.957558">
        <ele>490.079231</ele>
        <time>2021-11-14T17:04:45.984Z</time>
      </trkpt>
      <trkpt lat="47.468524" lon="7.957646">
        <ele>489.545550</ele>
        <time>2021-11-14T17:04:46.501Z</time>
      </trkpt>
      <trkpt lat="47.468536" lon="7.958296">
        <ele>485.753907</ele>
        <time>2021-11-14T17:04:50.340Z</time>
      </trkpt>
      <trkpt lat="47.468627" lon="7.958965">
        <ele>481.265587</ele>
        <time>2021-11-14T17:04:54.273Z</time>
      </trkpt>
      <trkpt lat="47.468637" lon="7.959076">
        <ele>480.437072</ele>
        <time>2021-11-14T17:04:54.898Z</time>
      </trkpt>
      <trkpt lat="47.468641" lon="7.959158">
        <ele>479.828802</ele>
        <time>2021-11-14T17:04:55.391Z</time>
      </trkpt>
      <trkpt lat="47.468645" lon="7.959223">
        <ele>479.345898</ele>
        <time>2021-11-14T17:04:55.761Z</time>
      </trkpt>
      <trkpt lat="47.468655" lon="7.959428">
        <ele>477.825224</ele>
        <time>2021-11-14T17:04:56.950Z</time>
      </trkpt>
      <trkpt lat="47.468634" lon="7.959800">
        <ele>475.063331</ele>
        <time>2021-11-14T17:04:59.078Z</time>
      </trkpt>
      <trkpt lat="47.468516" lon="7.960416">
        <ele>470.326279</ele>
        <time>2021-11-14T17:05:02.778Z</time>
      </trkpt>
      <trkpt lat="47.468503" lon="7.960562">
        <ele>469.236737</ele>
        <time>2021-11-14T17:05:03.604Z</time>
      </trkpt>
      <trkpt lat="47.468498" lon="7.960883">
        <ele>466.861122</ele>
        <time>2021-11-14T17:05:05.481Z</time>
      </trkpt>
      <trkpt lat="47.468509" lon="7.961184">
        <ele>464.630859</ele>
        <time>2021-11-14T17:05:07.183Z</time>
      </trkpt>
      <trkpt lat="47.468616" lon="7.962000">
        <ele>460.225194</ele>
        <time>2021-11-14T17:05:12.116Z</time>
      </trkpt>
      <trkpt lat="47.469373" lon="7.963006">
        <ele>452.618706</ele>
        <time>2021-11-14T17:05:21.190Z</time>
      </trkpt>
      <trkpt lat="47.469749" lon="7.963424">
        <ele>449.788217</ele>
        <time>2021-11-14T17:05:25.655Z</time>
      </trkpt>
      <trkpt lat="47.470318" lon="7.964176">
        <ele>446.808692</ele>
        <time>2021-11-14T17:05:33.117Z</time>
      </trkpt>
      <trkpt lat="47.470351" lon="7.964220">
        <ele>446.635209</ele>
        <time>2021-11-14T17:05:33.533Z</time>
      </trkpt>
      <trkpt lat="47.470610" lon="7.964511">
        <ele>445.365175</ele>
        <time>2021-11-14T17:05:36.791Z</time>
      </trkpt>
      <trkpt lat="47.471250" lon="7.965231">
        <ele>442.335736</ele>
        <time>2021-11-14T17:05:45.181Z</time>
      </trkpt>
      <trkpt lat="47.471503" lon="7.965463">
        <ele>441.272887</ele>
        <time>2021-11-14T17:05:48.159Z</time>
      </trkpt>
      <trkpt lat="47.471880" lon="7.965766">
        <ele>439.740919</ele>
        <time>2021-11-14T17:05:52.442Z</time>
      </trkpt>
      <trkpt lat="47.472564" lon="7.966330">
        <ele>436.909488</ele>
        <time>2021-11-14T17:06:00.177Z</time>
      </trkpt>
      <trkpt lat="47.472594" lon="7.966357">
        <ele>436.753912</ele>
        <time>2021-11-14T17:06:00.483Z</time>
      </trkpt>
      <trkpt lat="47.472859" lon="7.966644">
        <ele>435.298869</ele>
        <time>2021-11-14T17:06:03.631Z</time>
      </trkpt>
      <trkpt lat="47.473444" lon="7.967380">
        <ele>431.896587</ele>
        <time>2021-11-14T17:06:10.905Z</time>
      </trkpt>
      <trkpt lat="47.473664" lon="7.967490">
        <ele>430.867729</ele>
        <time>2021-11-14T17:06:13.164Z</time>
      </trkpt>
      <trkpt lat="47.474076" lon="7.967608">
        <ele>429.069100</ele>
        <time>2021-11-14T17:06:17.128Z</time>
      </trkpt>
      <trkpt lat="47.474238" lon="7.967666">
        <ele>428.721866</ele>
        <time>2021-11-14T17:06:18.773Z</time>
      </trkpt>
      <trkpt lat="47.474560" lon="7.967748">
        <ele>428.041183</ele>
        <time>2021-11-14T17:06:22.068Z</time>
      </trkpt>
      <trkpt lat="47.475217" lon="7.967697">
        <ele>426.670581</ele>
        <time>2021-11-14T17:06:29.353Z</time>
      </trkpt>
      <trkpt lat="47.475280" lon="7.967711">
        <ele>426.537862</ele>
        <time>2021-11-14T17:06:30.057Z</time>
      </trkpt>
      <trkpt lat="47.475359" lon="7.967770">
        <ele>426.353502</ele>
        <time>2021-11-14T17:06:31.091Z</time>
      </trkpt>
      <trkpt lat="47.475436" lon="7.967868">
        <ele>426.141901</ele>
        <time>2021-11-14T17:06:32.429Z</time>
      </trkpt>
      <trkpt lat="47.475607" lon="7.968209">
        <ele>425.544017</ele>
        <time>2021-11-14T17:06:36.208Z</time>
      </trkpt>
      <trkpt lat="47.475616" lon="7.968229">
        <ele>425.510185</ele>
        <time>2021-11-14T17:06:36.481Z</time>
      </trkpt>
      <trkpt lat="47.475616" lon="7.968229">
        <ele>425.510185</ele>
        <time>2021-11-14T17:06:36.494Z</time>
      </trkpt>
      <trkpt lat="47.475684" lon="7.968334">
        <ele>425.369078</ele>
        <time>2021-11-14T17:06:38.155Z</time>
      </trkpt>
      <trkpt lat="47.475729" lon="7.968403">
        <ele>425.356179</ele>
        <time>2021-11-14T17:06:39.196Z</time>
      </trkpt>
      <trkpt lat="47.475871" lon="7.968576">
        <ele>425.319567</ele>
        <time>2021-11-14T17:06:41.582Z</time>
      </trkpt>
      <trkpt lat="47.476103" lon="7.968806">
        <ele>425.263982</ele>
        <time>2021-11-14T17:06:45.339Z</time>
      </trkpt>
      <trkpt lat="47.476327" lon="7.969094">
        <ele>425.204916</ele>
        <time>2021-11-14T17:06:49.357Z</time>
      </trkpt>
      <trkpt lat="47.476396" lon="7.969182">
        <ele>425.186784</ele>
        <time>2021-11-14T17:06:50.572Z</time>
      </trkpt>
      <trkpt lat="47.476670" lon="7.969631">
        <ele>425.105404</ele>
        <time>2021-11-14T17:06:56.903Z</time>
      </trkpt>
      <trkpt lat="47.476944" lon="7.970103">
        <ele>425.021703</ele>
        <time>2021-11-14T17:07:03.834Z</time>
      </trkpt>
      <trkpt lat="47.477029" lon="7.970212">
        <ele>424.848826</ele>
        <time>2021-11-14T17:07:05.310Z</time>
      </trkpt>
      <trkpt lat="47.477135" lon="7.970342">
        <ele>424.598418</ele>
        <time>2021-11-14T17:07:07.735Z</time>
      </trkpt>
      <trkpt lat="47.477203" lon="7.970445">
        <ele>424.421425</ele>
        <time>2021-11-14T17:07:09.001Z</time>
      </trkpt>
      <trkpt lat="47.477262" lon="7.970548">
        <ele>424.255456</ele>
        <time>2021-11-14T17:07:10.081Z</time>
      </trkpt>
      <trkpt lat="47.477284" lon="7.970600">
        <ele>424.180044</ele>
        <time>2021-11-14T17:07:10.580Z</time>
      </trkpt>
      <trkpt lat="47.477322" lon="7.970682">
        <ele>424.057827</ele>
        <time>2021-11-14T17:07:11.633Z</time>
      </trkpt>
      <trkpt lat="47.477370" lon="7.970827">
        <ele>423.859354</ele>
        <time>2021-11-14T17:07:12.944Z</time>
      </trkpt>
      <trkpt lat="47.477522" lon="7.971381">
        <ele>423.124374</ele>
        <time>2021-11-14T17:07:17.606Z</time>
      </trkpt>
      <trkpt lat="47.477553" lon="7.971461">
        <ele>423.011018</ele>
        <time>2021-11-14T17:07:18.205Z</time>
      </trkpt>
      <trkpt lat="47.477623" lon="7.971640">
        <ele>422.756805</ele>
        <time>2021-11-14T17:07:19.656Z</time>
      </trkpt>
      <trkpt lat="47.477698" lon="7.971759">
        <ele>422.556793</ele>
        <time>2021-11-14T17:07:20.939Z</time>
      </trkpt>
      <trkpt lat="47.477778" lon="7.971876">
        <ele>422.352208</ele>
        <time>2021-11-14T17:07:22.031Z</time>
      </trkpt>
      <trkpt lat="47.478083" lon="7.972275">
        <ele>421.442353</ele>
        <time>2021-11-14T17:07:26.053Z</time>
      </trkpt>
      <trkpt lat="47.478198" lon="7.972475">
        <ele>420.713864</ele>
        <time>2021-11-14T17:07:27.955Z</time>
      </trkpt>
      <trkpt lat="47.478213" lon="7.972508">
        <ele>420.603533</ele>
        <time>2021-11-14T17:07:28.211Z</time>
      </trkpt>
      <trkpt lat="47.478295" lon="7.972689">
        <ele>419.999014</ele>
        <time>2021-11-14T17:07:29.603Z</time>
      </trkpt>
      <trkpt lat="47.478424" lon="7.973015">
        <ele>418.950991</ele>
        <time>2021-11-14T17:07:32.179Z</time>
      </trkpt>
      <trkpt lat="47.478494" lon="7.973191">
        <ele>418.384448</ele>
        <time>2021-11-14T17:07:33.444Z</time>
      </trkpt>
      <trkpt lat="47.478606" lon="7.973396">
        <ele>417.653145</ele>
        <time>2021-11-14T17:07:35.268Z</time>
      </trkpt>
      <trkpt lat="47.478952" lon="7.973850">
        <ele>415.754862</ele>
        <time>2021-11-14T17:07:39.665Z</time>
      </trkpt>
      <trkpt lat="47.479061" lon="7.974014">
        <ele>415.116750</ele>
        <time>2021-11-14T17:07:41.168Z</time>
      </trkpt>
      <trkpt lat="47.479095" lon="7.974066">
        <ele>414.916029</ele>
        <time>2021-11-14T17:07:41.682Z</time>
      </trkpt>
      <trkpt lat="47.479172" lon="7.974215">
        <ele>414.395677</ele>
        <time>2021-11-14T17:07:42.896Z</time>
      </trkpt>
      <trkpt lat="47.479198" lon="7.974266">
        <ele>414.235843</ele>
        <time>2021-11-14T17:07:43.280Z</time>
      </trkpt>
      <trkpt lat="47.479256" lon="7.974388">
        <ele>413.871642</ele>
        <time>2021-11-14T17:07:44.226Z</time>
      </trkpt>
      <trkpt lat="47.479521" lon="7.975122">
        <ele>411.839762</ele>
        <time>2021-11-14T17:07:49.643Z</time>
      </trkpt>
      <trkpt lat="47.479548" lon="7.975187">
        <ele>411.653474</ele>
        <time>2021-11-14T17:07:50.123Z</time>
      </trkpt>
      <trkpt lat="47.479650" lon="7.975428">
        <ele>410.959171</ele>
        <time>2021-11-14T17:07:52.018Z</time>
      </trkpt>
      <trkpt lat="47.479662" lon="7.975458">
        <ele>410.874053</ele>
        <time>2021-11-14T17:07:52.261Z</time>
      </trkpt>
      <trkpt lat="47.479744" lon="7.975611">
        <ele>410.397273</ele>
        <time>2021-11-14T17:07:53.562Z</time>
      </trkpt>
      <trkpt lat="47.480019" lon="7.976061">
        <ele>408.915959</ele>
        <time>2021-11-14T17:07:57.841Z</time>
      </trkpt>
      <trkpt lat="47.480172" lon="7.976321">
        <ele>408.074211</ele>
        <time>2021-11-14T17:08:00.345Z</time>
      </trkpt>
      <trkpt lat="47.480181" lon="7.976341">
        <ele>408.015544</ele>
        <time>2021-11-14T17:08:00.519Z</time>
      </trkpt>
      <trkpt lat="47.480258" lon="7.976521">
        <ele>407.624923</ele>
        <time>2021-11-14T17:08:02.105Z</time>
      </trkpt>
      <trkpt lat="47.480294" lon="7.976615">
        <ele>407.453436</ele>
        <time>2021-11-14T17:08:02.825Z</time>
      </trkpt>
      <trkpt lat="47.480540" lon="7.977249">
        <ele>406.293102</ele>
        <time>2021-11-14T17:08:08.051Z</time>
      </trkpt>
      <trkpt lat="47.481057" lon="7.978315">
        <ele>404.210589</ele>
        <time>2021-11-14T17:08:17.531Z</time>
      </trkpt>
      <trkpt lat="47.481075" lon="7.978353">
        <ele>404.136937</ele>
        <time>2021-11-14T17:08:17.820Z</time>
      </trkpt>
      <trkpt lat="47.481331" lon="7.978796">
        <ele>403.331797</ele>
        <time>2021-11-14T17:08:22.148Z</time>
      </trkpt>
      <trkpt lat="47.481417" lon="7.978989">
        <ele>403.067346</ele>
        <time>2021-11-14T17:08:23.980Z</time>
      </trkpt>
      <trkpt lat="47.481508" lon="7.979190">
        <ele>402.790588</ele>
        <time>2021-11-14T17:08:25.768Z</time>
      </trkpt>
      <trkpt lat="47.481627" lon="7.979494">
        <ele>402.388707</ele>
        <time>2021-11-14T17:08:28.589Z</time>
      </trkpt>
      <trkpt lat="47.481673" lon="7.979611">
        <ele>402.233866</ele>
        <time>2021-11-14T17:08:29.622Z</time>
      </trkpt>
      <trkpt lat="47.481757" lon="7.979824">
        <ele>401.951757</ele>
        <time>2021-11-14T17:08:31.499Z</time>
      </trkpt>
      <trkpt lat="47.481977" lon="7.980334">
        <ele>401.259634</ele>
        <time>2021-11-14T17:08:36.171Z</time>
      </trkpt>
      <trkpt lat="47.482025" lon="7.980480">
        <ele>401.073906</ele>
        <time>2021-11-14T17:08:37.380Z</time>
      </trkpt>
      <trkpt lat="47.482099" lon="7.980698">
        <ele>400.794840</ele>
        <time>2021-11-14T17:08:39.298Z</time>
      </trkpt>
      <trkpt lat="47.482159" lon="7.980898">
        <ele>400.555027</ele>
        <time>2021-11-14T17:08:40.974Z</time>
      </trkpt>
      <trkpt lat="47.482458" lon="7.981897">
        <ele>399.555512</ele>
        <time>2021-11-14T17:08:49.502Z</time>
      </trkpt>
      <trkpt lat="47.482472" lon="7.981944">
        <ele>399.508524</ele>
        <time>2021-11-14T17:08:49.880Z</time>
      </trkpt>
      <trkpt lat="47.482563" lon="7.982231">
        <ele>399.218512</ele>
        <time>2021-11-14T17:08:52.547Z</time>
      </trkpt>
      <trkpt lat="47.482594" lon="7.982339">
        <ele>399.111170</ele>
        <time>2021-11-14T17:08:53.451Z</time>
      </trkpt>
      <trkpt lat="47.482652" lon="7.982524">
        <ele>398.924606</ele>
        <time>2021-11-14T17:08:55.069Z</time>
      </trkpt>
      <trkpt lat="47.482704" lon="7.982687">
        <ele>398.759713</ele>
        <time>2021-11-14T17:08:56.641Z</time>
      </trkpt>
      <trkpt lat="47.482729" lon="7.982770">
        <ele>398.676584</ele>
        <time>2021-11-14T17:08:57.329Z</time>
      </trkpt>
      <trkpt lat="47.482840" lon="7.983205">
        <ele>398.251220</ele>
        <time>2021-11-14T17:09:01.151Z</time>
      </trkpt>
      <trkpt lat="47.482897" lon="7.983529">
        <ele>397.896838</ele>
        <time>2021-11-14T17:09:03.766Z</time>
      </trkpt>
      <trkpt lat="47.483001" lon="7.984129">
        <ele>397.204736</ele>
        <time>2021-11-14T17:09:08.576Z</time>
      </trkpt>
      <trkpt lat="47.483130" lon="7.984873">
        <ele>396.346514</ele>
        <time>2021-11-14T17:09:14.336Z</time>
      </trkpt>
      <trkpt lat="47.483153" lon="7.984996">
        <ele>396.203918</ele>
        <time>2021-11-14T17:09:15.307Z</time>
      </trkpt>
      <trkpt lat="47.483173" lon="7.985106">
        <ele>396.076641</ele>
        <time>2021-11-14T17:09:16.188Z</time>
      </trkpt>
      <trkpt lat="47.483274" lon="7.985553">
        <ele>395.550017</ele>
        <time>2021-11-14T17:09:19.772Z</time>
      </trkpt>
      <trkpt lat="47.483382" lon="7.985915">
        <ele>395.090658</ele>
        <time>2021-11-14T17:09:22.810Z</time>
      </trkpt>
      <trkpt lat="47.483462" lon="7.986151">
        <ele>394.732608</ele>
        <time>2021-11-14T17:09:24.815Z</time>
      </trkpt>
      <trkpt lat="47.483550" lon="7.986378">
        <ele>394.377716</ele>
        <time>2021-11-14T17:09:26.785Z</time>
      </trkpt>
      <trkpt lat="47.483775" lon="7.986910">
        <ele>393.526628</ele>
        <time>2021-11-14T17:09:31.445Z</time>
      </trkpt>
      <trkpt lat="47.484569" lon="7.988582">
        <ele>390.935983</ele>
        <time>2021-11-14T17:09:46.346Z</time>
      </trkpt>
      <trkpt lat="47.485480" lon="7.990116">
        <ele>388.773739</ele>
        <time>2021-11-14T17:10:02.378Z</time>
      </trkpt>
      <trkpt lat="47.485638" lon="7.990371">
        <ele>388.586870</ele>
        <time>2021-11-14T17:10:05.211Z</time>
      </trkpt>
      <trkpt lat="47.485781" lon="7.990604">
        <ele>388.422692</ele>
        <time>2021-11-14T17:10:07.790Z</time>
      </trkpt>
      <trkpt lat="47.486196" lon="7.991276">
        <ele>387.947848</ele>
        <time>2021-11-14T17:10:15.590Z</time>
      </trkpt>
      <trkpt lat="47.486319" lon="7.991471">
        <ele>387.808710</ele>
        <time>2021-11-14T17:10:17.969Z</time>
      </trkpt>
      <trkpt lat="47.486489" lon="7.991744">
        <ele>387.615071</ele>
        <time>2021-11-14T17:10:21.337Z</time>
      </trkpt>
      <trkpt lat="47.487177" lon="7.992841">
        <ele>386.677839</ele>
        <time>2021-11-14T17:10:34.952Z</time>
      </trkpt>
      <trkpt lat="47.487787" lon="7.993572">
        <ele>385.895764</ele>
        <time>2021-11-14T17:10:44.281Z</time>
      </trkpt>
      <trkpt lat="47.488382" lon="7.994128">
        <ele>384.951283</ele>
        <time>2021-11-14T17:10:52.323Z</time>
      </trkpt>
      <trkpt lat="47.488991" lon="7.994692">
        <ele>383.784253</ele>
        <time>2021-11-14T17:11:00.483Z</time>
      </trkpt>
      <trkpt lat="47.489245" lon="7.994928">
        <ele>383.297064</ele>
        <time>2021-11-14T17:11:03.884Z</time>
      </trkpt>
      <trkpt lat="47.490016" lon="7.995686">
        <ele>381.596453</ele>
        <time>2021-11-14T17:11:14.209Z</time>
      </trkpt>
      <trkpt lat="47.490899" lon="7.996664">
        <ele>379.397057</ele>
        <time>2021-11-14T17:11:26.347Z</time>
      </trkpt>
      <trkpt lat="47.490940" lon="7.996698">
        <ele>379.303335</ele>
        <time>2021-11-14T17:11:26.865Z</time>
      </trkpt>
      <trkpt lat="47.491068" lon="7.996814">
        <ele>378.997535</ele>
        <time>2021-11-14T17:11:28.434Z</time>
      </trkpt>
      <trkpt lat="47.491354" lon="7.997016">
        <ele>378.305322</ele>
        <time>2021-11-14T17:11:31.871Z</time>
      </trkpt>
      <trkpt lat="47.491886" lon="7.997365">
        <ele>377.034215</ele>
        <time>2021-11-14T17:11:38.120Z</time>
      </trkpt>
      <trkpt lat="47.492317" lon="7.997637">
        <ele>376.010751</ele>
        <time>2021-11-14T17:11:43.054Z</time>
      </trkpt>
      <trkpt lat="47.492477" lon="7.997747">
        <ele>375.625391</ele>
        <time>2021-11-14T17:11:44.978Z</time>
      </trkpt>
      <trkpt lat="47.492617" lon="7.997908">
        <ele>375.238116</ele>
        <time>2021-11-14T17:11:46.920Z</time>
      </trkpt>
      <trkpt lat="47.492722" lon="7.998050">
        <ele>375.040596</ele>
        <time>2021-11-14T17:11:48.578Z</time>
      </trkpt>
      <trkpt lat="47.492747" lon="7.998084">
        <ele>375.005319</ele>
        <time>2021-11-14T17:11:48.962Z</time>
      </trkpt>
      <trkpt lat="47.492877" lon="7.998257">
        <ele>374.823676</ele>
        <time>2021-11-14T17:11:50.883Z</time>
      </trkpt>
      <trkpt lat="47.493144" lon="7.998645">
        <ele>374.434893</ele>
        <time>2021-11-14T17:11:55.239Z</time>
      </trkpt>
      <trkpt lat="47.493296" lon="7.998833">
        <ele>374.229078</ele>
        <time>2021-11-14T17:11:57.704Z</time>
      </trkpt>
      <trkpt lat="47.493358" lon="7.998911">
        <ele>374.144532</ele>
        <time>2021-11-14T17:11:58.663Z</time>
      </trkpt>
      <trkpt lat="47.493433" lon="7.998996">
        <ele>374.046384</ele>
        <time>2021-11-14T17:11:59.864Z</time>
      </trkpt>
      <trkpt lat="47.493502" lon="7.999071">
        <ele>373.957436</ele>
        <time>2021-11-14T17:12:00.980Z</time>
      </trkpt>
      <trkpt lat="47.493603" lon="7.999152">
        <ele>373.838081</ele>
        <time>2021-11-14T17:12:02.421Z</time>
      </trkpt>
      <trkpt lat="47.493742" lon="7.999216">
        <ele>373.686833</ele>
        <time>2021-11-14T17:12:04.264Z</time>
      </trkpt>
      <trkpt lat="47.493937" lon="7.999285">
        <ele>373.478519</ele>
        <time>2021-11-14T17:12:06.897Z</time>
      </trkpt>
      <trkpt lat="47.493961" lon="7.999292">
        <ele>373.453104</ele>
        <time>2021-11-14T17:12:07.203Z</time>
      </trkpt>
      <trkpt lat="47.494272" lon="7.999381">
        <ele>373.224550</ele>
        <time>2021-11-14T17:12:11.635Z</time>
      </trkpt>
      <trkpt lat="47.494489" lon="7.999417">
        <ele>373.149284</ele>
        <time>2021-11-14T17:12:14.973Z</time>
      </trkpt>
      <trkpt lat="47.494643" lon="7.999430">
        <ele>373.096115</ele>
        <time>2021-11-14T17:12:17.324Z</time>
      </trkpt>
      <trkpt lat="47.494812" lon="7.999457">
        <ele>373.037523</ele>
        <time>2021-11-14T17:12:19.815Z</time>
      </trkpt>
      <trkpt lat="47.495197" lon="7.999589">
        <ele>372.901302</ele>
        <time>2021-11-14T17:12:25.360Z</time>
      </trkpt>
      <trkpt lat="47.495430" lon="7.999752">
        <ele>372.812469</ele>
        <time>2021-11-14T17:12:28.856Z</time>
      </trkpt>
      <trkpt lat="47.495718" lon="8.000005">
        <ele>372.697029</ele>
        <time>2021-11-14T17:12:33.275Z</time>
      </trkpt>
      <trkpt lat="47.496011" lon="8.000286">
        <ele>372.355186</ele>
        <time>2021-11-14T17:12:37.737Z</time>
      </trkpt>
      <trkpt lat="47.496234" lon="8.000584">
        <ele>371.956820</ele>
        <time>2021-11-14T17:12:41.403Z</time>
      </trkpt>
      <trkpt lat="47.496272" lon="8.000651">
        <ele>371.878454</ele>
        <time>2021-11-14T17:12:42.256Z</time>
      </trkpt>
      <trkpt lat="47.496280" lon="8.000664">
        <ele>371.862702</ele>
        <time>2021-11-14T17:12:42.391Z</time>
      </trkpt>
      <trkpt lat="47.496429" lon="8.000925">
        <ele>371.556597</ele>
        <time>2021-11-14T17:12:45.061Z</time>
      </trkpt>
      <trkpt lat="47.496517" lon="8.001077">
        <ele>371.377276</ele>
        <time>2021-11-14T17:12:46.769Z</time>
      </trkpt>
      <trkpt lat="47.496533" lon="8.001104">
        <ele>371.345103</ele>
        <time>2021-11-14T17:12:47.021Z</time>
      </trkpt>
      <trkpt lat="47.496535" lon="8.001108">
        <ele>371.340645</ele>
        <time>2021-11-14T17:12:47.061Z</time>
      </trkpt>
      <trkpt lat="47.496585" lon="8.001187">
        <ele>371.243673</ele>
        <time>2021-11-14T17:12:47.857Z</time>
      </trkpt>
      <trkpt lat="47.496820" lon="8.001547">
        <ele>370.795236</ele>
        <time>2021-11-14T17:12:51.750Z</time>
      </trkpt>
      <trkpt lat="47.496861" lon="8.001608">
        <ele>370.718155</ele>
        <time>2021-11-14T17:12:52.384Z</time>
      </trkpt>
      <trkpt lat="47.496908" lon="8.001680">
        <ele>370.628468</ele>
        <time>2021-11-14T17:12:53.148Z</time>
      </trkpt>
      <trkpt lat="47.496932" lon="8.001715">
        <ele>370.583794</ele>
        <time>2021-11-14T17:12:53.513Z</time>
      </trkpt>
      <trkpt lat="47.497207" lon="8.002132">
        <ele>369.978495</ele>
        <time>2021-11-14T17:12:57.813Z</time>
      </trkpt>
      <trkpt lat="47.497264" lon="8.002219">
        <ele>369.826433</ele>
        <time>2021-11-14T17:12:58.755Z</time>
      </trkpt>
      <trkpt lat="47.497307" lon="8.002279">
        <ele>369.716682</ele>
        <time>2021-11-14T17:12:59.388Z</time>
      </trkpt>
      <trkpt lat="47.497390" lon="8.002409">
        <ele>369.492253</ele>
        <time>2021-11-14T17:13:00.751Z</time>
      </trkpt>
      <trkpt lat="47.497540" lon="8.002634">
        <ele>369.095632</ele>
        <time>2021-11-14T17:13:03.150Z</time>
      </trkpt>
      <trkpt lat="47.497607" lon="8.002710">
        <ele>368.938862</ele>
        <time>2021-11-14T17:13:04.069Z</time>
      </trkpt>
      <trkpt lat="47.497951" lon="8.003094">
        <ele>368.138672</ele>
        <time>2021-11-14T17:13:08.940Z</time>
      </trkpt>
      <trkpt lat="47.498072" lon="8.003250">
        <ele>367.840659</ele>
        <time>2021-11-14T17:13:10.671Z</time>
      </trkpt>
      <trkpt lat="47.498166" lon="8.003383">
        <ele>367.599153</ele>
        <time>2021-11-14T17:13:12.150Z</time>
      </trkpt>
      <trkpt lat="47.498213" lon="8.003454">
        <ele>367.474432</ele>
        <time>2021-11-14T17:13:12.917Z</time>
      </trkpt>
      <trkpt lat="47.498450" lon="8.003874">
        <ele>366.818160</ele>
        <time>2021-11-14T17:13:17.005Z</time>
      </trkpt>
      <trkpt lat="47.498698" lon="8.004313">
        <ele>366.254215</ele>
        <time>2021-11-14T17:13:21.248Z</time>
      </trkpt>
      <trkpt lat="47.498753" lon="8.004410">
        <ele>366.129418</ele>
        <time>2021-11-14T17:13:22.158Z</time>
      </trkpt>
      <trkpt lat="47.498898" lon="8.004636">
        <ele>365.822270</ele>
        <time>2021-11-14T17:13:24.651Z</time>
      </trkpt>
      <trkpt lat="47.498965" lon="8.004710">
        <ele>365.700330</ele>
        <time>2021-11-14T17:13:25.592Z</time>
      </trkpt>
      <trkpt lat="47.499012" lon="8.004762">
        <ele>365.614736</ele>
        <time>2021-11-14T17:13:26.245Z</time>
      </trkpt>
      <trkpt lat="47.499183" lon="8.004875">
        <ele>365.341574</ele>
        <time>2021-11-14T17:13:28.521Z</time>
      </trkpt>
      <trkpt lat="47.499409" lon="8.005000">
        <ele>364.989650</ele>
        <time>2021-11-14T17:13:31.371Z</time>
      </trkpt>
      <trkpt lat="47.499496" lon="8.005059">
        <ele>364.850060</ele>
        <time>2021-11-14T17:13:32.540Z</time>
      </trkpt>
      <trkpt lat="47.499523" lon="8.005078">
        <ele>364.806451</ele>
        <time>2021-11-14T17:13:32.883Z</time>
      </trkpt>
      <trkpt lat="47.499770" lon="8.005268">
        <ele>364.400411</ele>
        <time>2021-11-14T17:13:36.206Z</time>
      </trkpt>
      <trkpt lat="47.499856" lon="8.005338">
        <ele>364.284675</ele>
        <time>2021-11-14T17:13:37.367Z</time>
      </trkpt>
      <trkpt lat="47.499880" lon="8.005358">
        <ele>364.267283</ele>
        <time>2021-11-14T17:13:37.682Z</time>
      </trkpt>
      <trkpt lat="47.499991" lon="8.005468">
        <ele>364.182932</ele>
        <time>2021-11-14T17:13:39.256Z</time>
      </trkpt>
      <trkpt lat="47.500009" lon="8.005488">
        <ele>364.168720</ele>
        <time>2021-11-14T17:13:39.548Z</time>
      </trkpt>
      <trkpt lat="47.500207" lon="8.005727">
        <ele>364.007388</ele>
        <time>2021-11-14T17:13:42.708Z</time>
      </trkpt>
      <trkpt lat="47.500252" lon="8.005784">
        <ele>363.969988</ele>
        <time>2021-11-14T17:13:43.493Z</time>
      </trkpt>
      <trkpt lat="47.500310" lon="8.005852">
        <ele>363.923266</ele>
        <time>2021-11-14T17:13:44.422Z</time>
      </trkpt>
      <trkpt lat="47.500540" lon="8.006079">
        <ele>363.748706</ele>
        <time>2021-11-14T17:13:47.987Z</time>
      </trkpt>
      <trkpt lat="47.500647" lon="8.006180">
        <ele>363.668570</ele>
        <time>2021-11-14T17:13:49.694Z</time>
      </trkpt>
      <trkpt lat="47.500764" lon="8.006290">
        <ele>363.581046</ele>
        <time>2021-11-14T17:13:51.459Z</time>
      </trkpt>
      <trkpt lat="47.500997" lon="8.006551">
        <ele>363.396534</ele>
        <time>2021-11-14T17:13:55.577Z</time>
      </trkpt>
      <trkpt lat="47.501276" lon="8.006911">
        <ele>363.160316</ele>
        <time>2021-11-14T17:14:01.005Z</time>
      </trkpt>
      <trkpt lat="47.501293" lon="8.006936">
        <ele>363.139797</ele>
        <time>2021-11-14T17:14:01.330Z</time>
      </trkpt>
      <trkpt lat="47.501496" lon="8.007247">
        <ele>362.889640</ele>
        <time>2021-11-14T17:14:05.284Z</time>
      </trkpt>
      <trkpt lat="47.501537" lon="8.007308">
        <ele>362.839865</ele>
        <time>2021-11-14T17:14:06.028Z</time>
      </trkpt>
      <trkpt lat="47.501943" lon="8.008353">
        <ele>362.142538</ele>
        <time>2021-11-14T17:14:16.500Z</time>
      </trkpt>
      <trkpt lat="47.502062" lon="8.008650">
        <ele>361.942792</ele>
        <time>2021-11-14T17:14:19.440Z</time>
      </trkpt>
      <trkpt lat="47.502158" lon="8.008808">
        <ele>361.819868</ele>
        <time>2021-11-14T17:14:21.147Z</time>
      </trkpt>
      <trkpt lat="47.502267" lon="8.008979">
        <ele>361.683871</ele>
        <time>2021-11-14T17:14:22.979Z</time>
      </trkpt>
      <trkpt lat="47.502773" lon="8.009928">
        <ele>360.159151</ele>
        <time>2021-11-14T17:14:31.940Z</time>
      </trkpt>
      <trkpt lat="47.502959" lon="8.010415">
        <ele>359.421556</ele>
        <time>2021-11-14T17:14:36.009Z</time>
      </trkpt>
      <trkpt lat="47.503207" lon="8.011279">
        <ele>358.183861</ele>
        <time>2021-11-14T17:14:42.930Z</time>
      </trkpt>
      <trkpt lat="47.503268" lon="8.011479">
        <ele>357.928192</ele>
        <time>2021-11-14T17:14:44.606Z</time>
      </trkpt>
      <trkpt lat="47.503325" lon="8.011662">
        <ele>357.702263</ele>
        <time>2021-11-14T17:14:46.089Z</time>
      </trkpt>
      <trkpt lat="47.503561" lon="8.012433">
        <ele>356.753265</ele>
        <time>2021-11-14T17:14:52.361Z</time>
      </trkpt>
      <trkpt lat="47.503675" lon="8.012805">
        <ele>356.295293</ele>
        <time>2021-11-14T17:14:55.369Z</time>
      </trkpt>
      <trkpt lat="47.503759" lon="8.013139">
        <ele>355.895724</ele>
        <time>2021-11-14T17:14:58.079Z</time>
      </trkpt>
      <trkpt lat="47.503818" lon="8.013443">
        <ele>355.541111</ele>
        <time>2021-11-14T17:15:00.611Z</time>
      </trkpt>
      <trkpt lat="47.503854" lon="8.013721">
        <ele>355.223760</ele>
        <time>2021-11-14T17:15:03.018Z</time>
      </trkpt>
      <trkpt lat="47.503922" lon="8.014235">
        <ele>354.913731</ele>
        <time>2021-11-14T17:15:07.683Z</time>
      </trkpt>
      <trkpt lat="47.504106" lon="8.015484">
        <ele>354.278554</ele>
        <time>2021-11-14T17:15:18.488Z</time>
      </trkpt>
      <trkpt lat="47.504246" lon="8.016448">
        <ele>353.810443</ele>
        <time>2021-11-14T17:15:27.107Z</time>
      </trkpt>
      <trkpt lat="47.504281" lon="8.016674">
        <ele>353.805534</ele>
        <time>2021-11-14T17:15:29.153Z</time>
      </trkpt>
      <trkpt lat="47.504393" lon="8.017182">
        <ele>353.794222</ele>
        <time>2021-11-14T17:15:34.478Z</time>
      </trkpt>
      <trkpt lat="47.504413" lon="8.017267">
        <ele>353.792317</ele>
        <time>2021-11-14T17:15:35.474Z</time>
      </trkpt>
      <trkpt lat="47.504588" lon="8.017986">
        <ele>353.776138</ele>
        <time>2021-11-14T17:15:43.519Z</time>
      </trkpt>
      <trkpt lat="47.504626" lon="8.018141">
        <ele>353.772647</ele>
        <time>2021-11-14T17:15:45.151Z</time>
      </trkpt>
      <trkpt lat="47.504819" lon="8.018974">
        <ele>353.735487</ele>
        <time>2021-11-14T17:15:53.951Z</time>
      </trkpt>
      <trkpt lat="47.504877" lon="8.019222">
        <ele>353.631382</ele>
        <time>2021-11-14T17:15:56.796Z</time>
      </trkpt>
      <trkpt lat="47.504998" lon="8.019743">
        <ele>353.412841</ele>
        <time>2021-11-14T17:16:02.734Z</time>
      </trkpt>
      <trkpt lat="47.505207" lon="8.020615">
        <ele>353.045814</ele>
        <time>2021-11-14T17:16:11.173Z</time>
      </trkpt>
      <trkpt lat="47.505291" lon="8.020961">
        <ele>352.899971</ele>
        <time>2021-11-14T17:16:14.249Z</time>
      </trkpt>
      <trkpt lat="47.505529" lon="8.021539">
        <ele>352.429581</ele>
        <time>2021-11-14T17:16:19.465Z</time>
      </trkpt>
      <trkpt lat="47.505600" lon="8.021664">
        <ele>352.170791</ele>
        <time>2021-11-14T17:16:20.605Z</time>
      </trkpt>
      <trkpt lat="47.505653" lon="8.021731">
        <ele>352.007303</ele>
        <time>2021-11-14T17:16:21.424Z</time>
      </trkpt>
      <trkpt lat="47.506220" lon="8.022129">
        <ele>350.535310</ele>
        <time>2021-11-14T17:16:28.254Z</time>
      </trkpt>
      <trkpt lat="47.506503" lon="8.022393">
        <ele>349.750648</ele>
        <time>2021-11-14T17:16:31.857Z</time>
      </trkpt>
      <trkpt lat="47.506535" lon="8.022414">
        <ele>349.668539</ele>
        <time>2021-11-14T17:16:32.177Z</time>
      </trkpt>
      <trkpt lat="47.506621" lon="8.022234">
        <ele>349.319183</ele>
        <time>2021-11-14T17:16:33.765Z</time>
      </trkpt>
      <trkpt lat="47.506655" lon="8.022123">
        <ele>349.126058</ele>
        <time>2021-11-14T17:16:34.632Z</time>
      </trkpt>
      <trkpt lat="47.506655" lon="8.022123">
        <ele>349.126058</ele>
        <time>2021-11-14T17:16:34.635Z</time>
      </trkpt>
      <trkpt lat="47.506678" lon="8.022015">
        <ele>348.946621</ele>
        <time>2021-11-14T17:16:35.438Z</time>
      </trkpt>
      <trkpt lat="47.506735" lon="8.021861">
        <ele>348.668367</ele>
        <time>2021-11-14T17:16:36.605Z</time>
      </trkpt>
      <trkpt lat="47.506867" lon="8.021604">
        <ele>348.124018</ele>
        <time>2021-11-14T17:16:38.834Z</time>
      </trkpt>
      <trkpt lat="47.506910" lon="8.021529">
        <ele>347.952322</ele>
        <time>2021-11-14T17:16:39.465Z</time>
      </trkpt>
      <trkpt lat="47.506949" lon="8.021459">
        <ele>347.793952</ele>
        <time>2021-11-14T17:16:40.108Z</time>
      </trkpt>
      <trkpt lat="47.507007" lon="8.021362">
        <ele>347.567853</ele>
        <time>2021-11-14T17:16:41.001Z</time>
      </trkpt>
      <trkpt lat="47.507213" lon="8.021061">
        <ele>346.819991</ele>
        <time>2021-11-14T17:16:43.953Z</time>
      </trkpt>
      <trkpt lat="47.507466" lon="8.020697">
        <ele>345.908432</ele>
        <time>2021-11-14T17:16:47.588Z</time>
      </trkpt>
      <trkpt lat="47.507609" lon="8.020484">
        <ele>345.384293</ele>
        <time>2021-11-14T17:16:49.724Z</time>
      </trkpt>
      <trkpt lat="47.507666" lon="8.020400">
        <ele>345.176484</ele>
        <time>2021-11-14T17:16:50.592Z</time>
      </trkpt>
      <trkpt lat="47.507863" lon="8.020075">
        <ele>344.414353</ele>
        <time>2021-11-14T17:16:53.786Z</time>
      </trkpt>
      <trkpt lat="47.507895" lon="8.020117">
        <ele>344.303855</ele>
        <time>2021-11-14T17:16:54.248Z</time>
      </trkpt>
      <trkpt lat="47.507995" lon="8.020296">
        <ele>343.898439</ele>
        <time>2021-11-14T17:16:56.029Z</time>
      </trkpt>
      <trkpt lat="47.508000" lon="8.020315">
        <ele>343.862850</ele>
        <time>2021-11-14T17:16:56.160Z</time>
      </trkpt>
      <trkpt lat="47.508039" lon="8.020467">
        <ele>343.898192</ele>
        <time>2021-11-14T17:16:57.364Z</time>
      </trkpt>
      <trkpt lat="47.508194" lon="8.021281">
        <ele>344.281915</ele>
        <time>2021-11-14T17:17:04.093Z</time>
      </trkpt>
      <trkpt lat="47.508213" lon="8.021364">
        <ele>344.321678</ele>
        <time>2021-11-14T17:17:04.912Z</time>
      </trkpt>
      <trkpt lat="47.508331" lon="8.021703">
        <ele>344.494710</ele>
        <time>2021-11-14T17:17:09.962Z</time>
      </trkpt>
      <trkpt lat="47.508453" lon="8.021990">
        <ele>344.648566</ele>
        <time>2021-11-14T17:17:14.177Z</time>
      </trkpt>
      <trkpt lat="47.508643" lon="8.022392">
        <ele>344.871176</ele>
        <time>2021-11-14T17:17:21.671Z</time>
      </trkpt>
      <trkpt lat="47.508786" lon="8.022604">
        <ele>345.007111</ele>
        <time>2021-11-14T17:17:27.344Z</time>
      </trkpt>
      <trkpt lat="47.508863" lon="8.022719">
        <ele>345.341245</ele>
        <time>2021-11-14T17:17:30.097Z</time>
      </trkpt>
      <trkpt lat="47.508958" lon="8.022838">
        <ele>345.968350</ele>
        <time>2021-11-14T17:17:34.046Z</time>
      </trkpt>
      <trkpt lat="47.509187" lon="8.023037">
        <ele>347.306462</ele>
        <time>2021-11-14T17:17:41.992Z</time>
      </trkpt>
      <trkpt lat="47.509313" lon="8.023129">
        <ele>348.014436</ele>
        <time>2021-11-14T17:17:47.241Z</time>
      </trkpt>
      <trkpt lat="47.509881" lon="8.023632">
        <ele>351.349740</ele>
        <time>2021-11-14T17:18:11.411Z</time>
      </trkpt>
      <trkpt lat="47.510365" lon="8.024216">
        <ele>354.460316</ele>
        <time>2021-11-14T17:18:36.628Z</time>
      </trkpt>
      <trkpt lat="47.510756" lon="8.024675">
        <ele>356.744584</ele>
        <time>2021-11-14T17:18:55.413Z</time>
      </trkpt>
      <trkpt lat="47.510843" lon="8.024760">
        <ele>357.221747</ele>
        <time>2021-11-14T17:18:59.428Z</time>
      </trkpt>
      <trkpt lat="47.511071" lon="8.024979">
        <ele>358.465878</ele>
        <time>2021-11-14T17:19:08.493Z</time>
      </trkpt>
      <trkpt lat="47.511906" lon="8.025487">
        <ele>362.549203</ele>
        <time>2021-11-14T17:19:34.834Z</time>
      </trkpt>
      <trkpt lat="47.512274" lon="8.025656">
        <ele>363.979843</ele>
        <time>2021-11-14T17:19:45.159Z</time>
      </trkpt>
      <trkpt lat="47.512538" lon="8.025758">
        <ele>364.992926</ele>
        <time>2021-11-14T17:19:52.298Z</time>
      </trkpt>
      <trkpt lat="47.512908" lon="8.025853">
        <ele>366.387273</ele>
        <time>2021-11-14T17:20:02.314Z</time>
      </trkpt>
      <trkpt lat="47.513218" lon="8.025897">
        <ele>367.543607</ele>
        <time>2021-11-14T17:20:11.075Z</time>
      </trkpt>
      <trkpt lat="47.513425" lon="8.025912">
        <ele>368.313135</ele>
        <time>2021-11-14T17:20:17.217Z</time>
      </trkpt>
      <trkpt lat="47.513701" lon="8.025904">
        <ele>369.716360</ele>
        <time>2021-11-14T17:20:36.412Z</time>
      </trkpt>
      <trkpt lat="47.514210" lon="8.025838">
        <ele>373.844370</ele>
        <time>2021-11-14T17:21:11.992Z</time>
      </trkpt>
      <trkpt lat="47.514465" lon="8.025897">
        <ele>375.929548</ele>
        <time>2021-11-14T17:21:29.932Z</time>
      </trkpt>
      <trkpt lat="47.514595" lon="8.026008">
        <ele>377.141966</ele>
        <time>2021-11-14T17:21:40.443Z</time>
      </trkpt>
      <trkpt lat="47.514817" lon="8.026467">
        <ele>380.222532</ele>
        <time>2021-11-14T17:22:07.000Z</time>
      </trkpt>
      <trkpt lat="47.514885" lon="8.026707">
        <ele>381.642689</ele>
        <time>2021-11-14T17:22:19.311Z</time>
      </trkpt>
      <trkpt lat="47.514979" lon="8.027036">
        <ele>383.602316</ele>
        <time>2021-11-14T17:22:36.155Z</time>
      </trkpt>
      <trkpt lat="47.515004" lon="8.027124">
        <ele>384.246059</ele>
        <time>2021-11-14T17:22:40.655Z</time>
      </trkpt>
      <trkpt lat="47.515321" lon="8.028237">
        <ele>392.391048</ele>
        <time>2021-11-14T17:23:37.543Z</time>
      </trkpt>
      <trkpt lat="47.515348" lon="8.028359">
        <ele>393.256731</ele>
        <time>2021-11-14T17:23:43.587Z</time>
      </trkpt>
      <trkpt lat="47.515381" lon="8.028515">
        <ele>394.359025</ele>
        <time>2021-11-14T17:23:51.312Z</time>
      </trkpt>
      <trkpt lat="47.515481" lon="8.029757">
        <ele>402.743293</ele>
        <time>2021-11-14T17:24:50.291Z</time>
      </trkpt>
      <trkpt lat="47.515614" lon="8.030515">
        <ele>407.819914</ele>
        <time>2021-11-14T17:25:27.129Z</time>
      </trkpt>
      <trkpt lat="47.515691" lon="8.030845">
        <ele>410.083101</ele>
        <time>2021-11-14T17:25:43.592Z</time>
      </trkpt>
      <trkpt lat="47.515842" lon="8.031330">
        <ele>413.544921</ele>
        <time>2021-11-14T17:26:08.761Z</time>
      </trkpt>
      <trkpt lat="47.516300" lon="8.032789">
        <ele>423.185734</ele>
        <time>2021-11-14T17:27:24.567Z</time>
      </trkpt>
      <trkpt lat="47.516568" lon="8.033645">
        <ele>428.375540</ele>
        <time>2021-11-14T17:28:08.950Z</time>
      </trkpt>
      <trkpt lat="47.516747" lon="8.034188">
        <ele>431.699138</ele>
        <time>2021-11-14T17:28:37.411Z</time>
      </trkpt>
      <trkpt lat="47.516785" lon="8.034519">
        <ele>433.499918</ele>
        <time>2021-11-14T17:28:53.186Z</time>
      </trkpt>
      <trkpt lat="47.516756" lon="8.034742">
        <ele>434.303170</ele>
        <time>2021-11-14T17:29:03.863Z</time>
      </trkpt>
      <trkpt lat="47.516470" lon="8.035519">
        <ele>437.433129</ele>
        <time>2021-11-14T17:29:45.424Z</time>
      </trkpt>
      <trkpt lat="47.516415" lon="8.035902">
        <ele>438.818113</ele>
        <time>2021-11-14T17:30:03.843Z</time>
      </trkpt>
      <trkpt lat="47.516430" lon="8.036102">
        <ele>439.529877</ele>
        <time>2021-11-14T17:30:13.292Z</time>
      </trkpt>
      <trkpt lat="47.516512" lon="8.036332">
        <ele>440.449796</ele>
        <time>2021-11-14T17:30:25.482Z</time>
      </trkpt>
      <trkpt lat="47.516536" lon="8.036364">
        <ele>440.618940</ele>
        <time>2021-11-14T17:30:27.721Z</time>
      </trkpt>
      <trkpt lat="47.516645" lon="8.036512">
        <ele>441.393478</ele>
        <time>2021-11-14T17:30:38.014Z</time>
      </trkpt>
      <trkpt lat="47.516778" lon="8.036607">
        <ele>442.166836</ele>
        <time>2021-11-14T17:30:48.274Z</time>
      </trkpt>
      <trkpt lat="47.516942" lon="8.036650">
        <ele>443.020244</ele>
        <time>2021-11-14T17:30:59.848Z</time>
      </trkpt>
      <trkpt lat="47.517234" lon="8.036656">
        <ele>444.407105</ele>
        <time>2021-11-14T17:31:20.164Z</time>
      </trkpt>
      <trkpt lat="47.517610" lon="8.036660">
        <ele>446.192801</ele>
        <time>2021-11-14T17:31:46.347Z</time>
      </trkpt>
      <trkpt lat="47.517767" lon="8.036682">
        <ele>446.941736</ele>
        <time>2021-11-14T17:31:57.319Z</time>
      </trkpt>
      <trkpt lat="47.517867" lon="8.036710">
        <ele>447.425059</ele>
        <time>2021-11-14T17:32:04.387Z</time>
      </trkpt>
      <trkpt lat="47.518081" lon="8.036770">
        <ele>448.459418</ele>
        <time>2021-11-14T17:32:19.519Z</time>
      </trkpt>
      <trkpt lat="47.518539" lon="8.036930">
        <ele>450.694208</ele>
        <time>2021-11-14T17:32:52.252Z</time>
      </trkpt>
      <trkpt lat="47.519072" lon="8.036945">
        <ele>453.784301</ele>
        <time>2021-11-14T17:33:29.398Z</time>
      </trkpt>
      <trkpt lat="47.519987" lon="8.036532">
        <ele>459.700318</ele>
        <time>2021-11-14T17:34:35.967Z</time>
      </trkpt>
      <trkpt lat="47.520056" lon="8.036498">
        <ele>460.150066</ele>
        <time>2021-11-14T17:34:41.004Z</time>
      </trkpt>
      <trkpt lat="47.520194" lon="8.036435">
        <ele>461.043188</ele>
        <time>2021-11-14T17:34:51.096Z</time>
      </trkpt>
      <trkpt lat="47.520340" lon="8.036369">
        <ele>461.987286</ele>
        <time>2021-11-14T17:35:01.672Z</time>
      </trkpt>
      <trkpt lat="47.520393" lon="8.036350">
        <ele>462.324541</ele>
        <time>2021-11-14T17:35:05.538Z</time>
      </trkpt>
      <trkpt lat="47.520916" lon="8.036204">
        <ele>464.522386</ele>
        <time>2021-11-14T17:35:42.566Z</time>
      </trkpt>
      <trkpt lat="47.521258" lon="8.036231">
        <ele>465.896459</ele>
        <time>2021-11-14T17:36:06.387Z</time>
      </trkpt>
      <trkpt lat="47.521381" lon="8.036270">
        <ele>466.401129</ele>
        <time>2021-11-14T17:36:15.155Z</time>
      </trkpt>
      <trkpt lat="47.521466" lon="8.036296">
        <ele>466.749354</ele>
        <time>2021-11-14T17:36:21.170Z</time>
      </trkpt>
      <trkpt lat="47.521951" lon="8.036491">
        <ele>468.765653</ele>
        <time>2021-11-14T17:36:56.151Z</time>
      </trkpt>
      <trkpt lat="47.522589" lon="8.036591">
        <ele>469.083743</ele>
        <time>2021-11-14T17:37:40.710Z</time>
      </trkpt>
      <trkpt lat="47.522729" lon="8.036577">
        <ele>468.863103</ele>
        <time>2021-11-14T17:37:50.480Z</time>
      </trkpt>
      <trkpt lat="47.522908" lon="8.036517">
        <ele>468.574519</ele>
        <time>2021-11-14T17:38:03.212Z</time>
      </trkpt>
      <trkpt lat="47.523897" lon="8.036063">
        <ele>466.946388</ele>
        <time>2021-11-14T17:39:15.244Z</time>
      </trkpt>
      <trkpt lat="47.524622" lon="8.035732">
        <ele>466.693296</ele>
        <time>2021-11-14T17:40:07.948Z</time>
      </trkpt>
      <trkpt lat="47.524948" lon="8.035593">
        <ele>466.600699</ele>
        <time>2021-11-14T17:40:31.517Z</time>
      </trkpt>
      <trkpt lat="47.525143" lon="8.035534">
        <ele>466.546375</ele>
        <time>2021-11-14T17:40:45.340Z</time>
      </trkpt>
      <trkpt lat="47.525199" lon="8.035517">
        <ele>466.530771</ele>
        <time>2021-11-14T17:40:49.318Z</time>
      </trkpt>
      <trkpt lat="47.525448" lon="8.035439">
        <ele>466.461303</ele>
        <time>2021-11-14T17:41:07.019Z</time>
      </trkpt>
      <trkpt lat="47.526022" lon="8.035374">
        <ele>466.629888</ele>
        <time>2021-11-14T17:41:46.997Z</time>
      </trkpt>
      <trkpt lat="47.526771" lon="8.035396">
        <ele>467.122090</ele>
        <time>2021-11-14T17:42:39.071Z</time>
      </trkpt>
      <trkpt lat="47.527673" lon="8.035416">
        <ele>466.818731</ele>
        <time>2021-11-14T17:43:41.797Z</time>
      </trkpt>
      <trkpt lat="47.527719" lon="8.035419">
        <ele>466.645589</ele>
        <time>2021-11-14T17:43:45.011Z</time>
      </trkpt>
      <trkpt lat="47.527762" lon="8.035280">
        <ele>466.257378</ele>
        <time>2021-11-14T17:43:46.745Z</time>
      </trkpt>
      <trkpt lat="47.527938" lon="8.035132">
        <ele>465.496315</ele>
        <time>2021-11-14T17:43:49.458Z</time>
      </trkpt>
      <trkpt lat="47.528026" lon="8.035005">
        <ele>465.034273</ele>
        <time>2021-11-14T17:43:51.499Z</time>
      </trkpt>
      <trkpt lat="47.528294" lon="8.035007">
        <ele>464.026493</ele>
        <time>2021-11-14T17:43:58.780Z</time>
      </trkpt>
      <trkpt lat="47.528472" lon="8.035098">
        <ele>463.318397</ele>
        <time>2021-11-14T17:44:03.982Z</time>
      </trkpt>
      <trkpt lat="47.528615" lon="8.035415">
        <ele>462.350418</ele>
        <time>2021-11-14T17:44:11.338Z</time>
      </trkpt>
      <trkpt lat="47.528632" lon="8.035511">
        <ele>462.098426</ele>
        <time>2021-11-14T17:44:13.133Z</time>
      </trkpt>
      <trkpt lat="47.528685" lon="8.035551">
        <ele>461.874743</ele>
        <time>2021-11-14T17:44:17.324Z</time>
      </trkpt>
      <trkpt lat="47.528828" lon="8.035746">
        <ele>461.143793</ele>
        <time>2021-11-14T17:44:30.837Z</time>
      </trkpt>
      <trkpt lat="47.529415" lon="8.036548">
        <ele>458.733638</ele>
        <time>2021-11-14T17:45:26.374Z</time>
      </trkpt>
      <trkpt lat="47.529594" lon="8.036716">
        <ele>458.113252</ele>
        <time>2021-11-14T17:45:41.127Z</time>
      </trkpt>
      <trkpt lat="47.529857" lon="8.036835">
        <ele>457.308187</ele>
        <time>2021-11-14T17:46:00.204Z</time>
      </trkpt>
      <trkpt lat="47.529967" lon="8.036849">
        <ele>456.984974</ele>
        <time>2021-11-14T17:46:07.941Z</time>
      </trkpt>
      <trkpt lat="47.530078" lon="8.036829">
        <ele>456.657625</ele>
        <time>2021-11-14T17:46:15.701Z</time>
      </trkpt>
      <trkpt lat="47.530189" lon="8.036784">
        <ele>456.320718</ele>
        <time>2021-11-14T17:46:23.679Z</time>
      </trkpt>
      <trkpt lat="47.530326" lon="8.036693">
        <ele>455.881160</ele>
        <time>2021-11-14T17:46:34.135Z</time>
      </trkpt>
      <trkpt lat="47.530555" lon="8.036505">
        <ele>455.045080</ele>
        <time>2021-11-14T17:46:52.330Z</time>
      </trkpt>
      <trkpt lat="47.531129" lon="8.036010">
        <ele>452.791592</ele>
        <time>2021-11-14T17:47:38.479Z</time>
      </trkpt>
      <trkpt lat="47.531850" lon="8.035386">
        <ele>449.958425</ele>
        <time>2021-11-14T17:48:36.571Z</time>
      </trkpt>
      <trkpt lat="47.532372" lon="8.034956">
        <ele>445.339164</ele>
        <time>2021-11-14T17:49:18.163Z</time>
      </trkpt>
      <trkpt lat="47.532563" lon="8.034738">
        <ele>443.123985</ele>
        <time>2021-11-14T17:49:34.988Z</time>
      </trkpt>
      <trkpt lat="47.532695" lon="8.034506">
        <ele>441.242202</ele>
        <time>2021-11-14T17:49:49.285Z</time>
      </trkpt>
      <trkpt lat="47.533121" lon="8.033377">
        <ele>433.220290</ele>
        <time>2021-11-14T17:50:50.234Z</time>
      </trkpt>
      <trkpt lat="47.533213" lon="8.033283">
        <ele>432.143819</ele>
        <time>2021-11-14T17:50:58.005Z</time>
      </trkpt>
      <trkpt lat="47.533431" lon="8.033320">
        <ele>429.991385</ele>
        <time>2021-11-14T17:51:13.328Z</time>
      </trkpt>
      <trkpt lat="47.533544" lon="8.033538">
        <ele>428.171166</ele>
        <time>2021-11-14T17:51:26.276Z</time>
      </trkpt>
      <trkpt lat="47.533693" lon="8.034653">
        <ele>420.643421</ele>
        <time>2021-11-14T17:52:19.792Z</time>
      </trkpt>
      <trkpt lat="47.533861" lon="8.035378">
        <ele>415.566928</ele>
        <time>2021-11-14T17:52:55.873Z</time>
      </trkpt>
      <trkpt lat="47.533990" lon="8.035683">
        <ele>413.149124</ele>
        <time>2021-11-14T17:53:12.848Z</time>
      </trkpt>
      <trkpt lat="47.534197" lon="8.036173">
        <ele>409.258672</ele>
        <time>2021-11-14T17:53:40.058Z</time>
      </trkpt>
      <trkpt lat="47.534438" lon="8.036566">
        <ele>405.685271</ele>
        <time>2021-11-14T17:54:05.073Z</time>
      </trkpt>
      <trkpt lat="47.534824" lon="8.037044">
        <ele>400.669443</ele>
        <time>2021-11-14T17:54:40.209Z</time>
      </trkpt>
      <trkpt lat="47.535234" lon="8.037415">
        <ele>395.845181</ele>
        <time>2021-11-14T17:55:13.761Z</time>
      </trkpt>
      <trkpt lat="47.535392" lon="8.037553">
        <ele>393.973749</ele>
        <time>2021-11-14T17:55:26.543Z</time>
      </trkpt>
      <trkpt lat="47.535422" lon="8.037579">
        <ele>393.619121</ele>
        <time>2021-11-14T17:55:26.841Z</time>
      </trkpt>
      <trkpt lat="47.535603" lon="8.037763">
        <ele>391.379326</ele>
        <time>2021-11-14T17:55:28.743Z</time>
      </trkpt>
      <trkpt lat="47.535873" lon="8.038069">
        <ele>387.910698</ele>
        <time>2021-11-14T17:55:31.665Z</time>
      </trkpt>
      <trkpt lat="47.537246" lon="8.039781">
        <ele>368.707746</ele>
        <time>2021-11-14T17:55:47.064Z</time>
      </trkpt>
      <trkpt lat="47.537321" lon="8.039892">
        <ele>367.523417</ele>
        <time>2021-11-14T17:55:47.958Z</time>
      </trkpt>
      <trkpt lat="47.537434" lon="8.040115">
        <ele>365.420663</ele>
        <time>2021-11-14T17:55:49.552Z</time>
      </trkpt>
      <trkpt lat="47.537590" lon="8.040865">
        <ele>359.502266</ele>
        <time>2021-11-14T17:55:54.029Z</time>
      </trkpt>
      <trkpt lat="47.537697" lon="8.041635">
        <ele>354.667311</ele>
        <time>2021-11-14T17:55:58.504Z</time>
      </trkpt>
      <trkpt lat="47.537748" lon="8.041977">
        <ele>352.567385</ele>
        <time>2021-11-14T17:56:00.533Z</time>
      </trkpt>
      <trkpt lat="47.537814" lon="8.042475">
        <ele>349.524586</ele>
        <time>2021-11-14T17:56:03.512Z</time>
      </trkpt>
      <trkpt lat="47.537820" lon="8.042654">
        <ele>348.450052</ele>
        <time>2021-11-14T17:56:04.559Z</time>
      </trkpt>
      <trkpt lat="47.537814" lon="8.042851">
        <ele>347.267718</ele>
        <time>2021-11-14T17:56:05.802Z</time>
      </trkpt>
      <trkpt lat="47.537774" lon="8.043160">
        <ele>345.381327</ele>
        <time>2021-11-14T17:56:07.683Z</time>
      </trkpt>
      <trkpt lat="47.537732" lon="8.043404">
        <ele>343.871596</ele>
        <time>2021-11-14T17:56:09.276Z</time>
      </trkpt>
      <trkpt lat="47.537487" lon="8.044776">
        <ele>340.507823</ele>
        <time>2021-11-14T17:56:18.600Z</time>
      </trkpt>
      <trkpt lat="47.537460" lon="8.044932">
        <ele>340.198282</ele>
        <time>2021-11-14T17:56:19.984Z</time>
      </trkpt>
      <trkpt lat="47.537686" lon="8.045112">
        <ele>339.467728</ele>
        <time>2021-11-14T17:56:22.935Z</time>
      </trkpt>
      <trkpt lat="47.538203" lon="8.045387">
        <ele>337.903767</ele>
        <time>2021-11-14T17:56:29.551Z</time>
      </trkpt>
      <trkpt lat="47.538294" lon="8.045418">
        <ele>337.703174</ele>
        <time>2021-11-14T17:56:30.568Z</time>
      </trkpt>
      <trkpt lat="47.538340" lon="8.045430">
        <ele>337.619293</ele>
        <time>2021-11-14T17:56:31.141Z</time>
      </trkpt>
      <trkpt lat="47.538479" lon="8.045444">
        <ele>337.369093</ele>
        <time>2021-11-14T17:56:32.846Z</time>
      </trkpt>
      <trkpt lat="47.538763" lon="8.045382">
        <ele>336.853561</ele>
        <time>2021-11-14T17:56:36.105Z</time>
      </trkpt>
      <trkpt lat="47.538912" lon="8.045281">
        <ele>336.559292</ele>
        <time>2021-11-14T17:56:37.970Z</time>
      </trkpt>
      <trkpt lat="47.538984" lon="8.045208">
        <ele>336.402602</ele>
        <time>2021-11-14T17:56:38.904Z</time>
      </trkpt>
      <trkpt lat="47.539049" lon="8.045146">
        <ele>336.263764</ele>
        <time>2021-11-14T17:56:39.804Z</time>
      </trkpt>
      <trkpt lat="47.539168" lon="8.044994">
        <ele>335.981578</ele>
        <time>2021-11-14T17:56:41.429Z</time>
      </trkpt>
      <trkpt lat="47.539357" lon="8.044726">
        <ele>335.511715</ele>
        <time>2021-11-14T17:56:44.218Z</time>
      </trkpt>
      <trkpt lat="47.539485" lon="8.044571">
        <ele>335.214812</ele>
        <time>2021-11-14T17:56:45.961Z</time>
      </trkpt>
      <trkpt lat="47.539769" lon="8.044372">
        <ele>334.650606</ele>
        <time>2021-11-14T17:56:49.301Z</time>
      </trkpt>
      <trkpt lat="47.540105" lon="8.044383">
        <ele>334.879179</ele>
        <time>2021-11-14T17:56:53.179Z</time>
      </trkpt>
      <trkpt lat="47.540316" lon="8.044416">
        <ele>335.088044</ele>
        <time>2021-11-14T17:56:56.244Z</time>
      </trkpt>
      <trkpt lat="47.540345" lon="8.044329">
        <ele>335.152523</ele>
        <time>2021-11-14T17:56:57.118Z</time>
      </trkpt>
      <trkpt lat="47.540360" lon="8.044061">
        <ele>335.331233</ele>
        <time>2021-11-14T17:57:00.416Z</time>
      </trkpt>
      <trkpt lat="47.540394" lon="8.043626">
        <ele>335.622241</ele>
        <time>2021-11-14T17:57:07.618Z</time>
      </trkpt>
      <trkpt lat="47.540392" lon="8.043542">
        <ele>335.678098</ele>
        <time>2021-11-14T17:57:09.268Z</time>
      </trkpt>
      <trkpt lat="47.540358" lon="8.043349">
        <ele>335.810651</ele>
        <time>2021-11-14T17:57:13.502Z</time>
      </trkpt>
      <trkpt lat="47.540311" lon="8.043099">
        <ele>335.983109</ele>
        <time>2021-11-14T17:57:17.571Z</time>
      </trkpt>
      <trkpt lat="47.540230" lon="8.042774">
        <ele>336.213336</ele>
        <time>2021-11-14T17:57:23.780Z</time>
      </trkpt>
      <trkpt lat="47.540115" lon="8.042499">
        <ele>336.328847</ele>
        <time>2021-11-14T17:57:28.560Z</time>
      </trkpt>
      <trkpt lat="47.540094" lon="8.042446">
        <ele>336.314165</ele>
        <time>2021-11-14T17:57:29.917Z</time>
      </trkpt>
      <trkpt lat="47.540072" lon="8.042391">
        <ele>336.298892</ele>
        <time>2021-11-14T17:57:30.970Z</time>
      </trkpt>
      <trkpt lat="47.540034" lon="8.042303">
        <ele>336.273935</ele>
        <time>2021-11-14T17:57:33.973Z</time>
      </trkpt>
      <trkpt lat="47.540021" lon="8.042268">
        <ele>336.264391</ele>
        <time>2021-11-14T17:57:35.142Z</time>
      </trkpt>
      <trkpt lat="47.539991" lon="8.042065">
        <ele>336.214744</ele>
        <time>2021-11-14T17:57:40.459Z</time>
      </trkpt>
      <trkpt lat="47.539983" lon="8.041866">
        <ele>336.167117</ele>
        <time>2021-11-14T17:57:45.928Z</time>
      </trkpt>
      <trkpt lat="47.539998" lon="8.041644">
        <ele>336.113814</ele>
        <time>2021-11-14T17:57:48.733Z</time>
      </trkpt>
      <trkpt lat="47.540031" lon="8.041477">
        <ele>336.072242</ele>
        <time>2021-11-14T17:57:51.147Z</time>
      </trkpt>
      <trkpt lat="47.540079" lon="8.041350">
        <ele>336.037469</ele>
        <time>2021-11-14T17:57:52.999Z</time>
      </trkpt>
      <trkpt lat="47.540116" lon="8.041253">
        <ele>336.010852</ele>
        <time>2021-11-14T17:57:54.081Z</time>
      </trkpt>
      <trkpt lat="47.540240" lon="8.040995">
        <ele>335.935188</ele>
        <time>2021-11-14T17:57:56.982Z</time>
      </trkpt>
      <trkpt lat="47.540564" lon="8.040358">
        <ele>335.744642</ele>
        <time>2021-11-14T17:58:03.146Z</time>
      </trkpt>
      <trkpt lat="47.540612" lon="8.040244">
        <ele>335.654115</ele>
        <time>2021-11-14T17:58:04.185Z</time>
      </trkpt>
      <trkpt lat="47.540755" lon="8.039911">
        <ele>334.651789</ele>
        <time>2021-11-14T17:58:06.791Z</time>
      </trkpt>
      <trkpt lat="47.540973" lon="8.039326">
        <ele>332.954743</ele>
        <time>2021-11-14T17:58:11.060Z</time>
      </trkpt>
      <trkpt lat="47.541029" lon="8.038776">
        <ele>331.542128</ele>
        <time>2021-11-14T17:58:14.548Z</time>
      </trkpt>
      <trkpt lat="47.541015" lon="8.038511">
        <ele>330.867059</ele>
        <time>2021-11-14T17:58:16.183Z</time>
      </trkpt>
      <trkpt lat="47.541006" lon="8.038351">
        <ele>330.459304</ele>
        <time>2021-11-14T17:58:17.236Z</time>
      </trkpt>
      <trkpt lat="47.540394" lon="8.031575">
        <ele>321.838327</ele>
        <time>2021-11-14T17:59:09.055Z</time>
      </trkpt>
      <trkpt lat="47.540324" lon="8.030594">
        <ele>321.222887</ele>
        <time>2021-11-14T17:59:17.609Z</time>
      </trkpt>
      <trkpt lat="47.540275" lon="8.029790">
        <ele>320.744328</ele>
        <time>2021-11-14T17:59:24.946Z</time>
      </trkpt>
      <trkpt lat="47.540273" lon="8.028579">
        <ele>320.688733</ele>
        <time>2021-11-14T17:59:36.640Z</time>
      </trkpt>
      <trkpt lat="47.540306" lon="8.026756">
        <ele>320.840541</ele>
        <time>2021-11-14T17:59:55.291Z</time>
      </trkpt>
      <trkpt lat="47.540408" lon="8.025334">
        <ele>321.589061</ele>
        <time>2021-11-14T18:00:11.359Z</time>
      </trkpt>
      <trkpt lat="47.540490" lon="8.024315">
        <ele>322.530888</ele>
        <time>2021-11-14T18:00:25.141Z</time>
      </trkpt>
      <trkpt lat="47.540537" lon="8.023536">
        <ele>324.480193</ele>
        <time>2021-11-14T18:00:37.907Z</time>
      </trkpt>
      <trkpt lat="47.540454" lon="8.023022">
        <ele>325.797419</ele>
        <time>2021-11-14T18:00:47.808Z</time>
      </trkpt>
      <trkpt lat="47.540354" lon="8.022332">
        <ele>327.556352</ele>
        <time>2021-11-14T18:01:03.594Z</time>
      </trkpt>
      <trkpt lat="47.540204" lon="8.020975">
        <ele>333.120570</ele>
        <time>2021-11-14T18:01:41.118Z</time>
      </trkpt>
      <trkpt lat="47.540134" lon="8.020585">
        <ele>335.051146</ele>
        <time>2021-11-14T18:01:53.460Z</time>
      </trkpt>
      <trkpt lat="47.540098" lon="8.020321">
        <ele>336.339629</ele>
        <time>2021-11-14T18:02:02.243Z</time>
      </trkpt>
      <trkpt lat="47.540052" lon="8.019825">
        <ele>338.734779</ele>
        <time>2021-11-14T18:02:17.839Z</time>
      </trkpt>
      <trkpt lat="47.540031" lon="8.019456">
        <ele>340.506337</ele>
        <time>2021-11-14T18:02:29.094Z</time>
      </trkpt>
      <trkpt lat="47.540012" lon="8.018657">
        <ele>343.579280</ele>
        <time>2021-11-14T18:02:52.967Z</time>
      </trkpt>
      <trkpt lat="47.539979" lon="8.017566">
        <ele>347.461166</ele>
        <time>2021-11-14T18:03:22.242Z</time>
      </trkpt>
      <trkpt lat="47.539918" lon="8.015722">
        <ele>351.360907</ele>
        <time>2021-11-14T18:03:54.984Z</time>
      </trkpt>
      <trkpt lat="47.539908" lon="8.015397">
        <ele>351.539009</ele>
        <time>2021-11-14T18:03:59.637Z</time>
      </trkpt>
      <trkpt lat="47.539903" lon="8.015200">
        <ele>351.646931</ele>
        <time>2021-11-14T18:04:01.379Z</time>
      </trkpt>
      <trkpt lat="47.539798" lon="8.012369">
        <ele>351.170776</ele>
        <time>2021-11-14T18:04:25.680Z</time>
      </trkpt>
      <trkpt lat="47.539703" lon="8.011107">
        <ele>350.269581</ele>
        <time>2021-11-14T18:04:35.373Z</time>
      </trkpt>
      <trkpt lat="47.539645" lon="8.009866">
        <ele>349.588307</ele>
        <time>2021-11-14T18:04:45.324Z</time>
      </trkpt>
      <trkpt lat="47.539569" lon="8.007914">
        <ele>349.150939</ele>
        <time>2021-11-14T18:05:03.772Z</time>
      </trkpt>
      <trkpt lat="47.539590" lon="8.005890">
        <ele>349.704228</ele>
        <time>2021-11-14T18:05:29.372Z</time>
      </trkpt>
      <trkpt lat="47.539492" lon="8.004516">
        <ele>348.051531</ele>
        <time>2021-11-14T18:05:42.546Z</time>
      </trkpt>
      <trkpt lat="47.539434" lon="8.003156">
        <ele>345.923410</ele>
        <time>2021-11-14T18:05:51.695Z</time>
      </trkpt>
      <trkpt lat="47.539437" lon="8.002963">
        <ele>345.088240</ele>
        <time>2021-11-14T18:05:52.916Z</time>
      </trkpt>
      <trkpt lat="47.539437" lon="8.002525">
        <ele>343.193382</ele>
        <time>2021-11-14T18:05:55.655Z</time>
      </trkpt>
      <trkpt lat="47.539400" lon="8.001871">
        <ele>340.354156</ele>
        <time>2021-11-14T18:05:59.662Z</time>
      </trkpt>
      <trkpt lat="47.539365" lon="8.001150">
        <ele>337.226938</ele>
        <time>2021-11-14T18:06:04.003Z</time>
      </trkpt>
      <trkpt lat="47.539569" lon="7.998315">
        <ele>323.784423</ele>
        <time>2021-11-14T18:06:21.127Z</time>
      </trkpt>
      <trkpt lat="47.539590" lon="7.998122">
        <ele>322.846735</ele>
        <time>2021-11-14T18:06:22.313Z</time>
      </trkpt>
      <trkpt lat="47.539726" lon="7.997265">
        <ele>320.315556</ele>
        <time>2021-11-14T18:06:27.962Z</time>
      </trkpt>
      <trkpt lat="47.539838" lon="7.996117">
        <ele>317.308037</ele>
        <time>2021-11-14T18:06:35.617Z</time>
      </trkpt>
      <trkpt lat="47.539876" lon="7.995796">
        <ele>316.463033</ele>
        <time>2021-11-14T18:06:37.893Z</time>
      </trkpt>
      <trkpt lat="47.540013" lon="7.995140">
        <ele>315.198072</ele>
        <time>2021-11-14T18:06:43.234Z</time>
      </trkpt>
      <trkpt lat="47.540089" lon="7.994896">
        <ele>315.003689</ele>
        <time>2021-11-14T18:06:45.278Z</time>
      </trkpt>
      <trkpt lat="47.540316" lon="7.993620">
        <ele>314.049167</ele>
        <time>2021-11-14T18:06:56.191Z</time>
      </trkpt>
      <trkpt lat="47.540262" lon="7.992244">
        <ele>313.516652</ele>
        <time>2021-11-14T18:07:08.416Z</time>
      </trkpt>
      <trkpt lat="47.540194" lon="7.991768">
        <ele>313.555737</ele>
        <time>2021-11-14T18:07:13.370Z</time>
      </trkpt>
      <trkpt lat="47.540140" lon="7.991504">
        <ele>313.577897</ele>
        <time>2021-11-14T18:07:16.263Z</time>
      </trkpt>
      <trkpt lat="47.540104" lon="7.991287">
        <ele>313.595847</ele>
        <time>2021-11-14T18:07:33.242Z</time>
      </trkpt>
      <trkpt lat="47.540056" lon="7.990982">
        <ele>313.621006</ele>
        <time>2021-11-14T18:07:36.676Z</time>
      </trkpt>
      <trkpt lat="47.540018" lon="7.990553">
        <ele>313.655763</ele>
        <time>2021-11-14T18:07:41.504Z</time>
      </trkpt>
      <trkpt lat="47.540011" lon="7.990131">
        <ele>313.708676</ele>
        <time>2021-11-14T18:07:46.345Z</time>
      </trkpt>
      <trkpt lat="47.539990" lon="7.989097">
        <ele>314.083273</ele>
        <time>2021-11-14T18:07:58.353Z</time>
      </trkpt>
      <trkpt lat="47.539978" lon="7.988189">
        <ele>314.412137</ele>
        <time>2021-11-14T18:08:09.175Z</time>
      </trkpt>
      <trkpt lat="47.540321" lon="7.987087">
        <ele>314.708046</ele>
        <time>2021-11-14T18:08:22.461Z</time>
      </trkpt>
      <trkpt lat="47.540335" lon="7.986933">
        <ele>314.724436</ele>
        <time>2021-11-14T18:08:24.342Z</time>
      </trkpt>
      <trkpt lat="47.540347" lon="7.986737">
        <ele>314.745194</ele>
        <time>2021-11-14T18:08:26.463Z</time>
      </trkpt>
      <trkpt lat="47.540347" lon="7.986737">
        <ele>314.745194</ele>
        <time>2021-11-14T18:08:26.471Z</time>
      </trkpt>
      <trkpt lat="47.539952" lon="7.986630">
        <ele>314.807934</ele>
        <time>2021-11-14T18:08:32.717Z</time>
      </trkpt>
      <trkpt lat="47.539549" lon="7.986535">
        <ele>314.871693</ele>
        <time>2021-11-14T18:08:38.271Z</time>
      </trkpt>
      <trkpt lat="47.539415" lon="7.986507">
        <ele>314.892837</ele>
        <time>2021-11-14T18:08:40.218Z</time>
      </trkpt>
      <trkpt lat="47.539274" lon="7.986488">
        <ele>314.914959</ele>
        <time>2021-11-14T18:08:41.931Z</time>
      </trkpt>
      <trkpt lat="47.538630" lon="7.986438">
        <ele>315.558518</ele>
        <time>2021-11-14T18:08:53.038Z</time>
      </trkpt>
      <trkpt lat="47.538514" lon="7.986428">
        <ele>315.691759</ele>
        <time>2021-11-14T18:08:54.836Z</time>
      </trkpt>
      <trkpt lat="47.538277" lon="7.986431">
        <ele>315.963534</ele>
        <time>2021-11-14T18:08:59.994Z</time>
      </trkpt>
      <trkpt lat="47.537897" lon="7.986428">
        <ele>316.399283</ele>
        <time>2021-11-14T18:09:08.050Z</time>
      </trkpt>
      <trkpt lat="47.537821" lon="7.986433">
        <ele>316.486518</ele>
        <time>2021-11-14T18:09:09.155Z</time>
      </trkpt>
      <trkpt lat="47.537815" lon="7.986191">
        <ele>316.673985</ele>
        <time>2021-11-14T18:09:13.000Z</time>
      </trkpt>
      <trkpt lat="47.537812" lon="7.986127">
        <ele>316.723649</ele>
        <time>2021-11-14T18:09:14.518Z</time>
      </trkpt>
      <trkpt lat="47.537884" lon="7.985939">
        <ele>316.890973</ele>
        <time>2021-11-14T18:09:16.697Z</time>
      </trkpt>
      <trkpt lat="47.537900" lon="7.985922">
        <ele>316.913552</ele>
        <time>2021-11-14T18:09:17.519Z</time>
      </trkpt>
      <trkpt lat="47.538208" lon="7.985592">
        <ele>317.740629</ele>
        <time>2021-11-14T18:09:25.758Z</time>
      </trkpt>
      <trkpt lat="47.538160" lon="7.985490">
        <ele>317.942391</ele>
        <time>2021-11-14T18:09:27.720Z</time>
      </trkpt>
      <trkpt lat="47.537773" lon="7.984992">
        <ele>319.174617</ele>
        <time>2021-11-14T18:09:40.273Z</time>
      </trkpt>
      <trkpt lat="47.537732" lon="7.984941">
        <ele>319.303308</ele>
        <time>2021-11-14T18:09:41.209Z</time>
      </trkpt>
      <trkpt lat="47.537175" lon="7.984220">
        <ele>321.081349</ele>
        <time>2021-11-14T18:10:00.948Z</time>
      </trkpt>
      <trkpt lat="47.536849" lon="7.983808">
        <ele>322.446272</ele>
        <time>2021-11-14T18:10:11.425Z</time>
      </trkpt>
      <trkpt lat="47.536410" lon="7.983244">
        <ele>324.431130</ele>
        <time>2021-11-14T18:10:27.916Z</time>
      </trkpt>
      <trkpt lat="47.536530" lon="7.982859">
        <ele>325.408953</ele>
        <time>2021-11-14T18:10:36.286Z</time>
      </trkpt>
      <trkpt lat="47.536764" lon="7.982225">
        <ele>327.075105</ele>
        <time>2021-11-14T18:10:51.427Z</time>
      </trkpt>
      <trkpt lat="47.536775" lon="7.982096">
        <ele>327.374929</ele>
        <time>2021-11-14T18:10:54.022Z</time>
      </trkpt>
      <trkpt lat="47.536842" lon="7.981878">
        <ele>327.812342</ele>
        <time>2021-11-14T18:10:59.112Z</time>
      </trkpt>
      <trkpt lat="47.536896" lon="7.981697">
        <ele>328.156592</ele>
        <time>2021-11-14T18:11:03.168Z</time>
      </trkpt>
      <trkpt lat="47.536959" lon="7.981602">
        <ele>328.388252</ele>
        <time>2021-11-14T18:11:05.648Z</time>
      </trkpt>
      <trkpt lat="47.537107" lon="7.981082">
        <ele>329.369963</ele>
        <time>2021-11-14T18:11:16.597Z</time>
      </trkpt>
      <trkpt lat="47.537461" lon="7.980118">
        <ele>331.278996</ele>
        <time>2021-11-14T18:11:35.151Z</time>
      </trkpt>
      <trkpt lat="47.537583" lon="7.979760">
        <ele>331.976626</ele>
        <time>2021-11-14T18:11:41.155Z</time>
      </trkpt>
      <trkpt lat="47.537955" lon="7.978125">
        <ele>331.451385</ele>
        <time>2021-11-14T18:11:57.497Z</time>
      </trkpt>
      <trkpt lat="47.538107" lon="7.977240">
        <ele>331.097383</ele>
        <time>2021-11-14T18:12:04.403Z</time>
      </trkpt>
      <trkpt lat="47.538242" lon="7.976347">
        <ele>329.983680</ele>
        <time>2021-11-14T18:12:11.280Z</time>
      </trkpt>
      <trkpt lat="47.538706" lon="7.974459">
        <ele>327.311690</ele>
        <time>2021-11-14T18:12:26.209Z</time>
      </trkpt>
      <trkpt lat="47.539262" lon="7.971768">
        <ele>322.968757</ele>
        <time>2021-11-14T18:12:46.553Z</time>
      </trkpt>
      <trkpt lat="47.539783" lon="7.969587">
        <ele>319.296138</ele>
        <time>2021-11-14T18:13:03.033Z</time>
      </trkpt>
      <trkpt lat="47.540214" lon="7.967628">
        <ele>317.156468</ele>
        <time>2021-11-14T18:13:18.833Z</time>
      </trkpt>
      <trkpt lat="47.540896" lon="7.964711">
        <ele>315.095191</ele>
        <time>2021-11-14T18:13:44.939Z</time>
      </trkpt>
      <trkpt lat="47.541095" lon="7.964204">
        <ele>314.735996</ele>
        <time>2021-11-14T18:13:49.975Z</time>
      </trkpt>
      <trkpt lat="47.541169" lon="7.964123">
        <ele>314.649437</ele>
        <time>2021-11-14T18:13:50.933Z</time>
      </trkpt>
      <trkpt lat="47.541129" lon="7.964008">
        <ele>314.567280</ele>
        <time>2021-11-14T18:13:52.376Z</time>
      </trkpt>
      <trkpt lat="47.541019" lon="7.963815">
        <ele>314.406870</ele>
        <time>2021-11-14T18:13:54.726Z</time>
      </trkpt>
      <trkpt lat="47.541123" lon="7.963520">
        <ele>314.195517</ele>
        <time>2021-11-14T18:13:57.459Z</time>
      </trkpt>
      <trkpt lat="47.541217" lon="7.963187">
        <ele>313.966297</ele>
        <time>2021-11-14T18:14:00.361Z</time>
      </trkpt>
      <trkpt lat="47.541258" lon="7.962975">
        <ele>313.826248</ele>
        <time>2021-11-14T18:14:02.756Z</time>
      </trkpt>
      <trkpt lat="47.541293" lon="7.962730">
        <ele>313.667212</ele>
        <time>2021-11-14T18:14:04.740Z</time>
      </trkpt>
      <trkpt lat="47.541308" lon="7.962513">
        <ele>313.528683</ele>
        <time>2021-11-14T18:14:06.765Z</time>
      </trkpt>
      <trkpt lat="47.541314" lon="7.962377">
        <ele>313.442130</ele>
        <time>2021-11-14T18:14:08.118Z</time>
      </trkpt>
      <trkpt lat="47.541316" lon="7.962197">
        <ele>313.327804</ele>
        <time>2021-11-14T18:14:09.462Z</time>
      </trkpt>
      <trkpt lat="47.541242" lon="7.961294">
        <ele>311.804186</ele>
        <time>2021-11-14T18:14:16.486Z</time>
      </trkpt>
      <trkpt lat="47.541153" lon="7.960814">
        <ele>310.923253</ele>
        <time>2021-11-14T18:14:20.016Z</time>
      </trkpt>
      <trkpt lat="47.541060" lon="7.960321">
        <ele>310.017347</ele>
        <time>2021-11-14T18:14:23.606Z</time>
      </trkpt>
      <trkpt lat="47.541027" lon="7.959944">
        <ele>309.344569</ele>
        <time>2021-11-14T18:14:26.109Z</time>
      </trkpt>
      <trkpt lat="47.541019" lon="7.959792">
        <ele>309.074752</ele>
        <time>2021-11-14T18:14:27.154Z</time>
      </trkpt>
      <trkpt lat="47.541012" lon="7.959578">
        <ele>308.695583</ele>
        <time>2021-11-14T18:14:28.628Z</time>
      </trkpt>
      <trkpt lat="47.541016" lon="7.959388">
        <ele>308.294273</ele>
        <time>2021-11-14T18:14:29.831Z</time>
      </trkpt>
      <trkpt lat="47.541081" lon="7.958828">
        <ele>306.970464</ele>
        <time>2021-11-14T18:14:33.599Z</time>
      </trkpt>
      <trkpt lat="47.541226" lon="7.958150">
        <ele>305.313518</ele>
        <time>2021-11-14T18:14:38.360Z</time>
      </trkpt>
      <trkpt lat="47.541305" lon="7.957787">
        <ele>304.424958</ele>
        <time>2021-11-14T18:14:40.844Z</time>
      </trkpt>
      <trkpt lat="47.541355" lon="7.957559">
        <ele>303.866450</ele>
        <time>2021-11-14T18:14:42.546Z</time>
      </trkpt>
      <trkpt lat="47.541450" lon="7.956897">
        <ele>302.333338</ele>
        <time>2021-11-14T18:14:47.180Z</time>
      </trkpt>
      <trkpt lat="47.541464" lon="7.956698">
        <ele>302.170283</ele>
        <time>2021-11-14T18:14:48.586Z</time>
      </trkpt>
      <trkpt lat="47.541533" lon="7.955526">
        <ele>301.211532</ele>
        <time>2021-11-14T18:14:57.420Z</time>
      </trkpt>
      <trkpt lat="47.541554" lon="7.955311">
        <ele>301.034492</ele>
        <time>2021-11-14T18:14:59.457Z</time>
      </trkpt>
      <trkpt lat="47.541735" lon="7.953892">
        <ele>300.251389</ele>
        <time>2021-11-14T18:15:13.666Z</time>
      </trkpt>
      <trkpt lat="47.541773" lon="7.953695">
        <ele>300.284989</ele>
        <time>2021-11-14T18:15:15.914Z</time>
      </trkpt>
      <trkpt lat="47.541791" lon="7.953601">
        <ele>300.301013</ele>
        <time>2021-11-14T18:15:16.948Z</time>
      </trkpt>
      <trkpt lat="47.541991" lon="7.952667">
        <ele>300.461704</ele>
        <time>2021-11-14T18:15:27.805Z</time>
      </trkpt>
      <trkpt lat="47.542169" lon="7.951815">
        <ele>300.607964</ele>
        <time>2021-11-14T18:15:37.542Z</time>
      </trkpt>
      <trkpt lat="47.542192" lon="7.951713">
        <ele>300.625446</ele>
        <time>2021-11-14T18:15:38.805Z</time>
      </trkpt>
      <trkpt lat="47.542357" lon="7.951037">
        <ele>300.737687</ele>
        <time>2021-11-14T18:15:46.269Z</time>
      </trkpt>
      <trkpt lat="47.542444" lon="7.950687">
        <ele>300.795925</ele>
        <time>2021-11-14T18:15:50.100Z</time>
      </trkpt>
      <trkpt lat="47.542546" lon="7.950274">
        <ele>300.864592</ele>
        <time>2021-11-14T18:15:54.447Z</time>
      </trkpt>
      <trkpt lat="47.542554" lon="7.950231">
        <ele>300.871557</ele>
        <time>2021-11-14T18:15:54.934Z</time>
      </trkpt>
      <trkpt lat="47.542560" lon="7.950202">
        <ele>300.876293</ele>
        <time>2021-11-14T18:15:55.267Z</time>
      </trkpt>
      <trkpt lat="47.542609" lon="7.949914">
        <ele>300.922668</ele>
        <time>2021-11-14T18:15:58.266Z</time>
      </trkpt>
      <trkpt lat="47.542719" lon="7.949175">
        <ele>301.050302</ele>
        <time>2021-11-14T18:16:06.169Z</time>
      </trkpt>
      <trkpt lat="47.542826" lon="7.948298">
        <ele>301.735905</ele>
        <time>2021-11-14T18:16:17.112Z</time>
      </trkpt>
      <trkpt lat="47.542838" lon="7.948225">
        <ele>301.793705</ele>
        <time>2021-11-14T18:16:17.940Z</time>
      </trkpt>
      <trkpt lat="47.542875" lon="7.948001">
        <ele>301.971110</ele>
        <time>2021-11-14T18:16:20.823Z</time>
      </trkpt>
      <trkpt lat="47.542928" lon="7.947798">
        <ele>302.138550</ele>
        <time>2021-11-14T18:16:23.746Z</time>
      </trkpt>
      <trkpt lat="47.542957" lon="7.947651">
        <ele>302.256367</ele>
        <time>2021-11-14T18:16:25.454Z</time>
      </trkpt>
      <trkpt lat="47.543050" lon="7.947411">
        <ele>302.469254</ele>
        <time>2021-11-14T18:16:29.818Z</time>
      </trkpt>
      <trkpt lat="47.543087" lon="7.947317">
        <ele>302.552963</ele>
        <time>2021-11-14T18:16:31.076Z</time>
      </trkpt>
      <trkpt lat="47.543092" lon="7.947257">
        <ele>302.599471</ele>
        <time>2021-11-14T18:16:31.840Z</time>
      </trkpt>
      <trkpt lat="47.543097" lon="7.947186">
        <ele>302.654387</ele>
        <time>2021-11-14T18:16:32.659Z</time>
      </trkpt>
      <trkpt lat="47.543086" lon="7.947052">
        <ele>302.758231</ele>
        <time>2021-11-14T18:16:34.431Z</time>
      </trkpt>
      <trkpt lat="47.543056" lon="7.946935">
        <ele>302.854513</ele>
        <time>2021-11-14T18:16:36.744Z</time>
      </trkpt>
      <trkpt lat="47.543045" lon="7.946881">
        <ele>302.897905</ele>
        <time>2021-11-14T18:16:37.832Z</time>
      </trkpt>
      <trkpt lat="47.542982" lon="7.946547">
        <ele>303.207875</ele>
        <time>2021-11-14T18:16:42.149Z</time>
      </trkpt>
      <trkpt lat="47.542974" lon="7.946495">
        <ele>303.272069</ele>
        <time>2021-11-14T18:16:43.317Z</time>
      </trkpt>
      <trkpt lat="47.542960" lon="7.946400">
        <ele>303.389107</ele>
        <time>2021-11-14T18:16:45.070Z</time>
      </trkpt>
      <trkpt lat="47.542916" lon="7.945730">
        <ele>304.199348</ele>
        <time>2021-11-14T18:16:55.497Z</time>
      </trkpt>
      <trkpt lat="47.542913" lon="7.945267">
        <ele>304.756656</ele>
        <time>2021-11-14T18:17:03.072Z</time>
      </trkpt>
      <trkpt lat="47.543005" lon="7.943892">
        <ele>306.308107</ele>
        <time>2021-11-14T18:17:23.181Z</time>
      </trkpt>
      <trkpt lat="47.543007" lon="7.943867">
        <ele>306.311227</ele>
        <time>2021-11-14T18:17:24.082Z</time>
      </trkpt>
      <trkpt lat="47.543161" lon="7.942213">
        <ele>306.518109</ele>
        <time>2021-11-14T18:17:42.860Z</time>
      </trkpt>
      <trkpt lat="47.543424" lon="7.940730">
        <ele>305.919538</ele>
        <time>2021-11-14T18:17:55.614Z</time>
      </trkpt>
      <trkpt lat="47.543435" lon="7.940670">
        <ele>305.853743</ele>
        <time>2021-11-14T18:17:56.039Z</time>
      </trkpt>
      <trkpt lat="47.543826" lon="7.939433">
        <ele>304.408283</ele>
        <time>2021-11-14T18:18:06.478Z</time>
      </trkpt>
      <trkpt lat="47.544472" lon="7.937932">
        <ele>302.315323</ele>
        <time>2021-11-14T18:18:19.683Z</time>
      </trkpt>
      <trkpt lat="47.544705" lon="7.937395">
        <ele>301.529498</ele>
        <time>2021-11-14T18:18:24.523Z</time>
      </trkpt>
      <trkpt lat="47.544903" lon="7.936917">
        <ele>300.839133</ele>
        <time>2021-11-14T18:18:28.783Z</time>
      </trkpt>
      <trkpt lat="47.545074" lon="7.936484">
        <ele>300.314618</ele>
        <time>2021-11-14T18:18:32.614Z</time>
      </trkpt>
      <trkpt lat="47.545457" lon="7.935110">
        <ele>299.044604</ele>
        <time>2021-11-14T18:18:43.983Z</time>
      </trkpt>
      <trkpt lat="47.545674" lon="7.933625">
        <ele>298.505165</ele>
        <time>2021-11-14T18:18:57.096Z</time>
      </trkpt>
      <trkpt lat="47.545702" lon="7.933290">
        <ele>298.652078</ele>
        <time>2021-11-14T18:19:00.637Z</time>
      </trkpt>
      <trkpt lat="47.545724" lon="7.932758">
        <ele>298.884050</ele>
        <time>2021-11-14T18:19:06.903Z</time>
      </trkpt>
      <trkpt lat="47.545724" lon="7.932681">
        <ele>298.917562</ele>
        <time>2021-11-14T18:19:07.969Z</time>
      </trkpt>
      <trkpt lat="47.545721" lon="7.931992">
        <ele>299.217436</ele>
        <time>2021-11-14T18:19:16.975Z</time>
      </trkpt>
      <trkpt lat="47.545696" lon="7.931497">
        <ele>299.479628</ele>
        <time>2021-11-14T18:19:24.188Z</time>
      </trkpt>
      <trkpt lat="47.545661" lon="7.930955">
        <ele>300.160612</ele>
        <time>2021-11-14T18:19:32.880Z</time>
      </trkpt>
      <trkpt lat="47.545563" lon="7.929641">
        <ele>301.814058</ele>
        <time>2021-11-14T18:19:55.159Z</time>
      </trkpt>
      <trkpt lat="47.545475" lon="7.928419">
        <ele>302.305668</ele>
        <time>2021-11-14T18:20:11.461Z</time>
      </trkpt>
      <trkpt lat="47.545421" lon="7.927686">
        <ele>301.646183</ele>
        <time>2021-11-14T18:20:17.565Z</time>
      </trkpt>
      <trkpt lat="47.545406" lon="7.927306">
        <ele>301.305731</ele>
        <time>2021-11-14T18:20:20.468Z</time>
      </trkpt>
      <trkpt lat="47.545407" lon="7.927001">
        <ele>301.032937</ele>
        <time>2021-11-14T18:20:22.755Z</time>
      </trkpt>
      <trkpt lat="47.545409" lon="7.926773">
        <ele>300.828997</ele>
        <time>2021-11-14T18:20:24.384Z</time>
      </trkpt>
      <trkpt lat="47.545417" lon="7.925848">
        <ele>299.332984</ele>
        <time>2021-11-14T18:20:30.719Z</time>
      </trkpt>
      <trkpt lat="47.545446" lon="7.925350">
        <ele>298.047925</ele>
        <time>2021-11-14T18:20:34.011Z</time>
      </trkpt>
      <trkpt lat="47.545466" lon="7.924880">
        <ele>296.837208</ele>
        <time>2021-11-14T18:20:37.064Z</time>
      </trkpt>
      <trkpt lat="47.545481" lon="7.924396">
        <ele>295.591586</ele>
        <time>2021-11-14T18:20:40.148Z</time>
      </trkpt>
      <trkpt lat="47.545521" lon="7.923709">
        <ele>293.818828</ele>
        <time>2021-11-14T18:20:44.673Z</time>
      </trkpt>
      <trkpt lat="47.545536" lon="7.923407">
        <ele>293.290320</ele>
        <time>2021-11-14T18:20:46.821Z</time>
      </trkpt>
      <trkpt lat="47.545553" lon="7.923142">
        <ele>292.971921</ele>
        <time>2021-11-14T18:20:48.652Z</time>
      </trkpt>
      <trkpt lat="47.545587" lon="7.922895">
        <ele>292.670399</ele>
        <time>2021-11-14T18:20:50.586Z</time>
      </trkpt>
      <trkpt lat="47.545641" lon="7.922610">
        <ele>292.316330</ele>
        <time>2021-11-14T18:20:52.731Z</time>
      </trkpt>
      <trkpt lat="47.545690" lon="7.922369">
        <ele>292.015273</ele>
        <time>2021-11-14T18:20:54.738Z</time>
      </trkpt>
      <trkpt lat="47.545699" lon="7.922325">
        <ele>291.960281</ele>
        <time>2021-11-14T18:20:55.032Z</time>
      </trkpt>
      <trkpt lat="47.545714" lon="7.922249">
        <ele>291.865570</ele>
        <time>2021-11-14T18:20:55.622Z</time>
      </trkpt>
      <trkpt lat="47.545778" lon="7.921947">
        <ele>291.486959</ele>
        <time>2021-11-14T18:20:58.325Z</time>
      </trkpt>
      <trkpt lat="47.545810" lon="7.921755">
        <ele>291.250409</ele>
        <time>2021-11-14T18:20:59.805Z</time>
      </trkpt>
      <trkpt lat="47.545881" lon="7.921096">
        <ele>290.452194</ele>
        <time>2021-11-14T18:21:05.267Z</time>
      </trkpt>
      <trkpt lat="47.545913" lon="7.920765">
        <ele>290.273923</ele>
        <time>2021-11-14T18:21:08.160Z</time>
      </trkpt>
      <trkpt lat="47.545973" lon="7.920313">
        <ele>290.178073</ele>
        <time>2021-11-14T18:21:12.630Z</time>
      </trkpt>
      <trkpt lat="47.546128" lon="7.919617">
        <ele>290.025577</ele>
        <time>2021-11-14T18:21:19.871Z</time>
      </trkpt>
      <trkpt lat="47.546262" lon="7.919081">
        <ele>289.906648</ele>
        <time>2021-11-14T18:21:25.919Z</time>
      </trkpt>
      <trkpt lat="47.546821" lon="7.916867">
        <ele>289.114867</ele>
        <time>2021-11-14T18:21:46.587Z</time>
      </trkpt>
      <trkpt lat="47.547032" lon="7.916218">
        <ele>288.837032</ele>
        <time>2021-11-14T18:21:52.895Z</time>
      </trkpt>
      <trkpt lat="47.547091" lon="7.916039">
        <ele>288.760202</ele>
        <time>2021-11-14T18:21:54.669Z</time>
      </trkpt>
      <trkpt lat="47.547113" lon="7.915971">
        <ele>288.739037</ele>
        <time>2021-11-14T18:21:55.259Z</time>
      </trkpt>
      <trkpt lat="47.547423" lon="7.915080">
        <ele>288.771890</ele>
        <time>2021-11-14T18:22:04.746Z</time>
      </trkpt>
      <trkpt lat="47.547994" lon="7.913433">
        <ele>288.950887</ele>
        <time>2021-11-14T18:22:24.450Z</time>
      </trkpt>
      <trkpt lat="47.548027" lon="7.913334">
        <ele>289.017270</ele>
        <time>2021-11-14T18:22:25.810Z</time>
      </trkpt>
      <trkpt lat="47.548412" lon="7.912168">
        <ele>289.797667</ele>
        <time>2021-11-14T18:22:42.213Z</time>
      </trkpt>
      <trkpt lat="47.549012" lon="7.910340">
        <ele>291.194159</ele>
        <time>2021-11-14T18:23:08.293Z</time>
      </trkpt>
      <trkpt lat="47.549102" lon="7.910058">
        <ele>291.436964</ele>
        <time>2021-11-14T18:23:12.434Z</time>
      </trkpt>
      <trkpt lat="47.549136" lon="7.910092">
        <ele>291.484270</ele>
        <time>2021-11-14T18:23:13.283Z</time>
      </trkpt>
      <trkpt lat="47.549570" lon="7.908713">
        <ele>292.807030</ele>
        <time>2021-11-14T18:23:32.735Z</time>
      </trkpt>
      <trkpt lat="47.549520" lon="7.908678">
        <ele>292.923820</ele>
        <time>2021-11-14T18:23:34.189Z</time>
      </trkpt>
      <trkpt lat="47.549539" lon="7.908625">
        <ele>293.009364</ele>
        <time>2021-11-14T18:23:34.863Z</time>
      </trkpt>
      <trkpt lat="47.550497" lon="7.905558">
        <ele>298.669421</ele>
        <time>2021-11-14T18:24:30.307Z</time>
      </trkpt>
      <trkpt lat="47.550374" lon="7.905475">
        <ele>299.112506</ele>
        <time>2021-11-14T18:24:34.917Z</time>
      </trkpt>
      <trkpt lat="47.550283" lon="7.905413">
        <ele>299.440863</ele>
        <time>2021-11-14T18:24:38.474Z</time>
      </trkpt>
      <trkpt lat="47.550067" lon="7.905245">
        <ele>300.240620</ele>
        <time>2021-11-14T18:24:47.095Z</time>
      </trkpt>
      <trkpt lat="47.549867" lon="7.905155">
        <ele>300.925858</ele>
        <time>2021-11-14T18:24:54.788Z</time>
      </trkpt>
      <trkpt lat="47.549868" lon="7.905010">
        <ele>301.246715</ele>
        <time>2021-11-14T18:24:58.157Z</time>
      </trkpt>
      <trkpt lat="47.550025" lon="7.904774">
        <ele>301.979926</ele>
        <time>2021-11-14T18:25:06.345Z</time>
      </trkpt>
      <trkpt lat="47.550302" lon="7.904164">
        <ele>303.806859</ele>
        <time>2021-11-14T18:25:24.607Z</time>
      </trkpt>
      <trkpt lat="47.550498" lon="7.903445">
        <ele>305.766273</ele>
        <time>2021-11-14T18:25:44.216Z</time>
      </trkpt>
      <trkpt lat="47.550688" lon="7.902451">
        <ele>308.376764</ele>
        <time>2021-11-14T18:26:06.764Z</time>
      </trkpt>
      <trkpt lat="47.550757" lon="7.901591">
        <ele>310.721913</ele>
        <time>2021-11-14T18:26:26.560Z</time>
      </trkpt>
      <trkpt lat="47.550769" lon="7.901362">
        <ele>311.357978</ele>
        <time>2021-11-14T18:26:32.468Z</time>
      </trkpt>
      <trkpt lat="47.550801" lon="7.900244">
        <ele>314.456775</ele>
        <time>2021-11-14T18:26:56.866Z</time>
      </trkpt>
      <trkpt lat="47.550819" lon="7.898109">
        <ele>319.767657</ele>
        <time>2021-11-14T18:27:43.906Z</time>
      </trkpt>
      <trkpt lat="47.550648" lon="7.896481">
        <ele>322.991226</ele>
        <time>2021-11-14T18:28:11.561Z</time>
      </trkpt>
      <trkpt lat="47.550639" lon="7.896345">
        <ele>323.111631</ele>
        <time>2021-11-14T18:28:13.936Z</time>
      </trkpt>
      <trkpt lat="47.550660" lon="7.896255">
        <ele>323.195535</ele>
        <time>2021-11-14T18:28:14.737Z</time>
      </trkpt>
      <trkpt lat="47.550838" lon="7.895509">
        <ele>323.892703</ele>
        <time>2021-11-14T18:28:24.905Z</time>
      </trkpt>
      <trkpt lat="47.550878" lon="7.895158">
        <ele>324.206347</ele>
        <time>2021-11-14T18:28:28.967Z</time>
      </trkpt>
      <trkpt lat="47.550908" lon="7.894308">
        <ele>324.971027</ele>
        <time>2021-11-14T18:28:39.439Z</time>
      </trkpt>
      <trkpt lat="47.550892" lon="7.893176">
        <ele>327.187251</ele>
        <time>2021-11-14T18:28:54.157Z</time>
      </trkpt>
      <trkpt lat="47.550904" lon="7.891725">
        <ele>330.027603</ele>
        <time>2021-11-14T18:29:23.919Z</time>
      </trkpt>
      <trkpt lat="47.550915" lon="7.890600">
        <ele>334.435478</ele>
        <time>2021-11-14T18:29:52.759Z</time>
      </trkpt>
      <trkpt lat="47.550833" lon="7.889069">
        <ele>340.645634</ele>
        <time>2021-11-14T18:30:35.393Z</time>
      </trkpt>
      <trkpt lat="47.550831" lon="7.888611">
        <ele>342.492202</ele>
        <time>2021-11-14T18:30:47.963Z</time>
      </trkpt>
      <trkpt lat="47.550789" lon="7.887816">
        <ele>345.705470</ele>
        <time>2021-11-14T18:31:08.575Z</time>
      </trkpt>
      <trkpt lat="47.550758" lon="7.887295">
        <ele>347.812995</ele>
        <time>2021-11-14T18:31:22.396Z</time>
      </trkpt>
      <trkpt lat="47.550677" lon="7.886476">
        <ele>351.148422</ele>
        <time>2021-11-14T18:31:43.885Z</time>
      </trkpt>
      <trkpt lat="47.550548" lon="7.885799">
        <ele>353.543666</ele>
        <time>2021-11-14T18:32:01.088Z</time>
      </trkpt>
      <trkpt lat="47.550391" lon="7.885109">
        <ele>355.919346</ele>
        <time>2021-11-14T18:32:18.725Z</time>
      </trkpt>
      <trkpt lat="47.550332" lon="7.884727">
        <ele>357.197880</ele>
        <time>2021-11-14T18:32:27.416Z</time>
      </trkpt>
      <trkpt lat="47.550234" lon="7.883221">
        <ele>361.652560</ele>
        <time>2021-11-14T18:33:00.247Z</time>
      </trkpt>
      <trkpt lat="47.549927" lon="7.881490">
        <ele>365.898696</ele>
        <time>2021-11-14T18:33:32.511Z</time>
      </trkpt>
      <trkpt lat="47.549726" lon="7.880786">
        <ele>367.919151</ele>
        <time>2021-11-14T18:33:48.487Z</time>
      </trkpt>
      <trkpt lat="47.549327" lon="7.879547">
        <ele>371.836318</ele>
        <time>2021-11-14T18:34:18.271Z</time>
      </trkpt>
      <trkpt lat="47.549318" lon="7.879398">
        <ele>372.263177</ele>
        <time>2021-11-14T18:34:21.460Z</time>
      </trkpt>
      <trkpt lat="47.549140" lon="7.879391">
        <ele>373.015950</ele>
        <time>2021-11-14T18:34:28.330Z</time>
      </trkpt>
      <trkpt lat="47.548718" lon="7.879258">
        <ele>374.602410</ele>
        <time>2021-11-14T18:34:42.001Z</time>
      </trkpt>
      <trkpt lat="47.548422" lon="7.878959">
        <ele>375.456607</ele>
        <time>2021-11-14T18:34:52.648Z</time>
      </trkpt>
      <trkpt lat="47.548234" lon="7.878638">
        <ele>376.140576</ele>
        <time>2021-11-14T18:35:01.080Z</time>
      </trkpt>
      <trkpt lat="47.547992" lon="7.877974">
        <ele>377.355023</ele>
        <time>2021-11-14T18:35:14.177Z</time>
      </trkpt>
      <trkpt lat="47.547574" lon="7.876801">
        <ele>377.680372</ele>
        <time>2021-11-14T18:35:27.940Z</time>
      </trkpt>
      <trkpt lat="47.547126" lon="7.875801">
        <ele>375.754247</ele>
        <time>2021-11-14T18:35:36.723Z</time>
      </trkpt>
      <trkpt lat="47.546309" lon="7.874154">
        <ele>369.775795</ele>
        <time>2021-11-14T18:35:49.911Z</time>
      </trkpt>
      <trkpt lat="47.546135" lon="7.873859">
        <ele>368.221729</ele>
        <time>2021-11-14T18:35:52.293Z</time>
      </trkpt>
      <trkpt lat="47.546077" lon="7.873763">
        <ele>367.710640</ele>
        <time>2021-11-14T18:35:53.104Z</time>
      </trkpt>
      <trkpt lat="47.545934" lon="7.873549">
        <ele>366.516097</ele>
        <time>2021-11-14T18:35:54.909Z</time>
      </trkpt>
      <trkpt lat="47.545746" lon="7.873302">
        <ele>365.039351</ele>
        <time>2021-11-14T18:35:57.197Z</time>
      </trkpt>
      <trkpt lat="47.545515" lon="7.873015">
        <ele>363.193104</ele>
        <time>2021-11-14T18:35:59.896Z</time>
      </trkpt>
      <trkpt lat="47.545478" lon="7.872968">
        <ele>362.861221</ele>
        <time>2021-11-14T18:36:00.338Z</time>
      </trkpt>
      <trkpt lat="47.545375" lon="7.872836">
        <ele>361.933844</ele>
        <time>2021-11-14T18:36:01.531Z</time>
      </trkpt>
      <trkpt lat="47.545131" lon="7.872664">
        <ele>360.093850</ele>
        <time>2021-11-14T18:36:03.990Z</time>
      </trkpt>
      <trkpt lat="47.544883" lon="7.872555">
        <ele>358.332367</ele>
        <time>2021-11-14T18:36:06.313Z</time>
      </trkpt>
      <trkpt lat="47.544390" lon="7.872423">
        <ele>354.920946</ele>
        <time>2021-11-14T18:36:10.777Z</time>
      </trkpt>
      <trkpt lat="47.543332" lon="7.872237">
        <ele>351.489233</ele>
        <time>2021-11-14T18:36:20.544Z</time>
      </trkpt>
      <trkpt lat="47.543251" lon="7.872152">
        <ele>351.489233</ele>
        <time>2021-11-14T18:36:21.485Z</time>
      </trkpt>
      <trkpt lat="47.543233" lon="7.872082">
        <ele>351.489233</ele>
        <time>2021-11-14T18:36:21.906Z</time>
      </trkpt>
      <trkpt lat="47.543013" lon="7.872182">
        <ele>351.489233</ele>
        <time>2021-11-14T18:36:24.154Z</time>
      </trkpt>
      <trkpt lat="47.542919" lon="7.872226">
        <ele>351.489233</ele>
        <time>2021-11-14T18:36:25.080Z</time>
      </trkpt>
      <trkpt lat="47.542814" lon="7.872280">
        <ele>351.489233</ele>
        <time>2021-11-14T18:36:26.131Z</time>
      </trkpt>
      <trkpt lat="47.542714" lon="7.872334">
        <ele>351.489233</ele>
        <time>2021-11-14T18:36:27.214Z</time>
      </trkpt>
      <trkpt lat="47.542537" lon="7.872430">
        <ele>351.489233</ele>
        <time>2021-11-14T18:36:28.947Z</time>
      </trkpt>
      <trkpt lat="47.542436" lon="7.872494">
        <ele>351.489233</ele>
        <time>2021-11-14T18:36:30.250Z</time>
      </trkpt>
      <trkpt lat="47.542394" lon="7.872341">
        <ele>351.489233</ele>
        <time>2021-11-14T18:36:31.336Z</time>
      </trkpt>
      <trkpt lat="47.542218" lon="7.871866">
        <ele>351.489233</ele>
        <time>2021-11-14T18:36:34.994Z</time>
      </trkpt>
      <trkpt lat="47.542091" lon="7.871721">
        <ele>351.489233</ele>
        <time>2021-11-14T18:36:36.510Z</time>
      </trkpt>
      <trkpt lat="47.542067" lon="7.871664">
        <ele>351.489233</ele>
        <time>2021-11-14T18:36:37.205Z</time>
      </trkpt>
      <trkpt lat="47.542039" lon="7.871556">
        <ele>351.489233</ele>
        <time>2021-11-14T18:36:38.087Z</time>
      </trkpt>
      <trkpt lat="47.542039" lon="7.871556">
        <ele>351.489233</ele>
        <time>2021-11-14T18:36:38.088Z</time>
      </trkpt>
    </trkseg>
  </trk>
</gpx>